[[{"header":{"parameterUnit":"m.s-1","parameterCategory":1,"la1":30.6,"la2":28.766,"lo1":-90.7593,"lo2":-88.6598,"dy":0.0162,"dx":0.0183,"nx":116,"ny":114,"refTime":"2023-09-28T18:00:00:Z","depth":0,"parameterNumber":2,"parameterNumberName":"U-component_of_WINDS"},"data":[0.0,0.0,0.0,0.0,0.0,0.0,0.0,0.0,0.0,0.0,0.0,0.0,0.0,0.0,0.0,0.0,0.0,0.0,0.0,0.0,0.0,0.0,0.0,0.0,0.0,0.0,0.0,0.0,0.0,0.0,0.0,0.0,0.0,0.0,0.0,0.0,0.0,0.0,0.0,0.0,0.0,0.0,0.0,0.0,0.0,0.0,0.0,0.0,0.0,0.0,0.0,0.0,0.0,0.0,0.0,0.0,0.0,0.0,0.0,0.0,0.0,0.0,0.0,0.0,0.0,0.0,0.0,0.0,0.0,0.0,0.0,0.0,0.0,0.0,0.0,0.0,0.0,0.0,0.0,0.0,0.0,0.0,0.0,0.0,0.0,0.0,0.0,0.0,0.0,0.0,0.0,0.0,0.0,0.0,0.0,0.0,0.0,0.0,0.0,0.0,0.0,0.0,0.0,0.0,0.0,0.0,0.0,0.0,0.0,0.0,0.0,0.0,0.0,0.0,0.0,0.0,0.0,0.0,0.0,0.0,0.0,0.0,0.0,0.0,0.0,0.0,0.0,0.0,0.0,0.0,0.0,0.0,0.0,0.0,0.0,0.0,0.0,0.0,0.0,0.0,0.0,0.0,0.0,0.0,0.0,0.0,0.0,0.0,0.0,0.0,0.0,0.0,0.0,0.0,0.0,0.0,0.0,0.0,0.0,0.0,0.0,0.0,0.0,0.0,0.0,0.0,0.0,0.0,0.0,0.0,0.0,0.0,0.0,0.0,0.0,0.0,0.0,0.0,0.0,0.0,0.0,0.0,0.0,0.0,0.0,0.0,0.0,0.0,0.0,0.0,0.0,0.0,0.0,0.0,0.0,0.0,0.0,0.0,0.0,0.0,0.0,0.0,0.0,0.0,0.0,0.0,0.0,0.0,0.0,0.0,0.0,0.0,0.0,0.0,0.0,0.0,0.0,0.0,0.0,0.0,0.0,0.0,0.0,0.0,0.0,0.0,0.0,0.0,0.0,0.0,0.0,0.0,0.0,0.0,0.0,0.0,0.0,0.0,0.0,0.0,0.0,0.0,0.0,0.0,0.0,0.0,0.0,0.0,0.0,0.0,0.0,0.0,0.0,0.0,0.0,0.0,0.0,0.0,0.0,0.0,0.0,0.0,0.0,0.0,0.0,0.0,0.0,0.0,0.0,0.0,0.0,0.0,0.0,0.0,0.0,0.0,0.0,0.0,0.0,0.0,0.0,0.0,0.0,0.0,0.0,0.0,0.0,0.0,0.0,0.0,0.0,0.0,0.0,0.0,0.0,0.0,0.0,0.0,0.0,0.0,0.0,0.0,0.0,0.0,0.0,0.0,0.0,0.0,0.0,0.0,0.0,0.0,0.0,0.0,0.0,0.0,0.0,0.0,0.0,0.0,0.0,0.0,0.0,0.0,0.0,0.0,0.0,0.0,0.0,0.0,0.0,0.0,0.0,0.0,0.0,0.0,0.0,0.0,0.0,0.0,0.0,0.0,0.0,0.0,0.0,0.0,0.0,0.0,0.0,0.0,0.0,0.0,0.0,0.0,0.0,0.0,0.0,0.0,0.0,0.0,0.0,0.0,0.0,0.0,0.0,0.0,0.0,0.0,0.0,0.0,0.0,0.0,0.0,0.0,0.0,0.0,0.0,0.0,0.0,0.0,0.0,0.0,0.0,0.0,0.0,0.0,0.0,0.0,0.0,0.0,0.0,0.0,0.0,0.0,0.0,0.0,0.0,0.0,0.0,0.0,0.0,0.0,0.0,0.0,0.0,0.0,0.0,0.0,0.0,0.0,0.0,0.0,0.0,0.0,0.0,0.0,0.0,0.0,0.0,0.0,0.0,0.0,0.0,0.0,0.0,0.0,0.0,0.0,0.0,0.0,0.0,0.0,0.0,0.0,0.0,0.0,0.0,0.0,0.0,0.0,0.0,0.0,0.0,0.0,0.0,0.0,0.0,0.0,0.0,0.0,0.0,0.0,0.0,0.0,0.0,0.0,0.0,0.0,0.0,0.0,0.0,0.0,0.0,0.0,0.0,0.0,0.0,0.0,0.0,0.0,0.0,0.0,0.0,0.0,0.0,0.0,0.0,0.0,0.0,0.0,0.0,0.0,0.0,0.0,0.0,0.0,0.0,0.0,0.0,0.0,0.0,0.0,0.0,0.0,0.0,0.0,0.0,0.0,0.0,0.0,0.0,0.0,0.0,0.0,0.0,0.0,0.0,0.0,0.0,0.0,0.0,0.0,0.0,0.0,0.0,0.0,0.0,0.0,0.0,0.0,0.0,0.0,0.0,0.0,0.0,0.0,0.0,0.0,0.0,0.0,0.0,0.0,0.0,0.0,0.0,0.0,0.0,0.0,0.0,0.0,0.0,0.0,0.0,0.0,0.0,0.0,0.0,0.0,0.0,0.0,0.0,0.0,0.0,0.0,0.0,0.0,0.0,0.0,0.0,0.0,0.0,0.0,0.0,0.0,0.0,0.0,0.0,0.0,0.0,0.0,0.0,0.0,0.0,0.0,0.0,0.0,0.0,0.0,0.0,0.0,0.0,0.0,0.0,0.0,0.0,0.0,0.0,0.0,0.0,0.0,0.0,0.0,0.0,0.0,0.0,0.0,0.0,0.0,0.0,0.0,0.0,0.0,0.0,0.0,0.0,0.0,0.0,0.0,0.0,0.0,0.0,0.0,0.0,0.0,0.0,0.0,0.0,0.0,0.0,0.0,0.0,0.0,0.0,0.0,0.0,0.0,0.0,0.0,0.0,0.0,0.0,0.0,0.0,0.0,0.0,0.0,0.0,0.0,0.0,0.0,0.0,0.0,0.0,0.0,0.0,0.0,0.0,0.0,0.0,0.0,0.0,0.0,0.0,0.0,0.0,0.0,0.0,0.0,0.0,0.0,0.0,0.0,0.0,0.0,0.0,0.0,0.0,0.0,0.0,0.0,0.0,0.0,0.0,0.0,0.0,0.0,0.0,0.0,0.0,0.0,0.0,0.0,0.0,0.0,0.0,0.0,0.0,0.0,0.0,0.0,0.0,0.0,0.0,0.0,0.0,0.0,0.0,0.0,0.0,0.0,0.0,0.0,0.0,0.0,0.0,0.0,0.0,0.0,0.0,0.0,0.0,0.0,0.0,0.0,0.0,0.0,0.0,0.0,0.0,0.0,0.0,0.0,0.0,0.0,0.0,0.0,0.0,0.0,0.0,0.0,0.0,0.0,0.0,0.0,0.0,0.0,0.0,0.0,0.0,0.0,0.0,0.0,0.0,0.0,0.0,0.0,0.0,0.0,0.0,0.0,0.0,0.0,0.0,0.0,0.0,0.0,0.0,0.0,0.0,0.0,0.0,0.0,0.0,0.0,0.0,0.0,0.0,0.0,0.0,0.0,0.0,0.0,0.0,0.0,0.0,0.0,0.0,0.0,0.0,0.0,0.0,0.0,0.0,0.0,0.0,0.0,0.0,0.0,0.0,0.0,0.0,0.0,0.0,0.0,0.0,0.0,0.0,0.0,0.0,0.0,0.0,0.0,0.0,0.0,0.0,0.0,0.0,0.0,0.0,0.0,0.0,0.0,0.0,0.0,0.0,0.0,0.0,0.0,0.0,0.0,0.0,0.0,0.0,0.0,0.0,0.0,0.0,0.0,0.0,0.0,0.0,0.0,0.0,0.0,0.0,0.0,0.0,0.0,0.0,0.0,0.0,0.0,0.0,0.0,0.0,0.0,0.0,0.0,0.0,0.0,0.0,0.0,0.0,0.0,0.0,0.0,0.0,0.0,0.0,0.0,0.0,0.0,0.0,0.0,0.0,0.0,0.0,0.0,0.0,0.0,0.0,0.0,0.0,0.0,0.0,0.0,0.0,0.0,0.0,0.0,0.0,0.0,0.0,0.0,0.0,0.0,0.0,0.0,0.0,0.0,0.0,0.0,0.0,0.0,0.0,0.0,0.0,0.0,0.0,0.0,0.0,0.0,0.0,0.0,0.0,0.0,0.0,0.0,0.0,0.0,0.0,0.0,0.0,0.0,0.0,0.0,0.0,0.0,0.0,0.0,0.0,0.0,0.0,0.0,0.0,0.0,0.0,0.0,0.0,0.0,0.0,0.0,0.0,0.0,0.0,0.0,0.0,0.0,0.0,0.0,0.0,0.0,0.0,0.0,0.0,0.0,0.0,0.0,0.0,0.0,0.0,0.0,0.0,0.0,0.0,0.0,0.0,0.0,0.0,0.0,0.0,0.0,0.0,0.0,0.0,0.0,0.0,0.0,0.0,0.0,0.0,0.0,0.0,0.0,0.0,0.0,0.0,0.0,0.0,0.0,0.0,0.0,0.0,0.0,0.0,0.0,0.0,0.0,0.0,0.0,0.0,0.0,0.0,0.0,0.0,0.0,0.0,0.0,0.0,0.0,0.0,0.0,0.0,0.0,0.0,0.0,0.0,0.0,0.0,0.0,0.0,0.0,0.0,0.0,0.0,0.0,0.0,0.0,0.0,0.0,0.0,0.0,0.0,0.0,0.0,0.0,0.0,0.0,0.0,0.0,0.0,0.0,0.0,0.0,0.0,0.0,0.0,0.0,0.0,0.0,0.0,0.0,0.0,0.0,0.0,0.0,0.0,0.0,0.0,0.0,0.0,0.0,0.0,0.0,0.0,0.0,0.0,0.0,0.0,0.0,0.0,0.0,0.0,0.0,0.0,0.0,0.0,0.0,0.0,0.0,0.0,0.0,0.0,0.0,0.0,0.0,0.0,0.0,0.0,0.0,0.0,0.0,0.0,0.0,0.0,0.0,0.0,0.0,0.0,0.0,0.0,0.0,0.0,0.0,0.0,0.0,0.0,0.0,0.0,0.0,0.0,0.0,0.0,0.0,0.0,0.0,0.0,0.0,0.0,0.0,0.0,0.0,0.0,0.0,0.0,0.0,0.0,0.0,0.0,0.0,0.0,0.0,0.0,0.0,0.0,0.0,0.0,0.0,0.0,0.0,0.0,0.0,0.0,0.0,0.0,0.0,0.0,0.0,0.0,0.0,0.0,0.0,0.0,0.0,0.0,0.0,0.0,0.0,0.0,0.0,0.0,0.0,0.0,0.0,0.0,0.0,0.0,0.0,0.0,0.0,0.0,0.0,0.0,0.0,0.0,0.0,0.0,0.0,0.0,0.0,0.0,0.0,0.0,0.0,0.0,0.0,0.0,0.0,0.0,0.0,0.0,0.0,0.0,0.0,0.0,0.0,0.0,0.0,0.0,0.0,0.0,0.0,0.0,0.0,0.0,0.0,0.0,0.0,0.0,0.0,0.0,0.0,0.0,0.0,0.0,0.0,0.0,0.0,0.0,0.0,0.0,0.0,0.0,0.0,0.0,0.0,0.0,0.0,0.0,0.0,0.0,0.0,0.0,0.0,0.0,0.0,0.0,0.0,0.0,0.0,0.0,0.0,0.0,0.0,0.0,0.0,0.0,0.0,0.0,0.0,0.0,0.0,0.0,0.0,0.0,0.0,0.0,0.0,0.0,0.0,0.0,0.0,0.0,0.0,0.0,0.0,0.0,0.0,0.0,0.0,0.0,0.0,0.0,0.0,0.0,0.0,0.0,0.0,0.0,0.0,0.0,0.0,0.0,0.0,0.0,0.0,0.0,0.0,0.0,0.0,0.0,0.0,0.0,0.0,0.0,0.0,0.0,0.0,0.0,0.0,0.0,0.0,0.0,0.0,0.0,0.0,0.0,0.0,0.0,0.0,0.0,0.0,0.0,0.0,0.0,0.0,0.0,0.0,0.0,0.0,0.0,0.0,0.0,0.0,0.0,0.0,0.0,0.0,0.0,0.0,0.0,0.0,0.0,0.0,0.0,0.0,0.0,0.0,0.0,0.0,0.0,0.0,0.0,0.0,0.0,0.0,0.0,0.0,0.0,0.0,0.0,0.0,0.0,0.0,0.0,0.0,0.0,0.0,0.0,0.0,0.0,0.0,0.0,0.0,0.0,0.0,0.0,0.0,0.0,0.0,0.0,0.0,0.0,0.0,0.0,0.0,0.0,0.0,0.0,0.0,0.0,0.0,0.0,0.0,0.0,0.0,0.0,0.0,0.0,0.0,-2.519,-2.6129,0.0,0.0,0.0,0.0,0.0,0.0,0.0,0.0,0.0,0.0,0.0,0.0,0.0,0.0,0.0,0.0,0.0,0.0,0.0,0.0,0.0,0.0,0.0,0.0,0.0,0.0,0.0,0.0,0.0,0.0,0.0,0.0,0.0,0.0,0.0,0.0,0.0,-2.9433,-2.9433,-2.9168,-2.8656,-2.919,-2.9398,-2.9341,0.0,0.0,0.0,0.0,0.0,0.0,0.0,0.0,0.0,0.0,0.0,0.0,0.0,0.0,0.0,0.0,0.0,0.0,0.0,0.0,0.0,0.0,0.0,0.0,0.0,0.0,0.0,0.0,0.0,0.0,0.0,0.0,0.0,0.0,0.0,0.0,0.0,0.0,0.0,0.0,0.0,0.0,0.0,0.0,0.0,0.0,0.0,0.0,0.0,0.0,0.0,0.0,0.0,0.0,0.0,0.0,0.0,0.0,0.0,0.0,0.0,0.0,0.0,0.0,0.0,0.0,0.0,0.0,0.0,0.0,-2.467,-2.5039,0.0,0.0,0.0,0.0,0.0,0.0,0.0,0.0,0.0,0.0,0.0,0.0,0.0,0.0,0.0,0.0,0.0,0.0,0.0,0.0,0.0,0.0,0.0,-2.7238,-2.7326,-2.7303,-2.7391,-2.7434,-2.7434,0.0,0.0,0.0,0.0,0.0,-2.8935,-2.8796,-2.8704,-2.8704,-2.8518,-2.8448,-2.8425,-2.8262,-2.8243,-2.8318,-2.7679,0.0,0.0,0.0,0.0,0.0,0.0,0.0,0.0,0.0,0.0,0.0,0.0,0.0,0.0,0.0,0.0,0.0,0.0,0.0,0.0,0.0,0.0,0.0,0.0,0.0,0.0,0.0,0.0,0.0,0.0,0.0,0.0,0.0,0.0,0.0,0.0,0.0,0.0,0.0,0.0,0.0,0.0,0.0,0.0,0.0,0.0,0.0,0.0,0.0,0.0,0.0,0.0,0.0,0.0,0.0,0.0,0.0,0.0,0.0,0.0,0.0,0.0,0.0,-2.6053,-2.5736,-2.5564,-2.6353,-2.5967,-2.4678,-2.3789,-2.3352,-2.3236,-2.3647,0.0,0.0,0.0,0.0,0.0,0.0,0.0,0.0,0.0,0.0,0.0,0.0,0.0,0.0,0.0,0.0,0.0,0.0,0.0,-2.4794,-2.4831,-2.5212,-2.5875,-2.6894,-2.7345,-2.7904,-2.8691,-2.8826,-2.8801,0.0,0.0,-2.8704,-2.875,-2.8704,-2.8704,-2.8704,-2.784,-2.7392,-2.7369,-2.6504,-2.6563,-2.7415,-2.8161,-2.8553,-2.8668,0.0,0.0,0.0,0.0,0.0,0.0,0.0,0.0,0.0,0.0,0.0,0.0,0.0,0.0,0.0,0.0,0.0,0.0,0.0,0.0,0.0,0.0,0.0,0.0,0.0,0.0,0.0,0.0,0.0,0.0,0.0,0.0,0.0,0.0,0.0,0.0,0.0,0.0,0.0,0.0,0.0,-2.6529,-2.4945,0.0,0.0,0.0,0.0,0.0,0.0,0.0,0.0,0.0,0.0,0.0,0.0,0.0,-2.5959,-2.6379,-2.6399,-2.6586,-2.6934,-2.6639,-2.6455,-2.6429,-2.6072,-2.5834,-2.561,-2.5233,0.0,-2.406,-2.4116,0.0,0.0,0.0,0.0,0.0,0.0,0.0,0.0,0.0,0.0,0.0,0.0,0.0,0.0,0.0,0.0,0.0,0.0,0.0,0.0,0.0,-2.5432,-2.5813,-2.6174,-2.6403,-2.6716,-2.7125,-2.7149,-2.7205,-2.74,-2.7421,-2.7499,-2.7721,-2.7742,-2.7742,-2.7742,-2.7299,-2.7077,-2.7077,-2.6645,-2.667,-2.7102,-2.7545,-2.7796,-2.7817,-2.7247,0.0,0.0,0.0,0.0,0.0,0.0,0.0,0.0,0.0,0.0,0.0,0.0,0.0,0.0,0.0,0.0,0.0,0.0,0.0,0.0,0.0,0.0,0.0,0.0,0.0,0.0,0.0,0.0,0.0,0.0,0.0,0.0,0.0,0.0,0.0,0.0,0.0,0.0,0.0,-2.6303,-2.6317,-2.5267,-2.5928,-2.6302,0.0,0.0,0.0,0.0,0.0,0.0,0.0,0.0,0.0,-2.644,-2.644,-2.6518,-2.6738,-2.6738,-2.6836,-2.6986,-2.673,-2.6602,-2.6602,-2.6165,-2.5926,-2.5796,-2.5693,-2.536,-2.4856,-2.4856,-2.4856,-2.4838,0.0,0.0,0.0,0.0,-2.4317,-2.4317,0.0,0.0,0.0,0.0,0.0,0.0,0.0,0.0,0.0,0.0,0.0,0.0,-2.486,-2.505,-2.5099,-2.4898,-2.4873,-2.5053,-2.5438,-2.5481,-2.5797,-2.6523,-2.6543,-2.6699,-2.6986,-2.6986,-2.6986,-2.6986,-2.6986,-2.6986,-2.6986,-2.6986,-2.6986,-2.6986,-2.6986,-2.7067,-2.7093,-2.633,-2.603,-2.603,0.0,0.0,0.0,0.0,0.0,0.0,0.0,0.0,0.0,0.0,0.0,0.0,0.0,0.0,0.0,0.0,0.0,0.0,0.0,0.0,0.0,0.0,0.0,0.0,0.0,0.0,0.0,0.0,0.0,0.0,0.0,0.0,0.0,0.0,0.0,0.0,0.0,-2.6323,-2.6426,-2.6069,-2.6596,-2.6894,0.0,0.0,0.0,0.0,0.0,0.0,-2.6986,-2.6711,-2.6686,-2.6986,-2.6986,-2.707,-2.7187,-2.7091,-2.7098,-2.724,-2.6955,-2.6806,-2.678,-2.6487,-2.6252,-2.6095,-2.6034,-2.5903,-2.57,-2.548,-2.5388,-2.5388,-2.5388,-2.5388,-2.5388,-2.5388,-2.5388,-2.5388,0.0,0.0,0.0,0.0,0.0,0.0,0.0,0.0,0.0,0.0,0.0,-2.2642,-2.2659,-2.2659,-2.2685,-2.2659,-2.2659,-2.3286,-2.476,-2.4829,-2.549,-2.6902,-2.6973,-2.6992,-2.6986,-2.6986,-2.6986,-2.6986,-2.6986,-2.6986,-2.6986,-2.6986,-2.6986,-2.6986,-2.6986,-2.6992,-2.7004,-2.6953,-2.6928,-2.6928,-2.6928,0.0,0.0,0.0,0.0,0.0,0.0,0.0,0.0,0.0,0.0,0.0,0.0,0.0,0.0,0.0,0.0,0.0,0.0,0.0,0.0,0.0,0.0,0.0,0.0,0.0,0.0,0.0,0.0,0.0,0.0,0.0,0.0,0.0,0.0,0.0,0.0,0.0,0.0,-2.6953,-2.6967,0.0,0.0,0.0,0.0,-2.6986,-2.5928,-2.5799,-2.6935,-2.5902,-2.5825,-2.6961,-2.6986,-2.7207,-2.7663,-2.7356,-2.7417,-2.7849,-2.7527,-2.7365,-2.7338,-2.7096,-2.696,-2.6933,-2.6681,-2.6563,-2.6463,-2.5719,-2.5388,-2.5388,-2.5388,-2.5388,-2.5388,-2.5388,-2.5388,-2.5388,0.0,0.0,0.0,0.0,0.0,0.0,0.0,0.0,-2.2484,-2.2484,-2.2484,-2.2484,-2.2484,-2.2484,-2.2484,-2.2484,-2.2706,-2.3065,-2.3606,-2.3851,-2.4664,-2.6211,-2.6282,-2.6781,-2.7806,-2.7074,-2.7047,-2.7832,-2.7832,-2.7832,-2.7832,-2.7832,-2.7832,-2.7832,-2.7832,-2.7832,-2.7793,-2.7246,-2.6986,-2.6986,-2.6986,-2.6986,0.0,0.0,0.0,0.0,0.0,0.0,0.0,0.0,0.0,0.0,0.0,0.0,0.0,0.0,0.0,0.0,0.0,0.0,0.0,0.0,0.0,0.0,0.0,0.0,0.0,0.0,0.0,0.0,0.0,0.0,0.0,0.0,0.0,0.0,0.0,0.0,0.0,-2.4796,-2.589,0.0,-2.5235,-2.6082,-2.6363,-2.5577,-2.5119,-2.5065,-2.5496,-2.5119,-2.5092,-2.5496,-2.6283,-2.6758,-2.6935,-2.7569,-2.7912,-2.7906,-2.7557,-2.7314,-2.7125,-2.6872,-2.6736,-2.6736,-2.6646,-2.6591,-2.65,-2.5459,-2.546,-2.6178,-2.6178,-2.6178,-2.6178,-2.6178,-2.6178,-2.6178,0.0,0.0,0.0,0.0,0.0,0.0,0.0,-2.0954,-2.1413,-2.1413,-2.1413,-2.1413,-2.1413,-2.1413,-2.1462,-2.1576,-2.1794,-2.2179,-2.2795,-2.3028,-2.3856,-2.5424,-2.5496,-2.6,-2.706,-2.63,-2.6282,-2.7087,-2.7484,-2.7691,-2.7718,-2.8094,-2.8067,-2.7691,-2.7691,-2.7457,-2.705,-2.648,-2.6693,-2.7441,-2.7441,-2.7441,-2.7441,0.0,0.0,0.0,0.0,0.0,0.0,0.0,0.0,0.0,0.0,0.0,0.0,0.0,0.0,0.0,0.0,0.0,0.0,0.0,0.0,0.0,0.0,0.0,0.0,0.0,0.0,0.0,0.0,0.0,0.0,0.0,0.0,0.0,0.0,-2.4601,-2.4183,-2.3944,-2.5089,-2.5465,-2.4412,-2.5275,-2.5571,-2.4754,-2.4339,-2.4334,-2.4859,-2.4496,-2.4536,-2.5019,-2.5821,-2.6201,-2.6044,-2.6866,-2.7087,-2.6682,-2.6451,-2.6201,-2.5922,-2.5744,-2.5677,-2.5677,-2.5677,-2.5677,-2.5576,-2.4772,-2.493,-2.5643,-2.5481,-2.5404,-2.5404,-2.5404,-2.5404,-2.5404,0.0,0.0,0.0,0.0,0.0,0.0,-1.9298,-1.9312,-1.9312,-1.9312,-1.9327,-1.9327,-1.9327,-1.9327,-1.9459,-1.9781,-1.9811,-2.0587,-2.232,-2.2466,-2.3106,-2.4571,-2.4644,-2.4671,-2.4699,-2.4671,-2.4671,-2.4699,-2.5872,-2.6436,-2.6463,-2.7638,-2.7565,-2.6436,-2.6436,-2.579,-2.4699,-2.4699,-2.6063,-2.8174,-2.8174,-2.8174,-2.8174,0.0,0.0,0.0,0.0,0.0,0.0,0.0,0.0,0.0,0.0,0.0,0.0,0.0,0.0,0.0,0.0,0.0,0.0,0.0,0.0,0.0,0.0,0.0,0.0,0.0,0.0,0.0,0.0,0.0,0.0,0.0,0.0,0.0,-2.4422,-2.4616,-2.4588,-2.4561,-2.4616,-2.4633,-2.4605,-2.4633,-2.465,-2.4623,-2.3608,-2.3602,-2.5037,-2.4044,-2.4107,-2.5567,-2.5625,-2.548,-2.5144,-2.5236,-2.4944,-2.4298,-2.4301,-2.4125,-2.3801,-2.3801,-2.3801,-2.3801,-2.3801,-2.3801,-2.3801,-2.3771,-2.3742,-2.3709,-2.3219,-2.3006,-2.3006,-2.3006,-2.3006,-2.3006,0.0,0.0,0.0,0.0,0.0,0.0,-1.9298,-1.9503,-1.9649,-1.9649,-1.9828,-1.9947,-1.9947,-1.9947,-1.9976,-2.0064,-2.0325,-2.0669,-2.1165,-2.1405,-2.2135,-2.3407,-2.3463,-2.3855,-2.4671,-2.3883,-2.3883,-2.4699,-2.5031,-2.5196,-2.5196,-2.5526,-2.5498,-2.5196,-2.5196,-2.5003,-2.4699,-2.4699,-2.5086,-2.569,-2.569,-2.569,-2.569,0.0,0.0,0.0,0.0,0.0,0.0,0.0,0.0,0.0,0.0,0.0,0.0,0.0,0.0,0.0,0.0,0.0,0.0,0.0,0.0,0.0,0.0,0.0,0.0,0.0,0.0,0.0,0.0,0.0,0.0,0.0,-2.3098,-2.2861,-2.2837,-2.2438,-2.2,-2.1559,-2.2884,-2.3397,-2.2277,-2.3347,-2.3779,-2.2935,-2.2598,-2.2585,-2.2985,-2.2483,-2.2498,-2.3122,-2.3728,-2.4007,-2.3919,-2.4782,-2.4928,-2.4298,-2.4298,-2.4109,-2.3801,-2.3801,-2.3801,-2.3801,-2.3801,-2.3801,-2.3742,-2.2855,-2.2498,-2.2572,-2.3304,-2.3576,-2.3576,-2.3576,-2.3576,-2.3459,0.0,0.0,0.0,0.0,0.0,0.0,-1.9681,-1.9842,-1.9959,-1.9959,-2.0093,-2.021,-2.021,-2.021,-2.0269,-2.04,-2.059,-2.0751,-2.0882,-2.1101,-2.1518,-2.2227,-2.2256,-2.2567,-2.3211,-2.2595,-2.2567,-2.3239,-2.3743,-2.3994,-2.3994,-2.4478,-2.445,-2.3994,-2.3994,-2.3715,-2.3239,-2.3239,-2.3239,-2.3239,-2.3239,-2.381,-2.4699,-2.4588,-2.4533,-2.4505,-2.4367,-2.42,-2.4044,-2.3738,0.0,0.0,0.0,0.0,0.0,0.0,0.0,0.0,0.0,0.0,0.0,0.0,0.0,0.0,0.0,0.0,0.0,0.0,0.0,0.0,0.0,0.0,0.0,0.0,-2.2024,-2.1906,-2.1569,-2.1569,-2.1438,-2.0955,-2.2111,-2.2613,-2.1699,-2.2572,-2.29,-2.2244,-2.2214,-2.2242,-2.2359,-2.2057,-2.2024,-2.2351,-2.2702,-2.2794,-2.2657,-2.3474,-2.3595,-2.2961,-2.3112,-2.2991,-2.2672,-2.2672,-2.2672,-2.2672,-2.2672,-2.2672,-2.2611,-2.1925,-2.1619,-2.1683,0.0,0.0,0.0,0.0,-2.2289,-2.217,0.0,0.0,0.0,0.0,0.0,0.0,-2.0046,-2.0075,-2.0159,-2.0241,-2.0298,-2.0312,-2.0312,-2.0312,-2.0429,-2.0722,-2.0751,-2.0868,-2.1189,-2.1203,-2.1203,-2.1203,-2.1203,-2.1203,-2.1203,-2.1203,-2.1203,-2.1203,-2.2256,-2.2821,-2.2805,-2.3827,-2.3771,-2.2821,-2.2821,-2.2199,-2.1203,-2.1203,-2.1175,-2.1146,-2.1117,-2.2353,-2.4228,-2.3978,-2.3894,-2.3894,-2.381,-2.3643,-2.3347,-2.3039,0.0,0.0,0.0,0.0,0.0,0.0,0.0,0.0,0.0,0.0,0.0,0.0,0.0,0.0,0.0,0.0,0.0,0.0,0.0,0.0,0.0,0.0,0.0,0.0,-2.0766,-2.075,-2.0746,-2.1578,-2.2046,-2.1675,-2.1928,-2.2138,-2.2138,-2.2211,-2.2256,-2.2256,-2.2256,-2.2343,-2.2605,-2.2252,0.0,0.0,0.0,-2.1884,-2.1614,-2.1884,-2.174,-2.1109,-2.1393,-2.1393,-2.1109,-2.1109,-2.1109,-2.1109,-2.1109,-2.1109,-2.1109,-2.1109,-2.1109,-2.1056,-2.0504,-2.0304,-2.0304,-2.0304,-2.0304,-2.0304,0.0,0.0,0.0,0.0,0.0,0.0,-1.8961,-1.9306,-1.9752,-2.0521,-2.0824,-2.1028,-2.1028,-2.1028,-2.1014,-2.1115,-2.1087,-2.1145,-2.1203,-2.1203,-2.1203,-2.1203,-2.1203,-2.1203,-2.1203,-2.1203,-2.1203,-2.1203,-2.1432,-2.1546,-2.1546,-2.1759,-2.1759,-2.1546,-2.1546,-2.1432,-2.1203,-2.1203,-2.1031,-2.0788,-2.0558,-2.0888,-2.1473,-2.1416,-2.1388,-2.1331,-2.0859,-2.0802,-2.0888,-2.0342,-2.0314,-2.0457,-2.0241,-2.0299,0.0,0.0,0.0,0.0,0.0,0.0,0.0,0.0,0.0,0.0,0.0,0.0,0.0,0.0,0.0,0.0,0.0,0.0,0.0,-2.0934,-2.1081,-2.107,-2.1034,-2.1655,-2.1908,-2.1371,-2.1526,-2.1742,-2.1786,-2.2229,-2.2527,-2.2527,-2.2527,-2.2556,-2.2613,-2.202,-2.186,-2.2198,-2.1853,-2.1677,-2.1614,-2.1664,-2.152,-2.1109,-2.1172,0.0,-2.1109,-2.1109,-2.1109,-2.1109,-2.1109,-2.1109,-2.1109,-2.1109,-2.1109,-2.1096,-2.0989,-2.0935,-2.0935,-2.0935,-2.0935,-2.0935,0.0,0.0,0.0,0.0,0.0,0.0,-1.8523,-1.9139,-1.9732,-2.0188,-2.0787,-2.1203,-2.1203,-2.1203,-2.1203,-2.1203,-2.1203,-2.1203,-2.1203,-2.1203,-2.1203,-2.1203,-2.1203,-2.1203,-2.1203,-2.1203,-2.1203,-2.1203,-2.1203,-2.1203,-2.1203,-2.1203,-2.1203,-2.1175,-2.1031,-2.1031,-2.1175,-2.1031,-2.096,-2.0931,-2.0615,-2.05,-2.0472,-2.0328,-2.0357,-2.0443,-1.9953,-1.9822,-1.9793,-1.9504,-1.9475,-1.9591,-1.9459,-1.9475,-1.9589,0.0,0.0,0.0,0.0,0.0,0.0,0.0,0.0,0.0,0.0,0.0,0.0,0.0,0.0,-2.0761,-2.1101,0.0,-2.0753,-2.1056,-2.1132,-2.1186,-2.1335,-2.1488,-2.1568,-2.1406,-2.1813,-2.2066,-2.1911,-2.2333,-2.2512,-2.2355,-2.2355,-2.2355,-2.2355,-2.1853,-2.1677,-2.1821,-2.152,-2.1362,-2.1362,-2.1362,-2.1267,-2.1109,-2.1109,-2.1109,-2.1109,-2.1109,-2.1109,-2.1109,-2.1109,-2.1109,-2.1109,-2.1109,-2.1109,-2.1109,-2.1109,-2.1109,-2.1109,-2.1109,-2.1109,-2.1109,0.0,0.0,0.0,0.0,0.0,0.0,-1.8098,-1.8926,-1.9519,-1.9519,-2.0515,-2.1117,-2.0945,-2.1089,-2.1203,-2.1203,-2.1203,-2.1203,-2.1203,-2.1203,-2.1203,-2.1203,-2.1203,-2.1203,-2.1203,-2.1203,-2.1203,-2.1203,-2.1203,-2.1203,-2.1203,-2.1203,-2.1203,-2.1175,-2.0931,-2.096,-2.1175,-2.0845,-2.0845,-2.1003,-2.0673,-2.0414,-2.0169,-1.9906,-1.9979,-2.0155,-1.9851,-1.962,-1.9488,-1.9484,-1.9481,-1.9495,-1.9548,-1.9562,-1.9615,-1.9813,-1.988,0.0,0.0,0.0,0.0,0.0,0.0,0.0,0.0,-2.0793,-2.0828,-2.1069,-2.1109,-2.1109,-2.1109,-2.1109,-2.1109,-2.1109,-2.1109,-2.1204,-2.1457,-2.1267,-2.1204,-2.1488,-2.1978,-2.223,-2.201,-2.2261,-2.2292,-2.201,-2.201,-2.201,-2.201,-2.1677,-2.152,-2.152,-2.1235,-2.1109,-2.1109,-2.1109,-2.1109,-2.1109,-2.1109,-2.1109,-2.1109,-2.1109,-2.1109,-2.1109,-2.1109,-2.1109,-2.1109,-2.1109,-2.1109,-2.1109,-2.1109,-2.1109,-2.1109,-2.1109,-2.1109,-2.1109,0.0,0.0,0.0,0.0,0.0,0.0,0.0,0.0,-1.8564,-1.8564,-2.0097,-2.0888,-2.004,-2.0687,-2.1203,-2.1203,-2.1203,-2.1203,-2.1203,-2.1203,-2.1203,-2.1203,-2.1203,-2.1203,-2.1203,-2.1203,-2.1203,-2.1203,-2.1203,-2.1203,-2.1203,-2.1203,-2.1203,-2.1203,-2.1146,-2.1146,-2.1175,-2.0845,-2.0572,-2.0357,-2.004,-1.9866,-1.985,-1.9829,-1.9821,-1.9822,-1.9533,-1.9591,-1.9776,-1.9754,-1.976,-1.98,-2.0024,-2.0104,-2.0117,-2.0144,-2.0157,-2.0157,-2.0197,-2.0428,-2.0695,-2.0949,-2.1015,-2.1015,0.0,-2.1069,-2.1069,-2.1096,-2.1109,-2.1109,-2.1109,-2.1109,-2.1109,-2.1109,-2.1109,-2.1109,-2.1141,-2.1109,-2.1109,-2.1141,-2.1235,-2.1362,-2.1646,-2.1695,-2.1709,-2.1677,-2.1677,-2.1677,-2.1677,-2.133,-2.1172,-2.1172,-2.1109,-2.1109,-2.1109,-2.1109,-2.1109,-2.1109,-2.1109,-2.1109,-2.1109,-2.1109,-2.1109,-2.1109,-2.1109,-2.1109,-2.1109,-2.1109,-2.1109,-2.1109,-2.1109,-2.1109,-2.1109,-2.1109,-2.1109,-2.1109,0.0,0.0,0.0,0.0,0.0,0.0,0.0,0.0,-1.7337,-1.8273,-1.9087,-1.9824,-2.0543,-2.0945,-2.1203,-2.1203,-2.1203,-2.1203,-2.1203,-2.1203,-2.1203,-2.1203,-2.1203,-2.1203,-2.1203,-2.1203,-2.1203,-2.1203,-2.1203,-2.1203,-2.1203,-2.1203,-2.1089,-2.0902,-2.0744,-2.0687,-2.0658,-2.0328,-2.0213,-2.0284,-2.016,-2.0082,-2.008,-2.0053,-2.0033,-2.0015,-1.9896,-1.9926,0.0,-2.0043,-2.0024,-2.0037,-2.0157,-2.0197,-2.0237,-2.0441,-2.0494,-2.0535,-2.0664,-2.0828,-2.0962,-2.1082,-2.1109,-2.1109,-2.1109,-2.1109,-2.1109,-2.1109,-2.1109,-2.1109,-2.1109,-2.1109,-2.1109,-2.1109,-2.1109,-2.1109,-2.1109,-2.1109,-2.1109,-2.1109,-2.1109,-2.1172,-2.1299,-2.1488,-2.152,-2.133,-2.1299,-2.1299,-2.1299,-2.1172,-2.1109,-2.1109,-2.1109,-2.1109,-2.1109,-2.1109,-2.1109,-2.1109,-2.1109,-2.1109,-2.1109,-2.1109,-2.1109,-2.1109,-2.1109,-2.1109,-2.1109,-2.1109,-2.1109,-2.1109,-2.1109,-2.1109,-2.1109,-2.1109,-2.1109,-2.1109,0.0,0.0,0.0,0.0,0.0,0.0,0.0,0.0,0.0,0.0,-1.8098,-1.939,-2.1031,-2.0974,-2.0917,-2.1175,-2.1203,-2.1203,-2.1203,-2.1203,-2.1203,-2.1203,-2.1203,-2.1203,-2.1203,-2.1203,-2.1203,-2.1203,-2.1203,-2.1203,-2.1203,-2.1203,-2.1031,-2.0687,-2.05,-2.0357,-2.027,-1.9924,-1.9979,-2.0279,-2.0207,-2.0196,-2.0275,-2.0332,-2.0361,-2.0347,-2.0237,-2.0197,-2.021,-2.0304,-2.0361,-2.0344,-2.0424,-2.0437,-2.049,-2.0735,-2.0802,-2.0842,-2.1056,-2.1109,-2.1109,-2.1109,-2.1109,-2.1109,-2.1109,-2.1109,-2.1109,-2.1109,-2.1109,-2.1109,-2.1109,-2.1109,-2.1109,-2.1109,-2.1109,-2.1109,-2.1109,-2.1109,-2.1109,-2.1109,-2.1109,-2.1109,-2.1109,-2.133,-2.1362,-2.1109,-2.1109,-2.1109,-2.1109,-2.1109,-2.1109,-2.1109,-2.1109,-2.1109,-2.1109,-2.1109,-2.1109,-2.1109,-2.1109,-2.1109,-2.1109,-2.1109,-2.1109,-2.1109,-2.1109,-2.1109,-2.1109,-2.1109,-2.1109,-2.1109,-2.1109,-2.1109,-2.1109,-2.1109,-2.1109,-2.1109,0.0,0.0,0.0,0.0,0.0,0.0,0.0,0.0,0.0,0.0,-1.7308,-2.0126,-2.1089,-2.0399,-2.0226,-2.1117,-2.1203,-2.1203,-2.1203,-2.1203,-2.1203,-2.1203,-2.1203,-2.1203,-2.1203,-2.1203,-2.1203,-2.1203,-2.1203,-2.1203,-2.1203,-2.1203,-2.1031,-2.0687,-2.0687,-2.0544,-2.027,-1.9924,-1.9986,-2.026,-1.9948,-1.9973,-2.0254,-2.0548,-2.0686,-2.0628,-2.0304,-2.0197,-2.025,-2.0561,-2.0686,-2.0739,-2.0989,-2.1082,-2.1082,-2.1096,-2.1096,-2.1096,-2.1109,-2.1109,-2.1109,-2.1109,-2.1109,-2.1109,-2.1109,-2.1109,-2.1109,-2.1109,-2.1109,-2.1109,-2.1109,-2.1109,-2.1109,-2.1109,-2.1109,-2.1109,-2.1109,-2.1109,-2.1109,-2.1109,-2.1109,-2.1109,-2.1109,-2.1109,-2.1109,-2.1109,-2.1109,-2.1109,-2.1109,-2.1109,-2.1109,-2.1109,-2.1109,-2.1109,-2.1109,-2.1109,-2.1109,-2.1109,-2.1109,-2.1109,-2.1109,-2.1109,-2.1109,-2.1109,-2.1109,-2.1109,-2.1109,-2.1109,-2.1109,-2.1109,-2.1109,-2.1109,-2.1109,-2.1109,-2.1109,-2.1109,0.0,0.0,0.0,0.0,0.0,0.0,0.0,0.0,0.0,0.0,0.0,0.0,0.0,0.0,0.0,0.0,-2.0515,-2.0874,-2.0874,-2.1089,-2.1203,-2.1203,-2.1203,-2.1203,-2.1203,-2.1203,-2.1203,-2.1203,-2.1203,-2.1203,-2.1203,-2.1203,-2.1031,-2.0687,-2.0515,-2.027,-1.9953,-1.9649,-1.9708,-1.9961,-2.0043,-2.0267,-2.0561,-2.0855,-2.0962,-2.0949,0.0,-2.0815,-2.0797,-2.0922,-2.0962,-2.0975,-2.1082,-2.1109,-2.1109,-2.1109,-2.1109,-2.1109,-2.1109,-2.1109,-2.1109,-2.1109,-2.1109,-2.1109,-2.1109,-2.1109,-2.1109,-2.1109,-2.1109,-2.1109,-2.1109,-2.1109,-2.1109,-2.1109,-2.1109,-2.1109,-2.1109,-2.1109,-2.1109,-2.1109,-2.1109,-2.1109,-2.1109,-2.1109,-2.1109,-2.1109,-2.1109,-2.1109,-2.1109,-2.1109,-2.1109,-2.1109,-2.1109,-2.1109,-2.1109,-2.1109,-2.1109,-2.1109,-2.1109,-2.1109,-2.1109,-2.1109,-2.1109,-2.1109,-2.1109,-2.1109,-2.1109,-2.1109,-2.1109,-2.1109,-2.1109,-2.1109,-2.1109,-2.1109,-2.1109,-2.1109,0.0,0.0,0.0,0.0,0.0,0.0,0.0,0.0,0.0,0.0,0.0,0.0,0.0,0.0,0.0,0.0,0.0,-2.0371,-1.991,-2.0615,-2.0974,-2.0888,-2.1089,-2.1146,-2.1031,-2.1146,-2.1203,-2.1203,-2.1203,-2.1146,-2.1031,-2.1031,-2.0788,-2.0385,-2.0213,-1.9967,-1.9649,-1.9475,-1.9629,-1.9973,-2.013,-2.0468,-2.0855,-2.1042,-2.1109,0.0,-2.1109,-2.1109,-2.1109,-2.1109,-2.1109,-2.1109,-2.1109,-2.1109,-2.1109,-2.1109,-2.1109,-2.1109,-2.1109,-2.1109,-2.1109,-2.1109,-2.1109,-2.1109,-2.1109,-2.1109,-2.1109,-2.1109,-2.1109,-2.1109,-2.1109,-2.1109,-2.1109,-2.1109,-2.1109,-2.1109,-2.1109,-2.1109,-2.1109,-2.1109,-2.1109,-2.1109,-2.1109,-2.1109,-2.1109,-2.1109,-2.1109,-2.1109,-2.1109,-2.1109,-2.1162,-2.1269,-2.1269,-2.1323,-2.1416,-2.1416,-2.1363,-2.1269,-2.1162,-2.1109,-2.1109,-2.1109,-2.1109,-2.1109,-2.1109,-2.1109,-2.1109,-2.1109,-2.1109,-2.1109,-2.1109,-2.1109,-2.1109,-2.1109,-2.1109,-2.1109,0.0,0.0,0.0,0.0,0.0,0.0,0.0,0.0,0.0,0.0,0.0,0.0,0.0,0.0,0.0,0.0,0.0,0.0,-1.8535,-1.9781,-2.0486,-2.0299,-2.0859,-2.1003,-2.0716,-2.1003,-2.1175,-2.1175,-2.1175,-2.0988,-2.0687,-2.0687,-2.0385,-1.9809,-1.9809,-1.9649,-1.943,-1.9401,-1.9706,-2.0197,-2.0197,-2.0557,-2.1109,-2.1109,-2.1109,-2.1109,-2.1109,-2.1109,-2.1109,-2.1109,-2.1109,-2.1109,-2.1109,-2.1109,-2.1109,-2.1109,-2.1109,-2.1109,-2.1109,-2.1109,-2.1109,-2.1109,-2.1109,-2.1109,-2.1109,-2.1109,-2.1109,-2.1109,-2.1109,-2.1109,-2.1109,-2.1109,-2.1109,-2.1109,-2.1109,-2.1109,-2.1109,-2.1109,-2.1109,-2.1109,-2.1109,-2.1109,-2.1109,-2.1109,-2.1122,-2.1136,-2.1136,-2.1136,-2.1136,-2.1149,-2.1283,-2.1596,-2.1609,-2.1743,-2.201,-2.1991,-2.1877,-2.1609,-2.1269,-2.1104,-2.1027,-2.1009,-2.0977,-2.0901,-2.0914,-2.0927,-2.0927,-2.0927,-2.0927,-2.0927,-2.0927,-2.0927,-2.0927,-2.0927,-2.0927,-2.0927,0.0,0.0,0.0,0.0,0.0,0.0,0.0,0.0,0.0,0.0,0.0,0.0,0.0,0.0,0.0,0.0,0.0,0.0,-1.939,-1.9158,-1.939,-2.027,-2.0443,-2.0587,-2.0687,-2.0773,-2.0845,-2.0845,-2.0845,-2.0673,-2.0414,-2.0414,-2.0328,-2.0155,-1.9895,-1.9764,-1.9678,-1.9475,-1.9706,-2.0197,-2.0197,-2.0557,-2.1109,-2.1109,-2.1109,-2.1109,-2.1109,-2.1109,-2.1109,-2.1109,-2.1109,-2.1109,-2.1109,-2.1109,-2.1109,-2.1109,-2.1109,-2.1109,-2.1109,-2.1109,-2.1109,-2.1109,-2.1109,-2.1109,-2.1109,-2.1109,-2.1109,-2.1109,-2.1109,-2.1109,-2.1109,-2.1109,-2.1109,-2.1109,-2.1109,-2.1109,-2.1109,-2.1109,-2.1109,-2.1109,-2.1109,-2.1109,-2.1109,-2.1109,-2.1203,-2.1462,-2.1475,-2.1475,-2.1475,-2.1643,-2.179,-2.1903,-2.1903,-2.1943,-2.1991,-2.1991,-2.1984,-2.1903,-2.1609,-2.0915,-1.9889,-1.9804,-1.9175,-1.8209,-1.8347,-1.8426,-1.8426,-1.8426,-1.8426,-1.8426,-1.8426,-1.8426,-1.8426,-1.8426,-1.8426,-1.8426,0.0,0.0,0.0,0.0,0.0,0.0,0.0,0.0,0.0,0.0,0.0,0.0,0.0,0.0,0.0,0.0,0.0,0.0,0.0,-1.8098,-1.8448,-1.9042,-1.9332,-1.9737,-2.0299,-2.0443,-2.0529,-2.0529,-2.0529,-2.0385,-2.0068,-2.0068,-2.0011,-1.9909,-1.9707,-1.962,-1.962,-1.9446,-1.9626,0.0,0.0,-2.0125,-2.0029,-2.0125,-1.9814,-1.9304,-1.9304,-1.9304,-1.9399,-1.9973,-2.0164,-2.0303,-2.0919,-2.0684,-2.0303,-2.0919,-2.0652,-2.0303,-2.0919,-2.0652,-2.0164,-2.0164,-1.975,-1.9463,-2.0036,-2.0164,-2.0367,-2.0982,-2.1109,-2.1109,-2.1109,-2.1109,-2.1109,-2.1109,-2.1109,-2.1149,-2.1283,-2.0753,-2.0374,-2.0502,-1.9918,-1.9516,-1.9516,-1.9516,-1.9609,-1.9801,-2.0935,-2.1377,-2.0842,-2.0963,-2.1104,-2.1199,-2.055,-2.0264,-2.042,-2.0264,-2.0203,-2.0203,-1.9935,-1.9373,-1.8613,-1.8547,-1.8084,-1.733,-1.7458,-1.7511,-1.7511,-1.7511,-1.7511,-1.7511,-1.7511,-1.7511,-1.7511,-1.7511,-1.7511,-1.7511,0.0,0.0,0.0,0.0,0.0,0.0,0.0,0.0,0.0,0.0,0.0,0.0,0.0,0.0,0.0,0.0,0.0,0.0,0.0,0.0,-1.7384,-1.7513,-1.801,-1.868,-1.9548,-2.0011,-2.0241,-2.0241,-2.0241,-1.9982,-1.949,-1.949,-1.9287,-1.8894,-1.8894,-1.8894,-1.8894,-1.8894,-1.905,-1.9337,-1.9736,-1.9277,-1.838,0.0,-1.8137,-1.7012,-1.7012,-1.6883,-1.6947,-1.8267,-1.8716,-1.8972,-2.0367,-1.9846,-1.9004,-2.0399,-1.9846,-1.9004,-2.0227,-1.9654,-1.8716,-1.8716,-1.785,-1.7302,-1.846,-1.8876,-1.9355,-2.0557,-2.1009,-2.1162,-2.1162,-2.1044,-2.093,-2.093,-2.077,-2.0721,-2.1013,-1.9887,-1.9151,-1.9454,-1.8317,-1.7511,-1.7511,-1.7511,-1.7522,-1.7554,-1.9775,-2.0651,-1.9614,-1.9594,-1.9713,-1.9938,-1.8662,-1.8106,-1.8414,-1.8106,-1.7975,-1.7964,-1.7695,-1.7453,-1.7284,-1.725,-1.7149,-1.699,-1.7011,-1.7031,-1.7031,-1.7031,-1.7031,-1.7031,-1.7031,-1.7031,-1.7031,-1.7031,-1.7031,-1.7031,0.0,0.0,0.0,0.0,0.0,0.0,0.0,0.0,0.0,0.0,-1.1806,-1.1806,0.0,0.0,0.0,0.0,0.0,0.0,0.0,0.0,0.0,-1.7425,-1.7601,-1.7823,-1.8231,-1.9332,-1.9895,-1.9895,-1.9895,-1.9187,-1.7893,-1.7893,-1.7308,-1.6249,-1.6249,-1.6249,-1.6249,-1.6249,-1.6425,-1.6771,-1.7871,-1.7805,-1.715,-1.8246,0.0,0.0,-1.7012,-1.6268,-1.5489,-1.6883,-1.7367,-1.7592,-1.894,-1.8428,-1.7625,-1.8972,-1.8428,-1.7399,-1.7657,-1.7528,-1.7367,-1.7367,-1.7173,-1.7077,-1.7302,-1.8203,-1.9068,-1.9291,-2.0515,-2.1502,-2.1502,-2.0713,-2.0042,-2.0042,-1.8959,-1.8139,-1.8217,-1.7983,-1.7838,-1.7881,-1.7646,-1.7511,-1.7511,-1.7511,-1.7586,-1.7812,-1.8268,-1.8438,-1.8243,-1.8498,-1.8665,-1.8709,-1.8465,-1.8336,-1.8414,-1.8336,-1.8315,-1.8315,-1.7975,-1.7251,-1.6161,-1.6067,-1.5376,-1.4292,-1.4437,-1.4506,-1.4506,-1.4506,-1.4506,-1.4506,-1.4506,-1.4506,-1.4506,-1.4506,-1.4506,-1.4506,0.0,0.0,0.0,0.0,0.0,0.0,0.0,-1.1806,-1.1806,-1.1806,-1.1806,-1.1806,-1.1806,-1.2341,-1.2985,0.0,0.0,0.0,0.0,0.0,0.0,-1.5499,-1.6161,-1.6573,-1.6709,-1.7308,-1.7601,-1.7601,0.0,-1.7572,-1.7513,-1.7513,-1.7513,-1.7584,-1.7584,-1.7203,-1.6603,-1.6603,-1.6287,-1.5872,-1.6624,-1.6237,-1.5349,-1.6171,0.0,0.0,-1.5651,-1.501,-1.4039,-1.5424,-1.5424,-1.5163,-1.7302,-1.7012,-1.6171,-1.756,-1.698,-1.6073,-1.6786,-1.6462,-1.5911,-1.5911,-1.5359,-1.501,-1.5749,-1.6398,-1.7109,-1.789,-1.8732,-1.9352,-1.9451,-1.8984,-1.8597,-1.8597,-1.7982,-1.7554,-1.7671,-1.7046,-1.6618,-1.6762,-1.609,-1.564,-1.564,-1.564,-1.5686,-1.5815,-1.5824,-1.6129,-1.6932,-1.7102,-1.6846,-1.607,-1.6811,-1.6846,-1.607,-1.6079,-1.6079,-1.607,-1.5906,-1.5473,-1.485,-1.4789,-1.4401,-1.3747,-1.3863,-1.3904,-1.3904,-1.3904,-1.3904,-1.3904,-1.3904,-1.3904,-1.3904,-1.3904,-1.3904,-1.3904,0.0,0.0,0.0,0.0,0.0,0.0,0.0,-1.1806,-1.1806,-1.1806,-1.1806,-1.1806,-1.1806,-1.1806,-1.2191,0.0,0.0,0.0,0.0,0.0,0.0,0.0,0.0,0.0,-1.5184,0.0,0.0,-1.5599,-1.5599,0.0,0.0,0.0,0.0,0.0,-1.776,-1.7232,-1.6267,-1.6267,-1.5688,0.0,0.0,-1.469,-1.3533,0.0,0.0,0.0,0.0,-1.3744,-1.2964,-1.4071,-1.3711,-1.3194,-1.5391,-1.5326,-1.4716,-1.6138,-1.5554,-1.4684,-1.5814,-1.5294,-1.4455,-1.4455,-1.3613,-1.3095,-1.4193,-1.4721,-1.5312,-1.6501,-1.7079,-1.7406,-1.7554,-1.7357,-1.7185,-1.7185,-1.6913,-1.6803,-1.7009,-1.6044,-1.5385,-1.5611,-1.4608,-1.3904,-1.3904,-1.3904,-1.3904,-1.3904,-1.3904,-1.4395,-1.5558,-1.5629,-1.5097,-1.394,-1.5026,-1.5061,-1.3904,-1.3904,-1.3904,-1.3904,-1.3904,-1.3904,-1.3904,-1.3904,-1.3904,-1.3904,-1.3904,-1.3904,-1.3904,-1.3904,-1.3904,-1.3904,-1.3904,-1.3904,-1.3904,-1.3904,-1.3904,-1.3904,0.0,0.0,0.0,0.0,0.0,0.0,0.0,-1.1806,-1.1806,-1.1806,-1.1806,-1.1806,-1.1806,-1.1806,-1.1837,0.0,0.0,0.0,0.0,0.0,0.0,0.0,0.0,0.0,0.0,0.0,0.0,-1.5599,-1.5599,0.0,0.0,0.0,0.0,0.0,0.0,-1.2432,-1.2311,-1.2311,0.0,0.0,0.0,0.0,0.0,0.0,0.0,0.0,0.0,-1.2898,-1.2832,-1.2931,-1.2898,-1.284,-1.3095,-1.3095,-1.326,-1.4684,-1.4104,-1.303,-1.3161,-1.3095,-1.2997,-1.2997,-1.2898,-1.2832,-1.2964,-1.4139,-1.5219,-1.5338,-1.6682,-1.7833,-1.7855,-1.6972,-1.6234,-1.6234,-1.5115,-1.4246,-1.4263,-1.4156,-1.4058,-1.411,-1.3975,-1.3904,-1.3904,-1.3904,-1.3904,-1.3904,-1.3904,-1.3967,-1.4074,-1.411,-1.4039,-1.3904,-1.4039,-1.4039,-1.3904,-1.3904,-1.3904,-1.3904,-1.3904,-1.3904,-1.3904,-1.3904,-1.3904,-1.3904,-1.3904,-1.3904,-1.3904,-1.3904,-1.3904,-1.3904,-1.3904,-1.3904,-1.3904,-1.3904,-1.3904,-1.3904,0.0,0.0,0.0,0.0,0.0,0.0,-1.1186,-1.1375,-1.1488,-1.1488,-1.1677,-1.1806,-1.1806,-1.1806,-1.1806,-1.1806,0.0,0.0,0.0,0.0,0.0,0.0,0.0,0.0,0.0,0.0,-1.3324,-1.3324,-1.3324,0.0,0.0,0.0,0.0,0.0,0.0,-1.3674,-1.2925,-1.2925,0.0,0.0,0.0,0.0,0.0,0.0,0.0,0.0,0.0,0.0,-1.2807,-1.2807,-1.2807,-1.2807,-1.2807,-1.2807,-1.2898,-1.3481,-1.3227,-1.2807,-1.2807,-1.2807,-1.2807,-1.2807,-1.2807,-1.2831,-1.2937,-1.3478,-1.3991,-1.419,-1.4803,-1.5364,-1.5483,-1.5115,-1.4777,-1.4777,-1.4288,-1.3904,-1.3904,-1.3904,-1.3904,-1.3904,-1.3904,-1.3904,-1.3904,-1.3904,-1.3904,-1.3904,-1.3904,-1.3904,-1.3904,-1.3904,-1.3904,-1.3904,-1.3904,-1.3904,-1.3904,-1.3904,-1.3904,-1.3904,-1.3904,-1.3904,-1.3904,-1.3904,-1.3904,-1.3904,-1.3904,-1.3904,-1.3904,-1.3904,-1.3904,-1.3904,-1.3904,-1.3904,-1.3904,-1.3904,-1.3761,-1.3539,0.0,0.0,0.0,0.0,0.0,-1.0785,-1.0785,-1.0997,-1.1148,-1.1148,-1.1375,-1.1496,-1.1496,-1.1496,-1.1526,-1.1647,-1.1746,0.0,0.0,0.0,0.0,0.0,0.0,0.0,0.0,0.0,-1.1806,-1.1806,-1.1806,-1.2251,0.0,0.0,-1.3614,-1.448,0.0,0.0,0.0,0.0,0.0,0.0,0.0,0.0,0.0,0.0,0.0,0.0,0.0,0.0,0.0,0.0,0.0,-1.2807,-1.2807,-1.2807,-1.2807,-1.2807,-1.2807,-1.2807,-1.2807,-1.2807,-1.2815,-1.2864,-1.288,-1.2929,-1.3133,-1.3214,-1.3293,-1.3552,-1.365,-1.3723,-1.388,-1.3904,-1.3904,-1.3904,-1.3904,-1.3904,-1.3904,-1.3904,-1.3904,-1.3904,-1.3904,-1.3904,-1.3904,-1.3904,-1.3904,-1.3904,-1.3904,-1.3904,-1.3904,-1.3904,-1.3904,-1.3904,-1.3904,-1.3904,-1.3904,-1.3904,-1.3904,-1.3904,-1.3904,-1.3904,-1.3904,-1.3904,-1.3904,-1.3904,-1.3904,-1.3904,-1.3904,-1.3904,-1.3904,-1.3904,-1.3904,-1.3904,-1.3904,-1.3753,-1.3539,-1.3289,0.0,0.0,0.0,0.0,0.0,0.0,-1.0785,-1.0785,-1.0815,-1.0815,-1.0815,-1.0815,-1.0815,-1.0815,-1.0936,-1.1277,-1.1617,0.0,0.0,0.0,0.0,0.0,0.0,0.0,0.0,0.0,-1.1806,-1.1806,-1.1806,-1.1806,-1.1806,-1.1806,-1.1837,-1.1837,0.0,0.0,0.0,0.0,0.0,0.0,0.0,0.0,-1.2304,0.0,0.0,0.0,0.0,0.0,0.0,0.0,0.0,0.0,0.0,-1.2807,-1.2807,-1.2807,-1.2807,-1.2807,-1.2807,-1.2807,-1.2848,-1.3051,-1.3092,-1.3141,-1.3362,-1.3506,-1.3601,-1.3609,-1.3747,-1.3896,-1.3904,-1.3904,-1.3904,-1.3904,-1.3904,-1.3904,-1.3904,-1.3904,-1.3904,-1.3904,-1.3904,-1.3904,-1.3904,-1.3904,-1.3904,-1.3904,-1.3904,-1.3904,-1.3904,-1.3904,-1.3904,-1.3904,-1.3904,-1.3904,-1.3904,-1.3904,-1.3904,-1.3904,-1.3904,-1.3904,-1.3904,-1.3904,-1.3904,-1.3904,-1.3904,-1.3904,-1.3904,-1.3904,-1.3904,-1.3904,-1.3904,-1.3904,-1.3868,-1.3432,-1.3289,-1.3253,0.0,0.0,0.0,0.0,0.0,0.0,0.0,-1.0308,-1.0459,-1.0459,-1.0671,-1.0785,-1.0785,-1.0785,-1.0846,-1.0936,-1.1065,0.0,0.0,0.0,0.0,0.0,0.0,0.0,0.0,-1.1806,-1.1806,-1.1806,-1.1806,-1.1806,-1.1806,-1.1806,-1.1806,-1.1806,-1.1806,-1.1806,0.0,0.0,0.0,0.0,0.0,-1.2093,-1.232,0.0,0.0,0.0,0.0,0.0,0.0,0.0,0.0,0.0,0.0,0.0,0.0,-1.2807,-1.2807,-1.2807,-1.2807,-1.2888,-1.3027,-1.3084,-1.3189,-1.337,-1.3514,-1.3569,-1.3642,-1.3798,-1.3863,-1.3904,-1.3904,-1.3904,-1.3904,-1.3904,-1.3904,-1.3904,-1.3904,-1.3904,-1.3904,-1.3904,-1.3904,-1.3904,-1.3904,-1.3904,-1.3904,-1.3904,-1.3904,-1.3904,-1.3904,-1.3904,-1.3904,-1.3904,-1.3904,-1.3904,-1.3904,-1.3904,-1.3904,-1.3904,-1.3904,-1.3904,-1.3904,-1.3904,-1.3904,-1.3904,-1.3904,-1.3904,-1.3904,-1.3904,-1.3904,-1.386,-1.3611,-1.3503,-1.3432,-1.3075,-1.2796,-1.251,0.0,0.0,0.0,0.0,0.0,0.0,0.0,-0.9974,-1.0126,-1.0126,-1.0308,-1.0429,-1.0429,-1.0429,-1.0459,-1.0604,-1.049,0.0,0.0,0.0,0.0,0.0,0.0,0.0,-1.1617,-1.1746,-1.1746,-1.1617,-1.1617,-1.1617,-1.1617,-1.1617,-1.1677,-1.1806,-1.1806,-1.1806,0.0,0.0,0.0,0.0,-1.1963,-1.2111,-1.2328,0.0,0.0,0.0,0.0,0.0,0.0,0.0,0.0,0.0,0.0,0.0,0.0,0.0,-1.2986,-1.3019,-1.2921,-1.3068,-1.3214,-1.3287,-1.3392,-1.3522,-1.3666,-1.3706,-1.3739,-1.388,-1.3904,-1.3904,-1.3904,-1.3904,-1.3904,-1.3904,-1.3904,-1.3904,-1.3904,-1.3904,-1.3904,-1.3904,-1.3904,-1.3904,-1.3904,-1.3904,-1.3904,-1.3904,-1.3904,-1.3904,-1.3904,-1.3904,-1.3904,-1.3904,-1.3904,-1.3904,-1.3904,-1.3904,-1.3904,-1.3904,-1.3904,-1.3904,-1.3904,-1.3904,-1.3904,-1.3904,-1.3904,-1.3904,0.0,-1.3904,-1.3789,-1.3646,-1.3396,-1.3218,-1.3075,-1.2725,-1.2402,-1.2194,0.0,0.0,0.0,0.0,0.0,0.0,0.0,-0.9792,-0.9792,-0.9792,-0.9792,-0.9792,-0.9792,-0.9792,-0.9913,-1.0247,0.0,0.0,0.0,0.0,0.0,0.0,0.0,0.0,-1.1269,-1.1557,-1.1587,-1.1269,-1.1269,-1.1269,-1.1269,-1.1299,-1.1458,-1.1716,-1.1746,-1.1746,0.0,0.0,0.0,0.0,-1.1887,-1.2064,0.0,0.0,0.0,0.0,0.0,0.0,0.0,0.0,0.0,0.0,0.0,0.0,0.0,0.0,0.0,0.0,0.0,-1.3262,-1.3433,-1.3569,-1.3617,-1.3666,-1.3863,-1.3904,0.0,-1.3904,-1.3904,-1.3904,-1.3904,-1.3904,-1.3904,-1.3904,-1.3904,-1.3904,-1.3904,-1.3904,-1.3904,-1.3904,-1.3904,-1.3904,-1.3904,-1.3904,-1.3904,-1.3904,-1.3904,-1.3904,-1.3904,-1.3904,-1.3904,-1.3904,-1.3904,-1.3904,-1.3904,-1.3904,-1.3904,-1.3904,-1.3904,-1.3904,-1.3904,-1.3904,-1.3904,-1.3904,-1.3904,-1.3868,-1.3868,-1.3868,-1.3611,-1.3253,-1.3218,-1.3039,-1.2717,-1.2302,-1.2158,-1.2086,0.0,0.0,0.0,0.0,0.0,0.0,0.0,0.0,0.0,0.0,-0.9792,-0.9792,-0.9792,-0.9792,-0.9822,0.0,0.0,0.0,0.0,0.0,0.0,0.0,0.0,0.0,-1.0914,-1.1005,-1.1005,-1.0914,-1.0914,-1.0914,-1.0914,-1.1178,-1.1216,-1.1065,-1.1307,-1.1277,0.0,0.0,0.0,0.0,-1.1478,-1.171,0.0,0.0,0.0,0.0,-1.2338,-1.2412,0.0,0.0,0.0,0.0,0.0,0.0,0.0,0.0,-1.3261,-1.3153,-1.3106,0.0,-1.3552,-1.3601,-1.3706,-1.3855,0.0,-1.3904,-1.3904,-1.3904,-1.3904,-1.3904,-1.3904,-1.3904,-1.3904,-1.3904,-1.3904,-1.3904,-1.3904,-1.3904,-1.3904,-1.3904,-1.3904,-1.3904,-1.3904,-1.3904,-1.3904,-1.3904,-1.3904,-1.3904,-1.3904,-1.3904,-1.3904,-1.3904,-1.3904,-1.3904,-1.3904,-1.3904,-1.3904,-1.3904,-1.3904,-1.3904,-1.3904,-1.3904,-1.3904,-1.3904,-1.3904,-1.3718,-1.3432,-1.3432,-1.3218,-1.2896,-1.2581,-1.2409,-1.2302,-1.1907,-1.1727,-1.1727,0.0,0.0,0.0,0.0,0.0,0.0,0.0,0.0,0.0,0.0,0.0,-0.9792,-0.9792,-0.9792,0.0,0.0,0.0,0.0,0.0,0.0,0.0,0.0,0.0,-1.0581,-1.0581,-1.0732,-1.0732,-1.0581,-1.0581,-1.0581,-1.0581,-1.0762,-1.0815,-1.0815,-1.0997,-1.0974,0.0,0.0,0.0,-1.1271,-1.1288,0.0,0.0,0.0,0.0,0.0,-1.2015,-1.2081,0.0,-1.1932,-1.2129,-1.2427,0.0,0.0,0.0,0.0,-1.299,-1.2945,-1.2945,-1.3334,-1.3687,-1.3511,-1.3689,-1.3868,-1.3682,-1.3753,-1.3868,-1.3646,-1.3753,-1.3904,-1.3904,-1.3904,-1.3904,-1.3904,-1.3904,-1.3904,-1.3904,-1.3904,-1.3904,-1.3904,-1.3904,-1.3904,-1.3904,-1.3904,-1.3904,-1.3904,-1.3904,-1.3904,-1.3904,-1.3904,-1.3904,-1.3904,-1.3904,-1.3904,-1.3904,-1.3904,-1.3904,-1.3904,-1.3904,-1.3904,-1.3904,-1.3904,-1.3904,-1.3904,-1.3682,-1.3503,-1.3289,-1.3146,-1.286,-1.251,-1.2302,-1.2086,-1.1907,-1.1691,-1.1584,-1.1584,0.0,0.0,0.0,0.0,0.0,0.0,0.0,0.0,0.0,0.0,0.0,0.0,0.0,0.0,0.0,0.0,0.0,0.0,0.0,0.0,0.0,0.0,-1.0065,-1.0217,-1.0217,-1.049,-1.052,-1.0217,-1.0217,-1.0217,-1.0217,-1.027,-1.0459,-1.0732,-1.0671,-1.0634,0.0,0.0,-1.0804,-1.0966,-1.1136,0.0,0.0,0.0,0.0,0.0,0.0,0.0,0.0,-1.1817,-1.191,-1.2063,-1.215,0.0,0.0,0.0,0.0,0.0,-1.2352,-1.2674,-1.3067,-1.3182,-1.3468,-1.3654,-1.3289,-1.3503,-1.3646,-1.3361,-1.3575,-1.3833,-1.3904,-1.3904,-1.3904,-1.3904,-1.3904,-1.3904,-1.3904,-1.3904,-1.3904,-1.3904,-1.3904,-1.3904,-1.3904,-1.3904,-1.3904,-1.3904,-1.3904,-1.3904,-1.3904,-1.3904,-1.3904,-1.3904,-1.3904,-1.3904,-1.3904,-1.3904,-1.3904,-1.3904,-1.3904,-1.3904,-1.3904,-1.3904,-1.3868,-1.3797,-1.3432,-1.3253,-1.3111,-1.2824,-1.2474,-1.2122,-1.2122,-1.1907,-1.1584,-1.1584,-1.1584,-1.1584,0.0,0.0,0.0,0.0,0.0,0.0,0.0,0.0,0.0,0.0,0.0,0.0,0.0,0.0,0.0,0.0,0.0,0.0,0.0,0.0,0.0,-0.9792,-0.9852,-0.9883,-0.9883,-0.9943,-0.9943,-0.9883,-0.9883,-0.9883,-0.9883,-1.0186,-1.0331,-1.0368,-1.0095,-0.9943,-0.995,-1.0081,-1.0412,-1.0827,-1.0688,0.0,0.0,0.0,0.0,0.0,0.0,0.0,0.0,-1.1178,-1.1575,-1.2158,-1.2041,0.0,0.0,0.0,0.0,0.0,-1.0335,-0.9676,-0.9634,-1.2244,-1.2932,-1.2968,-1.2896,-1.2932,-1.3039,-1.3253,-1.3361,-1.3503,-1.3833,-1.3904,-1.3904,-1.3904,-1.3904,-1.3904,-1.3904,-1.3904,-1.3904,-1.3904,-1.3904,-1.3904,-1.3904,-1.3904,-1.3904,-1.3904,-1.3904,-1.3904,-1.3904,-1.3904,-1.3904,-1.3904,-1.3904,-1.3904,-1.3904,-1.3904,-1.3904,-1.3904,-1.3904,-1.3904,-1.3904,-1.3904,-1.3718,-1.3396,-1.3325,-1.2939,-1.2373,-1.2302,-1.2051,-1.1691,-1.1691,-1.1655,-1.1584,-1.1584,-1.1584,-1.1417,0.0,0.0,0.0,0.0,0.0,0.0,0.0,0.0,0.0,0.0,0.0,0.0,0.0,0.0,0.0,0.0,0.0,0.0,0.0,0.0,-0.9792,-0.9792,-0.9792,-0.9792,-0.9792,-0.9792,-0.9792,-0.9792,-0.9792,-0.9792,-0.9792,-0.9974,-1.0035,-1.0035,-0.9883,-0.9839,-0.992,-0.9988,-0.9803,-0.9491,0.0,0.0,0.0,0.0,0.0,0.0,0.0,0.0,0.0,0.0,-0.8932,-0.9292,-0.9308,0.0,0.0,0.0,0.0,0.0,-0.8343,-0.7941,-0.7869,-0.9316,-0.9964,-1.0215,-1.0,-1.0108,-1.0503,-1.1305,-1.1592,-1.2058,-1.3111,-1.3325,-1.3039,-1.2166,-1.1292,-1.1113,-1.2201,-1.2345,-1.2638,-1.3468,-1.3575,-1.3503,-1.3325,-1.3468,-1.3575,-1.3575,-1.3797,-1.3904,-1.3904,-1.3904,-1.3904,-1.3904,-1.369,-1.3575,-1.3575,-1.3396,-1.3503,-1.3904,-1.3682,-1.3575,-1.3575,-1.3396,-1.3218,-1.3003,-1.2796,-1.251,-1.2194,-1.1979,-1.1763,-1.1584,-1.1584,-1.1584,-1.1482,-1.0644,-1.0425,-1.0277,0.0,0.0,0.0,0.0,0.0,0.0,0.0,0.0,0.0,0.0,0.0,0.0,0.0,0.0,0.0,0.0,0.0,0.0,0.0,-0.9792,-0.9792,-0.9792,-0.9792,-0.9792,-0.9792,-0.9792,-0.9792,-0.9792,-0.9792,-0.9792,-0.9792,-0.9792,-0.9812,-0.9846,-0.9846,-0.9742,-0.9569,-0.9601,-0.8939,-0.7883,0.0,0.0,0.0,0.0,0.0,0.0,0.0,0.0,0.0,0.0,0.0,0.0,0.0,0.0,0.0,-0.7006,-0.6753,-0.6463,-0.6463,-0.6174,-0.5884,-0.5884,-0.6894,-0.7756,-0.7472,-0.7612,-0.8121,-0.9136,-0.9532,-1.0144,-1.1449,-1.17,-1.1413,-1.0545,-0.9095,-0.8621,-1.0108,-1.0323,-1.0754,-1.1944,-1.2094,-1.1987,-1.1736,-1.2273,-1.2638,-1.2638,-1.2924,-1.3067,-1.3067,-1.2738,-1.2559,-1.2559,-1.2237,-1.2094,-1.2094,-1.2209,-1.2717,-1.3654,-1.3325,-1.3182,-1.3182,-1.2932,-1.2753,-1.2653,-1.2338,-1.2158,-1.2051,-1.1727,-1.1388,-1.1047,-1.1047,-1.0849,-1.0414,-0.9218,-0.8899,-0.8793,0.0,0.0,0.0,0.0,0.0,0.0,0.0,0.0,0.0,0.0,0.0,0.0,0.0,0.0,0.0,0.0,0.0,0.0,0.0,-0.9792,-0.9792,-0.9792,-0.9792,-0.9792,-0.9792,-0.9792,-0.9792,-0.9792,-0.9792,-0.9792,-0.9792,-0.9792,-0.9866,-0.997,-0.997,-0.9324,-0.8246,-0.8426,-0.7667,-0.6378,-0.649,0.0,0.0,0.0,0.0,0.0,0.0,0.0,0.0,0.0,0.0,0.0,0.0,0.0,-0.7006,-0.7006,-0.5996,-0.4875,-0.4875,-0.3785,-0.2622,-0.2622,-0.4869,-0.7078,-0.7042,-0.7042,-0.7183,-0.758,-0.7688,-0.7864,-0.8333,-0.8441,-0.8878,-1.0185,-0.9095,-0.8153,-0.8297,-0.8297,-0.8333,-0.8477,-0.8477,-0.8477,-0.8441,-0.9748,-1.0617,-1.0617,-1.0653,-1.0653,-1.0653,-0.9311,-0.8513,-0.8513,-0.8477,-0.8477,-0.8477,-0.9856,-1.1341,-1.2896,-1.286,-1.2824,-1.2824,-1.2824,-1.2617,-1.223,-1.2194,-1.1979,-1.1655,-1.1619,-1.0746,-0.9459,-0.9459,-0.8632,-0.741,-0.7302,-0.7273,-0.7063,0.0,0.0,0.0,0.0,0.0,0.0,0.0,0.0,0.0,0.0,0.0,0.0,0.0,0.0,0.0,0.0,0.0,0.0,0.0,-0.8623,-0.8257,-0.7398,-0.7368,-0.7368,-0.7368,-0.8964,-0.9792,-0.9792,-0.9019,-0.82,-0.7377,-0.7377,-0.7437,-0.7516,-0.7516,-0.7289,-0.6937,-0.701,-0.6238,-0.5032,-0.5091,-0.4565,0.0,0.0,0.0,0.0,0.0,0.0,0.0,0.0,-0.4033,-0.4073,-0.4073,-0.4073,-0.4073,-0.4073,-0.3676,-0.3205,-0.3205,-0.277,-0.2296,-0.2296,-0.3203,-0.4073,-0.4073,-0.4073,-0.44,-0.5525,-0.5775,-0.6101,-0.7219,-0.6644,-0.6174,-0.6753,-0.5522,-0.4905,-0.6134,-0.6279,-0.664,-0.7612,-0.772,-0.7648,-0.7436,-0.8121,-0.859,-0.859,-0.8842,-0.8987,-0.8987,-0.8405,-0.8117,-0.8117,-0.7864,-0.772,-0.772,-0.8085,-0.8595,-0.9208,-1.0401,-1.0473,-0.949,-0.928,-0.91,-0.8961,-0.8961,-0.8894,-0.8743,-0.8743,-0.8435,-0.7936,-0.7936,-0.7661,-0.7097,-0.607,-0.5717,-0.5566,0.0,0.0,0.0,0.0,0.0,0.0,0.0,0.0,0.0,0.0,0.0,0.0,0.0,0.0,0.0,0.0,0.0,0.0,-0.7337,-0.7276,-0.6844,-0.5927,-0.5896,-0.5896,-0.5896,-0.7642,-0.8562,-0.8562,-0.771,-0.6824,-0.5918,-0.5918,-0.5966,-0.6049,-0.6049,-0.5906,-0.5591,-0.5591,-0.4827,-0.3631,-0.3631,-0.306,0.0,0.0,0.0,0.0,0.0,0.0,0.0,0.0,-0.2316,-0.2296,-0.2296,-0.2296,-0.2296,-0.2296,-0.2296,-0.2296,-0.2296,-0.2296,-0.2296,-0.2296,-0.2296,-0.2296,-0.2296,-0.2296,-0.2624,-0.3714,-0.393,-0.4402,-0.5993,-0.4981,-0.4112,-0.462,-0.335,-0.2768,-0.4109,-0.4291,-0.469,-0.5736,-0.5844,-0.5782,-0.5554,-0.621,-0.6622,-0.6612,-0.6869,-0.7015,-0.7015,-0.6572,-0.6316,-0.6316,-0.6026,-0.588,-0.588,-0.614,-0.603,-0.5553,-0.7385,-0.7952,-0.7334,-0.712,-0.7027,-0.7019,-0.7019,-0.7015,-0.7034,-0.7034,-0.6788,-0.6339,-0.5835,-0.572,-0.5649,-0.449,-0.4126,-0.4038,0.0,0.0,0.0,0.0,0.0,0.0,0.0,0.0,0.0,0.0,0.0,0.0,0.0,0.0,0.0,0.0,0.0,0.0,-0.5896,-0.5896,-0.5865,-0.5865,-0.5865,-0.5865,-0.5865,-0.5865,-0.587,-0.5896,-0.5897,-0.5922,-0.5977,-0.5977,-0.6025,-0.6177,-0.6177,-0.5466,-0.4266,-0.4266,-0.3463,-0.2189,-0.2189,-0.2189,-0.2192,0.0,0.0,0.0,0.0,0.0,0.0,0.0,-0.2296,-0.2296,-0.2296,-0.2296,-0.2296,-0.2296,-0.2296,-0.2296,-0.2296,-0.2296,-0.2296,-0.2296,-0.2296,-0.2296,-0.2296,-0.2296,-0.2296,-0.2296,-0.2296,-0.277,-0.4366,-0.3387,-0.2806,-0.4402,-0.335,-0.2296,-0.2296,-0.2296,-0.2296,-0.2296,-0.2296,-0.2345,-0.2376,-0.3786,-0.4662,-0.4683,-0.4688,-0.4688,-0.4688,-0.3217,-0.2386,-0.2386,-0.2386,-0.2386,-0.2386,-0.3933,-0.3895,-0.2424,-0.3933,-0.5478,-0.6957,-0.6957,-0.7005,-0.7052,-0.7052,-0.7052,-0.7056,-0.7056,-0.616,-0.4622,-0.3086,-0.2514,-0.2514,-0.2514,-0.2514,-0.2514,0.0,0.0,0.0,0.0,0.0,0.0,0.0,0.0,0.0,0.0,0.0,0.0,0.0,0.0,0.0,0.0,0.0,0.0,-0.4548,-0.4487,-0.4091,-0.3204,-0.3143,-0.3158,-0.3159,-0.3194,-0.3665,-0.4561,-0.4567,-0.4123,-0.3271,-0.3271,-0.3296,-0.3375,-0.3375,-0.3182,-0.2827,-0.2827,-0.2591,-0.219,-0.2213,-0.2187,-0.2189,0.0,0.0,0.0,0.0,0.0,0.0,0.0,0.0,0.0,-0.2296,-0.2296,-0.2296,-0.2296,-0.2296,-0.2296,-0.2296,-0.2296,-0.2296,-0.2296,-0.2296,-0.2296,-0.2296,-0.2296,-0.2296,-0.2296,-0.2296,-0.2442,-0.2914,-0.2624,-0.2442,-0.295,-0.2624,-0.2296,-0.2296,-0.2296,-0.2304,-0.2363,-0.2364,-0.2376,-0.2408,-0.2823,-0.3091,-0.3064,-0.3066,-0.3066,-0.3066,-0.265,-0.2386,-0.2386,-0.2386,-0.2386,-0.2386,-0.2839,-0.2839,-0.2424,-0.2876,-0.3323,-0.3761,-0.3761,-0.3767,-0.378,-0.378,-0.3837,-0.3871,-0.3867,-0.358,-0.3125,-0.2667,-0.2514,-0.2514,-0.2514,-0.2514,-0.2514,0.0,0.0,0.0,0.0,0.0,0.0,0.0,0.0,0.0,0.0,-0.5437,-0.5069,0.0,0.0,0.0,0.0,0.0,0.0,0.0,-0.3079,-0.2812,-0.2024,-0.1993,-0.2007,-0.2035,-0.2067,-0.246,-0.3237,-0.3235,-0.2881,-0.2128,-0.2128,-0.2171,-0.2189,-0.2189,-0.2189,-0.2189,-0.2189,-0.2196,-0.2208,-0.2192,-0.2207,-0.2186,0.0,0.0,0.0,0.0,0.0,0.0,0.0,0.0,0.0,-0.2296,-0.2296,-0.2296,-0.2296,-0.2296,-0.2296,-0.2296,-0.2296,-0.2296,-0.2296,-0.2296,-0.2296,-0.2296,-0.2296,-0.2296,-0.2296,-0.2296,-0.2296,-0.2296,-0.2296,-0.2296,-0.2296,-0.2296,-0.23,-0.2349,-0.235,-0.2363,-0.2393,-0.2397,-0.2408,-0.2439,-0.2442,-0.2447,-0.2459,-0.2421,-0.2421,-0.2421,-0.2421,-0.2421,-0.2421,-0.2421,-0.2421,-0.2421,-0.2421,-0.2421,-0.2421,-0.2421,-0.2421,-0.2459,-0.2447,-0.2448,-0.2421,-0.2421,-0.247,-0.2488,-0.2507,-0.2514,-0.2514,-0.2514,-0.2514,-0.2514,-0.2514,-0.2514,-0.2514,0.0,0.0,0.0,0.0,0.0,0.0,0.0,0.0,0.0,0.0,-0.4395,-0.3507,0.0,0.0,0.0,0.0,0.0,0.0,0.0,-0.1794,-0.1962,-0.2022,-0.1993,-0.2039,-0.2099,-0.2098,-0.2113,-0.2113,-0.2113,-0.2128,-0.2189,-0.2189,-0.2189,-0.2189,-0.2189,-0.219,-0.2193,-0.2193,-0.221,-0.2204,-0.2207,-0.2225,-0.2217,-0.2283,0.0,0.0,0.0,0.0,0.0,0.0,0.0,0.0,-0.2296,-0.2296,-0.2296,-0.2296,-0.2296,-0.2296,-0.2296,-0.2296,-0.2296,-0.2296,-0.2296,-0.2296,-0.2296,-0.2296,-0.2296,-0.2296,-0.2296,-0.2296,-0.2296,-0.2296,-0.2297,-0.23,-0.23,-0.2348,-0.2378,-0.2383,-0.2394,-0.2424,-0.2428,-0.244,-0.2509,-0.2512,-0.2485,-0.2512,-0.2514,-0.2514,-0.2514,-0.2514,-0.2514,-0.2514,-0.2514,-0.2514,-0.2514,-0.2514,-0.2514,-0.2514,-0.2514,-0.2514,-0.2514,-0.2485,-0.2488,-0.2514,-0.2514,-0.2514,-0.2514,-0.2514,-0.2514,-0.2514,-0.2514,-0.2514,-0.2514,-0.2514,-0.2514,-0.2514,0.0,0.0,0.0,0.0,0.0,0.0,0.0,0.0,0.0,0.0,0.0,0.0,0.0,0.0,0.0,0.0,0.0,0.0,0.0,-0.157,-0.1738,-0.2053,-0.2078,-0.2093,-0.2099,-0.2163,-0.2178,-0.2178,-0.2178,-0.2182,-0.2189,-0.2189,-0.2189,-0.2189,-0.2189,-0.2201,-0.2191,-0.2191,-0.2207,-0.2202,-0.2262,-0.2275,-0.2285,-0.2313,-0.2287,0.0,0.0,0.0,0.0,0.0,0.0,0.0,-0.2296,-0.2296,-0.2296,-0.2296,-0.2296,-0.2296,-0.2296,-0.2296,-0.2296,-0.2296,-0.2296,-0.2296,-0.2296,-0.2296,-0.2296,-0.2296,-0.2296,-0.2296,-0.2296,-0.2296,-0.2304,-0.2364,-0.2368,-0.2379,-0.2409,-0.2414,-0.2425,-0.2455,-0.2459,-0.2472,-0.2502,-0.2504,-0.2507,-0.2514,-0.2514,-0.2514,-0.2514,-0.2514,-0.2514,-0.2514,-0.2514,-0.2514,-0.2514,-0.2514,-0.2514,-0.2514,-0.2514,-0.2514,-0.2514,-0.2507,-0.2508,-0.2514,-0.2514,-0.2514,-0.2514,-0.2514,-0.2514,-0.2514,-0.2514,-0.2514,-0.2514,-0.2514,-0.2514,-0.2514,0.0,0.0,0.0,0.0,0.0,0.0,0.0,0.0,0.0,0.0,0.0,0.0,0.0,0.0,0.0,0.0,0.0,0.0,0.0,0.0,-0.1668,-0.2084,-0.2114,-0.2164,-0.2164,-0.2181,-0.2196,-0.221,-0.221,-0.2203,-0.2189,-0.2204,-0.221,-0.2211,-0.2192,-0.2207,-0.2187,-0.2187,-0.2205,-0.2268,-0.2285,-0.2298,-0.2312,-0.2291,-0.2296,-0.2296,-0.2296,0.0,0.0,0.0,0.0,0.0,0.0,0.0,-0.2296,-0.2296,-0.2296,-0.2296,-0.2296,-0.2296,-0.2296,-0.2296,-0.2296,-0.2296,-0.2296,-0.2296,-0.2296,-0.2296,-0.2296,-0.2296,-0.2296,-0.2308,-0.236,-0.2376,-0.239,-0.241,-0.2442,-0.2446,-0.2457,-0.2487,-0.2491,-0.2497,-0.2512,-0.2514,-0.2514,-0.2514,-0.2514,-0.2514,-0.2514,-0.2514,-0.2514,-0.2514,-0.2514,-0.2514,-0.2514,-0.2514,-0.2514,-0.2514,-0.2514,-0.2514,-0.2514,-0.2514,-0.2514,-0.2514,-0.2514,-0.2514,-0.2514,-0.2514,-0.2514,-0.2514,-0.2514,-0.2514,-0.2514,-0.2514,-0.2514,-0.2514,0.0,0.0,0.0,0.0,0.0,0.0,0.0,0.0,0.0,0.0,0.0,0.0,0.0,0.0,0.0,0.0,0.0,0.0,0.0,0.0,0.0,-0.2116,-0.2175,-0.219,-0.2196,-0.2196,-0.2211,-0.2207,-0.2207,-0.2195,-0.2204,-0.2196,-0.2207,-0.2208,-0.2199,-0.2213,-0.2218,-0.2218,-0.2236,-0.2298,-0.2298,-0.2312,-0.2296,-0.2296,-0.2296,-0.2296,-0.2296,-0.2296,-0.2296,-0.2296,0.0,0.0,0.0,0.0,-0.2296,-0.2296,-0.2296,-0.2296,-0.2296,-0.2296,-0.2296,-0.2296,-0.2296,-0.2296,-0.2296,-0.2296,-0.2296,-0.2296,-0.2296,-0.2297,-0.2303,-0.2361,-0.2419,-0.243,-0.2414,-0.2442,-0.2512,-0.2516,-0.2487,-0.2511,-0.2514,-0.2514,-0.2514,-0.2514,-0.2514,-0.2514,-0.2514,-0.2514,-0.2514,-0.2514,-0.2514,-0.2514,-0.2514,-0.2514,-0.2514,-0.2514,-0.2514,-0.2514,-0.2514,-0.2514,-0.2514,-0.2514,-0.2514,-0.2514,-0.2514,-0.2514,-0.2514,-0.2514,-0.2514,-0.2514,-0.2514,-0.2514,-0.2514,-0.2514,-0.2514,-0.2514,0.0,0.0,0.0,0.0,0.0,0.0,0.0,0.0,0.0,0.0,-0.0123,-0.0124,0.0,0.0,0.0,0.0,0.0,0.0,-0.0492,0.0,0.0,-0.2182,-0.2186,-0.22,-0.2193,-0.2193,-0.2208,-0.2205,-0.2205,-0.2202,-0.2198,-0.2202,-0.2205,-0.2205,-0.2209,-0.2225,-0.2285,-0.2285,-0.2301,-0.2291,-0.2291,-0.2293,-0.2296,-0.2296,-0.2296,-0.2296,-0.2296,-0.2296,-0.2296,-0.2296,-0.2296,0.0,0.0,0.0,-0.2296,-0.2296,-0.2296,-0.2296,-0.2296,-0.2296,-0.2296,-0.2296,-0.2296,-0.2296,-0.2296,-0.2296,-0.2296,-0.2296,-0.2296,-0.2304,-0.2367,-0.2412,-0.2433,-0.2487,-0.2499,-0.2473,-0.2504,-0.2508,-0.251,-0.2514,-0.2514,-0.2514,-0.2514,-0.2514,-0.2514,-0.2514,-0.2514,-0.2514,-0.2514,-0.2514,-0.2514,-0.2514,-0.2514,-0.2514,-0.2514,-0.2514,-0.2514,-0.2514,-0.2514,-0.2514,-0.2514,-0.2514,-0.2514,-0.2514,-0.2514,-0.2514,-0.2514,-0.2514,-0.2514,-0.2514,-0.2514,-0.2514,-0.2514,-0.2514,-0.2514,-0.2514,0.0,0.0,0.0,0.0,0.0,0.0,0.0,0.0,0.0,0.0,0.0,0.0,0.0,0.0,0.0,0.0,0.0,-0.0131,-0.0466,-0.1006,-0.1487,-0.1906,-0.2112,-0.2195,-0.219,-0.219,-0.2205,-0.2271,-0.2271,-0.2244,-0.2259,-0.2259,-0.225,-0.2271,-0.2252,-0.2265,-0.2315,-0.2315,-0.2285,-0.2296,-0.2296,-0.2296,-0.2296,-0.2296,-0.2296,-0.2296,-0.2296,-0.2296,-0.2296,-0.2296,-0.2296,-0.2296,-0.2296,0.0,0.0,0.0,-0.2296,-0.2296,-0.2296,-0.2296,-0.2296,-0.2296,-0.2296,-0.2296,-0.2296,-0.2296,-0.2296,-0.2296,-0.2296,-0.2305,-0.2372,-0.2393,-0.2418,-0.25,-0.2484,-0.2499,-0.2512,-0.2514,-0.2514,-0.2514,-0.2514,-0.2514,-0.2514,-0.2514,-0.2514,-0.2514,-0.2514,-0.2514,-0.2514,-0.2514,-0.2514,-0.2514,-0.2514,-0.2514,-0.2514,-0.2514,-0.2514,-0.2514,-0.2514,-0.2514,-0.2514,-0.2514,-0.2514,-0.2514,-0.2514,-0.2514,-0.2514,-0.2514,-0.2514,-0.2514,-0.2514,-0.2514,-0.2514,-0.2514,-0.2514,-0.2514,0.0,0.0,0.0,0.0,0.0,0.0,0.0,0.0,0.0,0.0,0.0,0.0,0.0,0.0,0.0,0.0,0.0,-0.0133,-0.0473,-0.0781,-0.1162,-0.1692,-0.1831,-0.1983,-0.208,-0.208,-0.2094,-0.2157,-0.2265,-0.2312,-0.2296,-0.2296,-0.2285,-0.2303,-0.2287,-0.2296,-0.2296,-0.2296,-0.2296,-0.2296,-0.2296,-0.2296,-0.2296,-0.2296,-0.2296,-0.2296,-0.2296,-0.2296,-0.2296,-0.2296,-0.2296,-0.2296,-0.2296,-0.2296,0.0,0.0,0.0,-0.2296,-0.2296,-0.2296,-0.2296,-0.2296,-0.2296,-0.2296,-0.2296,-0.2296,-0.2296,-0.2296,-0.2296,-0.2308,-0.2383,-0.2408,-0.2436,-0.2474,-0.25,-0.2514,-0.2514,-0.2514,-0.2514,-0.2514,-0.2514,-0.2514,-0.2514,-0.2514,-0.2514,-0.2514,-0.2514,-0.2514,-0.2514,-0.2514,-0.2514,-0.2514,-0.2514,-0.2514,-0.2514,-0.2514,-0.2514,-0.2514,-0.2514,-0.2514,-0.2514,-0.2514,-0.2514,-0.2514,-0.2514,-0.2514,-0.2514,-0.2514,-0.2514,-0.2514,-0.2514,-0.2514,-0.2514,-0.2514,-0.2514,-0.2514,0.0,0.0,0.0,0.0,0.0,0.0,0.0,0.0,0.0,0.0,0.0,0.0,0.0,0.0,0.0,0.0,0.0,-0.0135,-0.048,-0.0521,-0.0875,-0.1682,-0.1367,0.0,-0.1716,-0.1716,-0.1762,-0.182,-0.2148,-0.2295,-0.2296,-0.2296,-0.2296,-0.2295,-0.2296,-0.2296,-0.2296,-0.2296,-0.2296,-0.2296,-0.2296,-0.2296,-0.2296,-0.2296,-0.2296,-0.2296,-0.2296,-0.2296,-0.2296,-0.2296,-0.2296,-0.2296,-0.2296,-0.2296,-0.2296,0.0,0.0,0.0,-0.2296,-0.2296,-0.2296,-0.2296,-0.2296,-0.2296,-0.2296,-0.2296,-0.2296,-0.2296,-0.2296,-0.2314,-0.2373,-0.2385,-0.2405,-0.2503,-0.2514,-0.2514,-0.2514,-0.2514,-0.2514,-0.2514,-0.2514,-0.2514,-0.2514,-0.2514,-0.2514,-0.2514,-0.2514,-0.2514,-0.2514,-0.2514,-0.2514,-0.2514,-0.2514,-0.2514,-0.2514,-0.2514,-0.2514,-0.2514,-0.2514,-0.2514,-0.2514,-0.2514,-0.2514,-0.2514,-0.2514,-0.2514,-0.2514,-0.2514,-0.2514,-0.2514,-0.2514,-0.2514,-0.2514,-0.2514,-0.2514,-0.2514,0.0,0.0,0.0,0.0,0.0,0.0,0.0,0.0,0.0,0.0,0.0,0.0,0.0,0.0,0.0,0.0,0.0,-0.0035,-0.0174,-0.0385,-0.0634,-0.0994,-0.1066,-0.118,-0.1377,-0.0362,-0.0471,-0.1786,-0.0146,-0.0364,-0.2296,-0.1567,-0.1604,-0.2296,-0.2296,-0.2296,-0.2296,-0.2296,-0.2296,-0.2296,-0.2296,-0.2296,-0.2296,-0.2296,-0.2296,-0.2296,-0.2296,-0.2296,-0.2296,-0.2296,0.0,0.0,0.0,-0.2296,-0.2296,-0.2296,-0.2296,-0.2296,-0.2296,-0.2296,-0.2296,-0.2296,-0.2296,-0.2296,-0.2296,-0.2296,-0.2296,-0.2296,-0.2296,-0.2315,-0.2375,-0.2386,-0.2405,-0.2504,-0.2514,-0.2514,-0.2514,-0.2514,-0.2514,-0.2514,-0.2514,-0.2514,-0.2514,-0.2514,-0.2514,-0.2514,-0.2514,-0.2514,-0.2514,-0.2514,-0.2514,-0.2514,-0.2514,-0.2514,-0.2514,-0.2514,-0.2514,-0.2514,-0.2514,-0.2514,-0.2514,-0.2514,-0.2514,-0.2514,-0.2514,-0.2514,-0.2514,-0.2514,-0.2514,-0.2514,-0.2514,-0.2514,-0.2514,-0.2514,-0.2514,-0.2514,0.0,0.0,0.0,0.0,0.0,0.0,0.0,0.0,0.0,0.0,0.0,0.0,0.0,0.0,0.0,0.0,0.0,0.0,0.0,-0.0213,-0.0178,0.0144,0.0072,0.0217,0.0583,0.1594,0.134,-0.0218,0.1051,0.0507,-0.1713,-0.1348,-0.1567,-0.2296,-0.2296,-0.2296,-0.2296,-0.2296,-0.2296,-0.2296,-0.2296,-0.2296,-0.2296,-0.2296,-0.2296,-0.2296,-0.2296,-0.2296,-0.2296,-0.2296,0.0,0.0,0.0,0.0,-0.2296,-0.2296,-0.2296,-0.2296,-0.2296,-0.2296,-0.2296,-0.2296,-0.2296,-0.2296,-0.2296,-0.2296,-0.2296,-0.2296,-0.2296,-0.2311,-0.2399,-0.2417,-0.2405,-0.2504,-0.2514,-0.2514,-0.2514,-0.2514,-0.2514,-0.2514,-0.2514,-0.2514,-0.2514,-0.2514,-0.2514,-0.2514,-0.2514,-0.2514,-0.2514,-0.2514,-0.2514,-0.2514,-0.2514,-0.2514,-0.2514,-0.2514,-0.2514,-0.2514,-0.2514,-0.2514,-0.2514,-0.2514,-0.2514,-0.2514,-0.2514,-0.2514,-0.2514,-0.2514,-0.2514,-0.2514,-0.2514,-0.2514,-0.2514,-0.2514,-0.2514,-0.2514,0.0,0.0,0.0,0.0,0.0,0.0,0.0,0.0,0.0,0.0,0.0,0.0,0.0,0.0,0.0,0.0,0.0,0.0,0.0,0.0,0.051,0.1674,0.2037,0.28,0.3996,0.3913,0.3485,0.2766,0.1221,0.0072,-0.0656,-0.175,-0.226,-0.2296,-0.2296,-0.2296,-0.226,-0.2296,-0.2296,-0.2296,-0.2296,-0.2296,-0.2296,-0.2296,-0.2296,-0.2296,-0.2296,-0.2296,-0.2296,-0.2296,0.0,0.0,0.0,0.0,0.0,0.0,0.0,-0.2296,0.0,0.0,0.0,-0.2296,-0.2296,-0.2296,-0.2296,-0.2296,-0.2296,-0.2296,-0.2296,-0.2305,-0.2372,-0.2402,-0.2403,-0.2503,-0.2514,-0.2514,-0.2514,-0.2514,-0.2514,-0.2514,-0.2514,-0.2514,-0.2514,-0.2514,-0.2514,-0.2514,-0.2514,-0.2514,-0.2514,-0.2514,-0.2514,-0.2514,-0.2514,-0.2514,-0.2514,-0.2514,-0.2514,-0.2514,-0.2514,-0.2514,-0.2514,-0.2514,-0.2514,-0.2514,-0.2514,-0.2514,-0.2514,-0.2514,-0.2514,-0.2514,-0.2514,-0.2514,-0.2514,-0.2514,-0.2514,-0.2514,0.0,0.0,0.0,0.0,0.0,0.0,0.0,0.0,0.0,0.0,0.0,0.0,0.0,0.0,0.0,0.0,0.0,0.0,0.0,0.0,0.0656,0.2075,0.1166,0.1166,0.2327,0.232,0.1378,-0.051,0.1015,0.0544,-0.1822,-0.1311,-0.1494,-0.2296,-0.2296,-0.1859,-0.1129,-0.1968,-0.2296,-0.2296,-0.2296,-0.2296,-0.2296,-0.2296,-0.2296,-0.2296,-0.2296,-0.2296,-0.2296,-0.2296,-0.2296,-0.2296,0.0,0.0,0.0,0.0,0.0,0.0,-0.2296,0.0,0.0,0.0,0.0,0.0,-0.2296,-0.2296,-0.2296,-0.2296,-0.2296,-0.2305,-0.2372,-0.2386,-0.241,-0.2472,-0.25,-0.2514,-0.2514,-0.2514,-0.2514,-0.2514,-0.2514,-0.2514,-0.2514,-0.2514,-0.2514,-0.2514,-0.2514,-0.2514,-0.2514,-0.2514,-0.2514,-0.2514,-0.2514,-0.2514,-0.2514,-0.2514,-0.2514,-0.2514,-0.2514,-0.2514,-0.2514,-0.2514,-0.2514,-0.2514,-0.2514,-0.2514,-0.2514,-0.2514,-0.2514,-0.2514,-0.2514,-0.2514,-0.2514,-0.2514,-0.2514,-0.2514,0.0,0.0,0.0,0.0,0.0,0.0,0.0,0.0,0.0,0.0,0.0,0.0,0.0,0.0,0.0,0.0,0.0,0.0,0.0,0.0,0.0693,0.2221,0.1457,0.1493,0.2691,0.264,0.1737,-0.0073,0.0977,0.0434,-0.1567,-0.0911,-0.1202,-0.226,-0.1275,-0.0765,-0.0619,-0.0765,-0.0838,-0.0874,-0.1384,-0.1604,-0.164,-0.2114,-0.2296,-0.2296,-0.2296,-0.2005,-0.1677,-0.215,-0.2296,0.0,0.0,0.0,0.0,0.0,0.0,0.0,0.0,0.0,0.0,-0.2296,0.0,0.0,-0.2296,-0.2296,-0.2296,-0.2296,-0.2296,-0.2301,-0.2356,-0.2369,-0.2427,-0.2463,-0.2467,-0.25,-0.2512,-0.2514,-0.2514,-0.2514,-0.2514,-0.2514,-0.2514,-0.2514,-0.2514,-0.2514,-0.2514,-0.2514,-0.2514,-0.2514,-0.2514,-0.2514,-0.2514,-0.2514,-0.2514,-0.2514,-0.2514,-0.2514,-0.2514,-0.2514,-0.2514,-0.2514,-0.2514,-0.2514,-0.2514,-0.2514,-0.2514,-0.2514,-0.2514,-0.2514,-0.2514,-0.2514,-0.2514,-0.2514,-0.2514,-0.2514,0.0,0.0,0.0,0.0,0.0,0.0,0.0,0.0,0.0,0.0,0.0,0.0,0.0,0.0,0.0,0.0,0.0,0.0,0.0,0.0,0.0659,0.2157,0.2084,0.2521,0.3684,0.3429,0.2888,0.212,0.0794,0.0036,-0.0256,-0.0585,-0.1168,-0.1826,0.0146,0.0546,-0.0146,0.0947,0.1384,0.1275,-0.0073,-0.0583,-0.0729,-0.1859,-0.2296,-0.2296,-0.2296,-0.164,-0.0947,-0.1968,-0.2296,-0.2296,0.0,0.0,0.0,0.0,-0.2296,0.0,0.0,0.0,0.0,0.0,-0.2296,0.0,-0.2296,-0.2296,-0.2296,-0.2296,-0.2296,-0.2296,-0.2296,-0.2354,-0.2375,-0.2415,-0.2462,-0.2509,-0.2504,-0.2512,-0.2514,-0.2514,-0.2514,-0.2514,-0.2514,-0.2514,-0.2514,-0.2514,-0.2514,-0.2514,-0.2514,-0.2514,-0.2514,-0.2514,-0.2514,-0.2514,-0.2514,-0.2514,-0.2514,-0.2514,-0.2514,-0.2514,-0.2514,-0.2514,-0.2514,-0.2514,-0.2514,-0.2514,-0.2514,-0.2514,-0.2514,-0.2514,-0.2514,-0.2514,-0.2514,-0.2514,-0.2514,-0.2514,0.0,0.0,0.0,0.0,0.0,0.0,0.0,0.0,0.0,0.0,0.0,0.0,0.0,0.0,0.0,0.0,0.0,0.0,0.0,0.0,0.0526,0.1764,0.0638,0.0338,0.1201,-0.0037,-0.0112,0.1012,-0.0599,-0.0225,0.1912,-0.0446,-0.0777,0.0555,0.0,0.0655,0.2221,0.2475,0.2585,0.2366,0.0255,-0.0583,-0.0729,-0.1859,-0.2296,-0.2296,-0.2296,-0.215,-0.2005,-0.2223,-0.2296,-0.2296,0.0,0.0,0.0,-0.2296,0.0,0.0,0.0,0.0,0.0,0.0,-0.2296,0.0,-0.2296,-0.2296,-0.2296,-0.2296,-0.2296,-0.2296,-0.2296,-0.2301,-0.2349,-0.2375,-0.2426,-0.2453,-0.2509,-0.2499,-0.2514,-0.2514,-0.2514,-0.2514,-0.2514,-0.2514,-0.2514,-0.2514,-0.2514,-0.2514,-0.2514,-0.2514,-0.2514,-0.2514,-0.2514,-0.2514,-0.2514,-0.2514,-0.2514,-0.2514,-0.2514,-0.2514,-0.2514,-0.2514,-0.2514,-0.2514,-0.2514,-0.2514,-0.2514,-0.2514,-0.2514,-0.2514,-0.2514,-0.2514,-0.2514,-0.2514,-0.2514,-0.2514,0.0,0.0,0.0,0.0,0.0,0.0,0.0,0.0,0.0,0.0,0.0,0.0,0.0,0.0,0.0,0.0,0.0,0.0,0.0,0.0,0.0265,0.0832,0.0114,-0.0227,-0.0038,-0.0795,-0.0984,-0.0529,-0.0757,-0.0189,0.1058,0.0789,0.0562,0.045,0.1601,0.2078,0.2078,0.2709,0.2931,0.278,0.1025,-0.0073,-0.0729,-0.1859,-0.2296,-0.2296,-0.2296,-0.2296,-0.2223,-0.164,-0.1457,-0.1457,-0.1457,-0.1056,-0.0656,0.0,-0.1457,-0.1567,0.0,0.0,0.0,-0.2296,0.0,0.0,0.0,-0.2296,-0.2296,-0.2296,-0.2296,-0.2296,-0.2296,-0.2296,-0.2301,-0.2353,-0.2368,-0.2426,-0.2458,-0.2463,-0.2497,-0.2512,-0.2514,-0.2514,-0.2514,-0.2514,-0.2514,-0.2514,-0.2514,-0.2514,-0.2514,-0.2514,-0.2514,-0.2514,-0.2514,-0.2514,-0.2514,-0.2514,-0.2514,-0.2514,-0.2514,-0.2514,-0.2514,-0.2514,-0.2514,-0.2514,-0.2514,-0.2514,-0.2514,-0.2514,-0.2514,-0.2514,-0.2514,-0.2514,-0.2514,-0.2514,-0.2514,-0.2514,0.0,0.0,0.0,0.0,0.0,0.0,0.0,0.0,0.0,0.0,0.0,0.0,0.0,-0.0076,-0.0114,-0.0114,-0.019,-0.0229,-0.0114,-0.0114,-0.0114,-0.0114,-0.0114,-0.0343,-0.0839,-0.0839,-0.0991,-0.1334,-0.0381,0.0191,0.0495,0.209,0.205,0.0645,0.3029,0.3139,0.1588,0.2306,0.2495,0.2189,0.1221,0.0257,-0.0732,-0.1871,-0.231,-0.2305,-0.2311,-0.2314,-0.2167,-0.1248,-0.0953,-0.0914,-0.0658,-0.0073,0.0,0.0,0.0,0.0,0.0,0.0,0.0,0.0,0.0,-0.2296,0.0,0.0,0.0,-0.2296,-0.2296,-0.2296,-0.2296,-0.2296,-0.2295,-0.2289,-0.235,-0.2369,-0.2369,-0.2455,-0.2462,-0.2493,-0.2507,-0.2512,-0.2506,-0.2511,-0.2514,-0.2514,-0.2514,-0.2514,-0.2514,-0.2514,-0.2514,-0.2514,-0.2514,-0.2514,-0.2514,-0.2514,-0.2514,-0.2514,-0.2514,-0.2514,-0.2514,-0.2514,-0.2514,-0.2514,-0.2514,-0.2514,-0.2514,-0.2514,-0.2514,-0.2514,-0.2514,-0.2514,-0.2514,-0.2514,-0.2514,-0.2514,0.0,0.0,0.0,0.0,0.0,0.0,0.0,0.0,0.0,0.0,0.0,0.0,0.0,-0.0306,-0.0539,-0.0539,-0.0894,-0.0978,-0.0548,-0.0548,-0.0548,-0.0548,-0.0548,-0.09,-0.1721,-0.176,-0.1055,0.0312,0.0117,0.1328,0.3821,0.2587,0.2845,0.4192,0.2394,0.2042,0.2722,0.1739,0.0681,-0.0303,-0.0415,-0.0524,-0.0742,-0.1914,-0.2397,-0.2376,-0.2403,-0.2375,-0.2375,-0.2225,-0.2208,-0.2002,-0.0927,-0.1213,-0.1531,0.0437,0.0,0.0,0.0,0.0,0.0,0.0,-0.2296,-0.2296,-0.2296,0.0,-0.2296,-0.2296,0.0,-0.2296,-0.2296,0.0,0.0,-0.23,-0.2319,-0.2301,-0.2301,-0.2367,-0.2399,-0.2393,-0.2481,-0.2504,-0.2516,-0.2499,-0.2514,-0.2514,-0.2514,-0.2514,-0.2514,-0.2514,-0.2514,-0.2514,-0.2514,-0.2514,-0.2514,-0.2514,-0.2514,-0.2514,-0.2514,-0.2514,-0.2514,-0.2514,-0.2514,-0.2514,-0.2514,-0.2514,-0.2514,-0.2514,-0.2514,-0.2514,-0.2514,-0.2514,-0.2514,-0.2514,-0.2514,-0.2514,0.0,0.0,0.0,0.0,0.0,0.0,0.0,0.0,0.0,0.0,0.0,0.0,0.0,-0.0155,-0.0351,-0.0585,-0.0783,-0.0825,-0.0628,-0.0589,0.0,-0.0275,-0.0236,-0.055,-0.1139,-0.1139,-0.106,-0.0863,0.0471,0.1608,0.2626,0.3354,0.3387,0.2803,0.244,0.1777,0.0888,0.0348,-0.0193,-0.0696,-0.1431,-0.1728,-0.1746,-0.2236,-0.2416,-0.2406,-0.2381,-0.2386,-0.2386,-0.2386,-0.1962,-0.1315,-0.0826,-0.0524,0.0,0.0849,0.0,0.0,0.0,0.0,0.0,0.0,0.0,-0.1311,-0.1311,-0.1311,-0.1494,-0.215,0.0,0.0,0.0,0.0,0.0,0.0,-0.2288,-0.2296,-0.2296,-0.2358,-0.239,-0.2382,-0.2407,-0.2463,-0.2507,-0.2496,-0.2514,-0.2514,-0.2514,-0.2514,-0.2514,-0.2514,-0.2514,-0.2514,-0.2514,-0.2514,-0.2514,-0.2514,-0.2514,-0.2514,-0.2514,-0.2514,-0.2514,-0.2514,-0.2514,-0.2514,-0.2514,-0.2514,-0.2514,-0.2514,-0.2514,-0.2514,-0.2514,-0.2514,-0.2514,-0.2514,-0.2514,-0.2514,0.0,0.0,-0.0114,-0.0038,-0.0076,-0.0114,0.0,0.0,0.0,0.0,0.0,0.0,0.0,-0.0196,-0.0471,-0.0785,-0.0982,-0.106,-0.0982,-0.0942,-0.0785,-0.0393,-0.0353,-0.055,-0.0942,-0.0942,-0.1336,-0.2082,0.0157,0.1059,0.0824,0.298,0.3019,0.1334,0.1843,0.1098,-0.0628,-0.0981,-0.1138,-0.1217,-0.212,-0.2502,-0.2478,-0.2447,-0.2442,-0.241,-0.241,-0.241,-0.241,-0.241,-0.187,-0.1141,-0.0799,-0.0304,0.0264,0.0,0.0,0.0,0.0591,-0.0184,-0.0806,0.0403,0.0037,-0.051,-0.0182,0.0036,-0.0036,-0.0874,-0.0874,0.0,0.0,0.0,-0.1092,0.0,0.0,-0.1346,-0.1342,-0.1392,-0.1669,-0.2283,-0.2406,-0.2427,-0.2503,-0.2489,-0.2506,-0.2514,-0.2514,-0.2514,-0.2514,-0.2514,-0.2514,-0.2514,-0.2514,-0.2514,-0.2514,-0.2514,-0.2514,-0.2514,-0.2514,-0.2514,-0.2514,-0.2514,-0.2514,-0.2514,-0.2514,-0.2519,-0.2527,-0.2527,-0.2532,-0.2538,-0.2538,-0.2538,-0.2537,-0.253,-0.2532,-0.2538,0.0,-0.0308,-0.0454,-0.0076,-0.0341,-0.0456,-0.0077,0.0,0.0,0.0,0.0,0.0,0.0,-0.0746,-0.1256,-0.1256,-0.2003,-0.2278,-0.1886,-0.1846,-0.1689,-0.1256,-0.1256,-0.1454,-0.1846,-0.1846,-0.2082,-0.2475,-0.1177,-0.051,-0.051,0.0824,0.1373,0.1255,0.0039,-0.051,-0.0667,-0.1924,-0.2435,-0.2435,-0.2475,-0.2514,-0.251,-0.2478,-0.2485,-0.2511,-0.2511,-0.2511,-0.2511,-0.2511,-0.2492,-0.2236,-0.1079,-0.1414,-0.1855,0.0416,-0.0491,-0.2043,-0.0945,-0.1461,-0.2042,-0.0854,-0.0588,-0.0291,0.0874,0.1711,0.2183,0.2147,0.2762,0.3087,0.2292,0.0,0.0,0.0,0.0,0.0,0.0,0.1085,0.0255,-0.2043,-0.2361,-0.2441,-0.2502,-0.2509,-0.2482,-0.2512,-0.2514,-0.2514,-0.2514,-0.2514,-0.2514,-0.2514,-0.2514,-0.2514,-0.2514,-0.2514,-0.2514,-0.2514,-0.2514,-0.2514,-0.2514,-0.2514,-0.2514,-0.2514,-0.2514,-0.2532,-0.2599,-0.2599,-0.2614,-0.2598,-0.2598,-0.2598,-0.2596,-0.2608,-0.2615,-0.2598,0.0,0.0,-0.0466,-0.0078,-0.0116,-0.0155,-0.0039,0.0,-0.0079,-0.0353,-0.0393,-0.051,-0.0825,-0.1139,-0.1414,-0.1689,-0.1964,-0.2043,-0.1925,-0.1886,-0.1728,-0.1336,-0.1296,-0.1493,-0.1886,-0.1886,-0.2082,-0.2514,-0.1217,-0.0588,-0.0588,0.0706,0.0863,0.0039,-0.0392,-0.1059,-0.1885,-0.2318,-0.2514,-0.2514,-0.2514,-0.2002,-0.1334,-0.2189,-0.2506,-0.2514,-0.2514,-0.2514,-0.2514,-0.2514,-0.2507,-0.2421,-0.203,-0.2142,-0.2169,-0.0576,-0.0651,-0.1033,0.0152,-0.0377,-0.0976,0.0223,-0.0037,-0.0147,0.1533,0.2111,0.2438,0.2979,0.3304,0.3413,0.0,0.0,0.0,0.0,0.0,0.0,0.0,0.2719,0.2435,0.1634,-0.0074,-0.1534,-0.2359,-0.2457,-0.2481,-0.2512,-0.2514,-0.2514,-0.2514,-0.2514,-0.2514,-0.2514,-0.2514,-0.2514,-0.2514,-0.2514,-0.2514,-0.2514,-0.2514,-0.2514,-0.2515,-0.2536,-0.2584,-0.2585,-0.2564,-0.2578,-0.2587,-0.2587,-0.2593,-0.2601,-0.2601,-0.2613,-0.2587,-0.2598,-0.2593,-0.2601,-0.0196,-0.055,-0.0707,-0.0275,-0.0353,-0.0471,-0.0471,-0.0471,-0.055,-0.0825,-0.0864,-0.0982,-0.1256,-0.1414,-0.1611,-0.1886,-0.2043,-0.2121,-0.2121,-0.2121,-0.2003,-0.1728,-0.1728,-0.1846,0.0,0.0,-0.2239,-0.2514,-0.1688,-0.1295,-0.1256,-0.0432,-0.0471,-0.1295,-0.1295,-0.1728,-0.2514,-0.2514,-0.2514,-0.2514,-0.2514,-0.2002,-0.1373,-0.22,-0.22,-0.1885,-0.2318,-0.2514,-0.2514,-0.2514,-0.2514,-0.2514,-0.2514,-0.2514,-0.2353,-0.1556,-0.1359,-0.1163,-0.0384,-0.0764,-0.1065,0.0151,-0.0075,-0.0075,0.2022,0.2711,0.3181,0.4112,0.4757,0.5047,0.0,0.0,0.0,0.0,0.0,0.0,0.0,0.476,0.4576,0.4141,0.1942,-0.0037,-0.1246,-0.1678,-0.2045,-0.2472,-0.2514,-0.2514,-0.2514,-0.2514,-0.2514,-0.2514,-0.2514,-0.2514,-0.2514,-0.2514,-0.2514,-0.2514,-0.2514,-0.2519,-0.2532,-0.259,-0.2606,-0.2615,-0.2593,-0.2608,-0.2617,-0.2617,-0.2624,-0.2634,-0.2634,-0.2646,-0.2618,-0.2628,-0.2624,-0.2634,-0.0629,-0.1023,-0.118,-0.0748,-0.1022,-0.1296,-0.1296,-0.1296,-0.1296,-0.1336,-0.1336,-0.1336,-0.1375,-0.1689,-0.1925,-0.1925,-0.2278,-0.2514,-0.2514,-0.2514,-0.2514,-0.2514,-0.2514,-0.2514,-0.2514,0.0,0.0,0.0,-0.2514,-0.2514,-0.2514,-0.2514,-0.2514,-0.2514,-0.2514,-0.2514,-0.2514,-0.2514,-0.2514,-0.2514,-0.2514,-0.2475,-0.2396,-0.2475,-0.1728,-0.0784,-0.2042,-0.2514,-0.2514,-0.2514,-0.2514,-0.2514,-0.2514,-0.2514,-0.2514,-0.2514,-0.2514,-0.2514,-0.2514,-0.2493,-0.22,-0.1003,-0.0688,-0.0038,0.2422,0.3526,0.4364,0.5594,0.7035,0.7865,0.7176,0.7643,0.0,0.0,0.0,0.0,0.0,0.7099,0.6696,0.5525,0.3676,0.1985,0.0716,-0.0151,-0.1147,-0.2311,-0.2475,-0.2514,-0.2514,-0.2514,-0.2514,-0.2514,-0.2514,-0.2514,-0.2514,-0.2514,-0.2514,-0.2514,-0.2515,-0.2532,-0.26,-0.2603,-0.2618,-0.2604,-0.2605,-0.2623,-0.2607,-0.2607,-0.2625,-0.2692,-0.2692,-0.2692,-0.2688,-0.2618,-0.2626,-0.2692,-0.1127,-0.1492,-0.1774,-0.1653,-0.1471,-0.1296,-0.1296,-0.1296,-0.1414,-0.1689,-0.1728,-0.1846,-0.216,-0.2278,-0.2357,-0.2357,-0.2435,-0.2514,-0.2514,-0.2514,-0.2514,-0.2514,-0.2514,-0.2514,-0.2514,-0.2514,-0.2514,-0.2514,-0.2514,-0.2514,-0.2514,-0.2514,-0.2514,-0.2514,-0.2514,-0.2514,-0.2514,-0.2514,-0.2514,-0.2514,-0.2514,-0.1924,-0.1177,-0.2121,-0.1728,-0.0784,-0.2042,-0.2514,-0.2514,-0.2514,-0.2514,-0.2514,-0.2514,-0.2514,-0.2514,-0.2514,-0.2514,-0.2514,-0.2514,-0.2508,-0.2185,-0.0928,-0.0616,0.0191,0.3244,0.4099,0.4734,0.6477,0.7145,0.7533,0.7833,0.8039,0.8309,0.0,0.0,0.0,0.0,0.0,0.8579,0.8285,0.6268,0.4105,0.2047,0.0827,-0.019,-0.1084,-0.1993,-0.2514,-0.2514,-0.2514,-0.2514,-0.2514,-0.2514,-0.2514,-0.2514,-0.2514,-0.2514,-0.2515,-0.2537,-0.2592,-0.2602,-0.2605,-0.2587,-0.2595,-0.266,-0.2673,-0.2682,-0.2682,-0.2686,-0.2692,-0.2692,-0.2692,-0.2691,-0.2684,-0.2686,-0.2692,-0.1626,-0.1953,-0.2278,-0.2278,-0.2051,-0.1871,-0.1862,-0.1868,-0.1951,-0.2179,-0.2218,-0.2297,-0.2534,-0.2522,-0.2514,-0.2514,-0.2514,-0.2514,-0.2514,-0.2514,-0.2514,-0.2514,-0.2514,-0.2514,-0.2514,-0.2514,0.0,-0.2514,-0.2514,-0.2514,-0.2514,-0.2514,-0.2514,-0.2514,-0.2514,-0.2514,-0.2514,-0.2514,-0.2514,-0.2514,-0.2514,-0.2081,0.0,-0.2239,-0.2042,-0.153,-0.2239,-0.2514,-0.2514,-0.2514,-0.2514,-0.2514,-0.2514,-0.2514,-0.2514,-0.2514,-0.2514,-0.2514,-0.2514,-0.2081,-0.149,-0.0778,-0.0194,0.0852,0.3249,0.3736,0.4185,0.583,0.6427,0.6901,0.7671,0.8035,0.8448,0.0,0.0,0.0,0.0,0.0,0.0,0.9302,0.812,0.6686,0.4994,0.2066,0.0191,0.0154,-0.1326,-0.1924,-0.1177,-0.1845,-0.2318,-0.2475,-0.2514,-0.2514,-0.2514,-0.2514,-0.2521,-0.2534,-0.2592,-0.2613,-0.2598,-0.2591,-0.2613,-0.2626,-0.2475,-0.2398,-0.2398,-0.2188,-0.2103,-0.2103,-0.2103,-0.2103,-0.2103,-0.2103,-0.223,-0.2356,-0.2002,-0.2329,-0.2613,-0.2613,-0.2613,-0.2604,-0.2615,-0.2589,-0.2593,-0.2608,-0.2606,-0.2606,-0.2606,-0.2541,-0.2526,-0.2526,-0.2526,-0.2526,-0.2526,-0.2526,-0.2526,-0.2526,-0.2522,-0.2521,-0.2521,-0.2517,-0.2514,0.0,-0.2514,-0.2514,-0.2514,-0.2514,-0.2514,-0.2514,-0.2514,-0.2514,-0.2515,-0.2518,-0.2521,-0.2521,-0.2525,-0.2526,-0.2526,-0.2526,-0.2526,-0.2526,-0.2526,-0.2521,-0.2514,-0.2514,-0.2514,-0.2514,-0.2514,-0.2514,-0.2475,-0.2318,-0.2239,-0.22,-0.2043,-0.1177,-0.0314,-0.0157,0.0706,0.1838,0.3059,0.3321,0.3542,0.4611,0.5401,0.6153,0.7121,0.7908,0.8624,0.0,0.0,0.0,0.0,0.0,0.0,0.0,0.9159,0.0,0.8055,0.361,0.1037,0.1688,-0.0039,-0.0628,0.0548,-0.0784,-0.1845,-0.2475,-0.2514,-0.2514,-0.2514,-0.2518,-0.2533,-0.26,-0.2607,-0.2598,-0.2606,-0.2527,-0.2542,-0.2566,-0.2104,-0.1892,-0.1892,-0.1472,-0.1304,-0.1304,-0.1262,-0.1093,-0.0925,-0.0841,-0.0925,-0.1135,-0.1921,-0.2383,-0.2676,-0.2676,-0.2676,-0.2667,-0.2595,-0.2615,-0.26,-0.2596,-0.2594,-0.2594,-0.2594,-0.2589,-0.2586,-0.2586,-0.2586,-0.2586,-0.2586,-0.2586,-0.2586,-0.2586,-0.2564,-0.2592,-0.2592,-0.2527,-0.2514,-0.2514,-0.2514,-0.2514,-0.2514,-0.2514,-0.2514,-0.2514,-0.2514,-0.2514,-0.2517,-0.2541,-0.2592,-0.2593,-0.2577,-0.2586,-0.2586,-0.2586,-0.2586,-0.2586,-0.2586,-0.2555,-0.2514,-0.2514,-0.2514,-0.2514,-0.2514,-0.2514,-0.2278,-0.1256,-0.0941,-0.0706,0.0353,0.0784,0.1216,0.2197,0.2629,0.3098,0.4381,0.4654,0.473,0.4914,0.5067,0.5593,0.7034,0.8465,0.9478,0.9606,0.9643,0.9643,0.0,0.0,0.0,0.0,0.0,0.7505,0.7358,0.6145,0.5147,0.4696,0.3515,0.2152,0.0666,0.0313,-0.0666,-0.2435,-0.2514,-0.2514,-0.2514,-0.254,-0.2595,-0.26,-0.2608,-0.2595,-0.2606,-0.2255,-0.2099,-0.2103,-0.164,-0.143,-0.143,-0.1346,-0.1304,-0.1262,-0.0926,-0.0126,0.0924,0.1722,0.2645,0.3063,-0.2312,-0.2524,-0.2692,-0.2692,-0.2692,-0.2687,-0.2673,-0.2658,-0.2643,-0.2586,-0.2585,-0.2585,-0.2585,-0.2611,-0.2601,-0.2601,-0.2601,-0.2601,-0.2601,-0.2601,-0.2601,-0.2601,-0.2589,-0.2582,-0.2582,-0.2567,-0.256,-0.256,-0.256,-0.2552,-0.2537,-0.2537,-0.2537,-0.2538,-0.2553,-0.256,-0.256,-0.2575,-0.2582,-0.2583,-0.2596,-0.2601,-0.2601,-0.2601,-0.2601,-0.2601,-0.2601,-0.2583,-0.256,-0.256,-0.256,-0.256,-0.256,-0.256,-0.2436,-0.1826,-0.1625,-0.1345,-0.0039,0.0784,0.1608,0.2786,0.3609,0.4236,0.4865,0.4983,0.4983,0.4983,0.4983,0.5468,0.7018,0.8312,0.925,0.9645,0.9709,0.9709,0.9709,0.0,0.9687,0.0,0.0,0.0,0.85,0.8318,0.773,0.6591,0.4998,0.3677,0.2623,0.1762,0.0314,-0.1807,-0.1886,-0.1891,-0.1863,-0.1914,-0.1932,-0.1914,-0.1935,-0.1909,-0.192,-0.172,-0.164,-0.1598,-0.1178,-0.0968,-0.0884,0.0294,0.1344,0.2183,0.2394,0.2855,0.3484,0.3946,0.4491,0.4782,-0.2566,-0.265,-0.2692,-0.2692,-0.2692,-0.2692,-0.2692,-0.2692,-0.2684,-0.2618,-0.2615,-0.2615,-0.2615,-0.2635,-0.262,-0.262,-0.262,-0.262,-0.262,-0.262,-0.262,-0.262,-0.2615,-0.2612,-0.2612,-0.2605,-0.2601,-0.2601,-0.2601,-0.2587,-0.26,-0.2606,-0.2608,-0.261,-0.2592,-0.2601,-0.2602,-0.2608,-0.2612,-0.2612,-0.2619,-0.2456,-0.2211,-0.2497,-0.2456,-0.2211,-0.2211,-0.2211,-0.217,-0.1883,-0.2121,-0.256,-0.2276,-0.2195,-0.207,-0.1528,-0.1364,-0.104,0.0277,0.1341,0.2323,0.3269,0.4284,0.4983,0.4983,0.4983,0.4983,0.4983,0.5139,0.5708,0.708,0.8073,0.8894,0.9645,0.978,0.978,0.978,0.978,0.0,0.0,0.0,0.0,0.9704,0.9786,0.931,0.8137,0.6502,0.5402,0.4972,0.3679,0.1998,-0.0157,-0.0235,-0.0197,-0.02,-0.02,-0.0365,-0.0745,-0.0747,-0.0959,-0.1304,-0.0799,-0.0588,-0.0546,0.0252,0.0589,0.0715,0.252,0.4113,0.5413,0.5413,0.5622,0.5957,0.5957,0.6208,0.6543,-0.2146,-0.2398,-0.2692,-0.2692,-0.2692,-0.2692,-0.2692,-0.2692,-0.2691,-0.2688,-0.2688,-0.2688,-0.2688,-0.2686,-0.2684,-0.2684,-0.2684,-0.2684,-0.2684,-0.2684,-0.2684,-0.2684,-0.2615,-0.2602,-0.2602,-0.2616,-0.2601,-0.2601,-0.2601,-0.2587,-0.26,-0.2586,-0.2598,-0.2598,-0.2601,-0.2601,-0.2604,-0.259,-0.2602,-0.2603,-0.2673,-0.197,-0.1006,-0.2222,-0.1929,-0.088,-0.088,-0.088,-0.0712,0.0545,-0.062,-0.2398,-0.1178,-0.0772,-0.0325,0.2069,0.2756,0.304,0.4293,0.4703,0.4785,0.4905,0.4944,0.4983,0.4983,0.4983,0.4983,0.4983,0.5645,0.6427,0.7318,0.8175,0.9032,0.9837,0.9987,0.9987,0.9987,0.9987,0.9943,0.9796,0.0,0.0,0.9786,0.9791,0.9807,0.9759,0.9581,0.8647,0.6768,0.6531,0.5474,0.3402,0.3324,0.3344,0.3423,0.342,0.2649,0.1157,0.1085,0.021,-0.122,0.0756,0.168,0.1806,0.3904,0.4826,0.4826,0.5077,0.5245,0.5413,0.5413,0.6417,0.7843,0.7843,0.8845,1.019,-0.244,-0.2566,-0.2692,-0.2692,-0.2692,-0.2692,-0.2692,-0.2692,-0.2692,-0.2692,-0.2692,-0.2692,-0.2692,-0.2692,-0.2692,-0.2692,-0.2692,-0.2692,-0.2692,-0.2692,-0.2692,-0.2692,-0.2682,-0.2675,-0.2675,-0.2662,-0.2656,-0.2656,-0.2656,-0.2641,-0.2612,-0.2582,-0.2587,-0.2589,-0.2647,-0.2656,-0.2657,-0.2669,-0.2214,-0.1463,-0.147,-0.0715,0.0462,-0.0084,0.0042,0.0504,0.0504,0.0504,0.0588,0.1134,0.0585,-0.0166,0.0373,0.0539,0.0745,0.1851,0.2176,0.2418,0.3703,0.4048,0.4194,0.4965,0.5147,0.5131,0.5131,0.5101,0.5076,0.5076,0.5322,0.5922,0.7252,0.7799,0.8462,0.9786,0.998,0.998,0.998,0.998,0.0,0.9915,0.0,0.991,0.991,0.991,0.9926,0.9975,0.998,0.9197,0.7357,0.7279,0.6417,0.4578,0.4608,0.4651,0.4668,0.4763,0.445,0.3793,0.3768,0.3399,0.277,0.3652,0.3442,0.2478,0.3402,0.4407,0.5413,0.5413,0.6668,0.8595,0.8595,0.9017,0.9643,0.9643,1.0106,1.0695,-0.2692,-0.2692,-0.2692,-0.2692,-0.2692,-0.2692,-0.2692,-0.2692,-0.2692,-0.2692,-0.2692,-0.2692,-0.2692,-0.2692,-0.2692,-0.2692,-0.2692,-0.2692,-0.2692,-0.2692,-0.2692,-0.2692,-0.2692,-0.2692,-0.2692,-0.2692,-0.2692,-0.2692,-0.2692,-0.2676,-0.2606,-0.2606,-0.261,-0.262,-0.2683,-0.2482,-0.2104,-0.2104,-0.1346,-0.0126,-0.0126,0.0714,0.189,0.147,0.1554,0.1932,0.1932,0.1932,0.1974,0.2352,0.252,0.2436,0.2058,0.1932,0.2013,0.2457,0.2577,0.2779,0.366,0.3888,0.4123,0.5025,0.5215,0.5202,0.5202,0.5169,0.5139,0.5139,0.509,0.5479,0.6895,0.7346,0.7955,0.9397,0.9825,0.998,0.998,0.998,0.0,0.998,0.998,0.998,0.998,0.998,0.998,0.998,1.0052,0.9506,0.8297,0.8285,0.7754,0.6573,0.6644,0.6763,0.6801,0.6898,0.6677,0.6208,0.6208,0.5915,0.5413,0.5957,0.5496,0.4323,0.4826,0.5496,0.625,0.6752,0.8428,1.0695,1.0695,1.0695,1.0695,1.0695,1.0695,1.0695,-0.2692,-0.2692,-0.2692,-0.2692,-0.2692,-0.2692,-0.2692,-0.2692,-0.2692,-0.2692,-0.2692,-0.2692,-0.2692,-0.2692,-0.2692,-0.2692,-0.2692,-0.2692,-0.2692,-0.2692,-0.2692,-0.2692,-0.2692,-0.2692,-0.2692,-0.2692,-0.2692,-0.2692,-0.2692,-0.2676,-0.2606,-0.2606,-0.2621,-0.2691,-0.2692,-0.1976,-0.0715,-0.0715,0.0042,0.126,0.126,0.21,0.3236,0.1848,0.2184,0.3362,0.3362,0.3362,0.3572,0.492,0.5342,0.5132,0.3784,0.3362,0.3614,0.4962,0.5342,0.534,0.5382,0.5338,0.5292,0.5292,0.5248,0.5202,0.5202,0.5202,0.5202,0.5202,0.5153,0.5348,0.6267,0.6996,0.7799,0.8661,0.948,0.998,0.998,0.998,0.998,0.998,0.998,0.998,0.998,0.998,0.998,0.998,1.0134,1.015,0.9986,1.0094,1.0159,1.012,1.0278,1.0397,1.0511,1.0552,0.97,0.8052,0.8052,0.7129,0.5454,0.7254,0.8052,0.8136,0.9856,0.9643,0.8219,0.994,1.0654,1.0695,1.0695,1.0695,1.0695,1.0695,1.0695,1.0695,-0.2692,-0.2692,-0.2692,-0.2692,-0.2692,-0.2692,-0.2692,-0.2692,-0.2692,-0.2692,-0.2692,-0.2692,-0.2692,-0.2692,-0.2692,-0.2692,-0.2692,-0.2692,-0.2692,-0.2692,-0.2692,-0.2692,-0.2692,-0.2692,-0.2692,-0.2692,-0.2692,-0.2692,-0.2692,-0.2687,-0.2677,-0.2677,-0.2683,-0.2692,-0.2692,-0.1934,-0.0715,-0.0715,0.0631,0.273,0.273,0.2984,0.3362,0.3194,0.3236,0.353,0.4453,0.4749,0.5004,0.6682,0.643,0.5426,0.5589,0.5253,0.4836,0.5258,0.5384,0.5384,0.5384,0.5371,0.5357,0.5357,0.5341,0.5327,0.5327,0.5294,0.5254,0.521,0.5188,0.5615,0.7102,0.7565,0.8184,0.9671,1.004,1.0144,1.0144,1.0074,0.998,0.998,0.998,1.0052,1.0139,1.0144,1.0177,1.0264,1.0307,1.0275,1.015,1.0259,1.0329,1.0329,1.0484,1.056,1.0599,1.0639,1.0408,0.9856,0.9856,0.8933,0.7254,0.7843,0.7421,0.6376,0.8136,0.8595,0.8136,0.8678,0.9643,1.0695,1.0695,1.0695,1.0695,1.0695,1.0695,1.0695,-0.2692,-0.2692,-0.2692,-0.2692,-0.2692,-0.2692,-0.2692,-0.2692,-0.2692,-0.2692,-0.2692,-0.2692,-0.2692,-0.2692,-0.2692,-0.2692,-0.2692,-0.2692,-0.2692,-0.2692,-0.2692,-0.2692,-0.2692,-0.2692,-0.2692,-0.2692,-0.2692,-0.2692,-0.2692,-0.2692,-0.2692,-0.2692,-0.2692,-0.2692,-0.2188,-0.122,0.0042,0.0042,0.1639,0.4078,0.3026,0.2942,0.3404,0.3279,0.3111,0.3111,0.4789,0.5379,0.5675,0.7474,0.7097,0.5969,0.6511,0.6343,0.5843,0.551,0.5384,0.5384,0.5384,0.5384,0.5384,0.5384,0.5384,0.5384,0.5384,0.5354,0.5316,0.5278,0.5254,0.5683,0.707,0.7608,0.8276,0.9698,1.0118,1.0275,1.0275,1.0204,1.0161,1.0161,1.0161,1.0188,1.0264,1.0275,1.0302,1.0378,1.0468,1.0457,1.034,1.0446,1.0489,1.0489,1.0563,1.0623,1.0623,1.0699,1.0695,1.0695,1.0695,0.9773,0.8136,0.8766,0.8094,0.6501,0.8303,0.872,0.8136,0.8808,0.9731,1.0695,1.0695,1.0695,1.0695,1.0695,1.0695,1.0695,-0.2692,-0.2692,-0.2692,-0.2692,-0.2692,-0.2692,-0.2692,-0.2692,-0.2692,-0.2692,-0.2692,-0.2692,-0.2692,-0.2692,-0.2692,-0.2692,-0.2692,-0.2692,-0.2692,-0.2692,-0.2692,-0.2692,-0.2692,-0.2692,-0.2692,-0.2692,-0.2692,-0.2692,-0.2692,-0.2692,-0.2692,-0.2692,-0.2692,-0.265,-0.1388,-0.0084,0.1176,0.1176,0.269,0.4922,0.2394,0.21,0.3152,0.2397,0.2103,0.2397,0.4747,0.5586,0.5879,0.7684,0.76,0.6804,0.6888,0.6846,0.6637,0.5759,0.5552,0.5594,0.5594,0.5594,0.5594,0.5594,0.5594,0.5552,0.5426,0.5468,0.551,0.551,0.5421,0.5672,0.6622,0.7419,0.8212,0.9066,0.9875,1.04,1.04,1.0394,1.0384,1.0384,1.0384,1.0389,1.04,1.04,1.04,1.0411,1.0549,1.0609,1.0609,1.0609,1.0609,1.0609,1.0677,1.0695,1.0695,1.0695,1.0695,1.0695,1.057,0.9684,0.8136,0.9773,0.9643,0.8177,0.994,0.9773,0.8386,1.0023,1.0695,1.0695,1.0695,1.0695,1.0695,1.0695,1.0695,1.0695,-0.2692,-0.2692,-0.2692,-0.2692,-0.2692,-0.2692,-0.2692,-0.2692,-0.2692,-0.2692,-0.2692,-0.2692,-0.2692,-0.2692,-0.2692,-0.2692,-0.2692,-0.2692,-0.2692,-0.2692,-0.2692,-0.2692,-0.2692,-0.2692,-0.2692,-0.2692,-0.2692,-0.2692,-0.2692,-0.2692,-0.2692,-0.2692,-0.2692,-0.2692,-0.2356,-0.1472,-0.021,-0.021,0.0967,0.2734,0.2103,0.164,0.1513,0.2982,0.3318,0.3442,0.6417,0.7471,0.7725,0.9481,0.9063,0.7893,0.8566,0.8311,0.76,0.6679,0.6888,0.7478,0.7478,0.7478,0.7478,0.7478,0.7478,0.7101,0.572,0.5927,0.6385,0.6385,0.6372,0.686,0.8448,0.8888,0.9326,1.0195,1.0451,1.0555,1.0555,1.0443,1.0384,1.0384,1.0384,1.0422,1.0549,1.0555,1.0552,1.0645,1.0677,1.0693,1.0693,1.0693,1.0693,1.0693,1.0679,1.0695,1.0695,1.0695,1.0695,1.0695,0.9351,0.8511,0.8094,0.8511,0.847,0.8177,0.994,1.0487,1.0106,1.0529,1.0695,1.0695,1.0695,1.0695,1.0695,1.0695,1.0695,1.0695,-0.2692,-0.2692,-0.2692,-0.2692,-0.2692,-0.2692,-0.2692,-0.2692,-0.2692,-0.2692,-0.2692,-0.2692,-0.2692,-0.2692,-0.2692,-0.2692,-0.2692,-0.2692,-0.2692,-0.2692,-0.2692,-0.2692,-0.2692,-0.2692,-0.2692,-0.2692,-0.2692,-0.2692,-0.2692,-0.2692,-0.2692,-0.2692,-0.2692,-0.2692,-0.2061,-0.1388,-0.0673,-0.0463,0.1009,0.3152,0.2102,0.2268,0.3191,0.4029,0.4195,0.4363,0.7129,0.8094,0.8349,1.0106,0.982,0.8775,0.9235,0.9068,0.8608,0.8102,0.8018,0.8102,0.8102,0.8102,0.8102,0.8102,0.8102,0.7855,0.685,0.7014,0.7349,0.7349,0.7349,0.7767,0.9151,0.9407,0.9699,1.057,1.0683,1.0639,1.0639,1.0585,1.0547,1.0547,1.0547,1.0568,1.0634,1.0639,1.0666,1.069,1.0695,1.0695,1.0695,1.0695,1.0695,1.0695,1.0695,1.0695,1.0695,1.0695,1.0315,0.9518,0.9351,0.8892,0.8136,0.8933,0.9267,0.9351,1.0273,1.0695,1.0695,1.0695,1.0695,1.0695,1.0695,1.0695,1.0695,1.0695,1.0695,1.0695,-0.2692,-0.2692,-0.2692,-0.2692,-0.2692,-0.2692,-0.2692,-0.2692,-0.2692,-0.2692,-0.2692,-0.2692,-0.2692,-0.2692,-0.2692,-0.2692,-0.2692,-0.2692,-0.2692,-0.2692,-0.2692,-0.2692,-0.2692,-0.265,-0.2608,-0.2524,-0.2482,-0.2482,-0.2482,-0.2482,-0.2482,-0.2482,-0.2482,-0.244,-0.1304,-0.0631,-0.0378,0.0042,0.1932,0.4535,0.2603,0.3441,0.587,0.541,0.52,0.5494,0.7714,0.8511,0.872,1.019,1.0195,0.9616,0.9616,0.9616,0.9616,0.9616,0.9068,0.8478,0.8478,0.8478,0.8478,0.8315,0.8395,0.8436,0.8144,0.8186,0.8311,0.8311,0.8311,0.8566,0.9444,0.9616,0.982,1.057,1.0695,1.0695,1.0695,1.0695,1.0695,1.0695,1.0695,1.0695,1.0695,1.0695,1.0695,1.0695,1.0695,1.0695,1.0695,1.0695,1.0695,1.0695,1.0695,1.0695,1.0695,1.0695,0.994,0.8511,0.9981,0.994,0.8553,1.0023,1.0695,1.0695,1.0695,1.0695,1.0695,1.0695,1.0695,1.0695,1.0695,1.0695,1.0695,1.0695,1.0695,1.0695,-0.2692,-0.2692,-0.2692,-0.2692,-0.2692,-0.2692,-0.2692,-0.2692,-0.2692,-0.2692,-0.2692,-0.2692,-0.2692,-0.2692,-0.2692,-0.2692,-0.2692,-0.2692,-0.2692,-0.2692,-0.2692,-0.2692,-0.2692,-0.2524,-0.2104,-0.1724,-0.1514,-0.1514,-0.1514,-0.1514,-0.1514,-0.1514,-0.1514,-0.1514,-0.1304,-0.0378,0.1008,0.105,0.2477,0.4656,0.4321,0.4698,0.5664,0.7045,0.7588,0.7797,0.9643,1.0315,1.0357,1.0612,1.0612,1.0487,1.0487,1.0487,1.0487,1.0487,1.0404,1.032,1.032,1.032,1.0112,0.936,0.9736,0.9903,0.8436,0.865,0.9198,0.9198,0.9198,0.9444,1.032,1.0487,1.0529,1.0695,1.0695,1.0695,1.0695,1.0695,1.0695,1.0695,1.0695,1.0695,1.0695,1.0695,1.0695,1.0695,1.0695,1.0695,1.0695,1.0695,1.0695,1.0695,1.0695,1.0695,1.0695,1.0695,1.057,1.0315,1.057,1.057,1.0315,1.057,1.0695,1.0695,1.0695,1.0695,1.0695,1.0695,1.0695,1.0695,1.0695,1.0695,1.0695,1.0695,1.0695,1.0695,-0.2692,-0.2692,-0.2692,-0.2692,-0.2692,-0.2692,-0.2692,-0.2692,-0.2692,-0.2692,-0.2692,-0.2692,-0.2692,-0.2692,-0.2692,-0.2692,-0.2692,-0.2692,-0.2692,-0.2692,-0.2692,-0.2692,-0.2692,-0.2482,-0.2018,-0.1556,-0.1304,-0.1304,-0.1304,-0.1304,-0.1304,-0.1304,-0.1304,-0.1304,-0.1304,-0.0336,0.1302,0.1554,0.3399,0.6163,0.6414,0.7212,0.8344,0.9184,0.9518,0.9601,1.0398,1.0695,1.0695,1.0695,1.0695,1.0695,1.0695,1.0695,1.0695,1.0695,1.0695,1.0695,1.0695,1.0695,1.0612,1.0195,1.0404,1.0487,0.9694,0.982,1.0112,1.0112,1.0112,1.0237,1.0612,1.0695,1.0695,1.0695,1.0695,1.0695,1.0695,1.0695,1.0695,1.0695,1.0695,1.0695,1.0695,1.0695,1.0695,1.0695,1.0695,1.0695,1.0695,1.0695,1.0695,1.0695,1.0695,1.0695,1.0695,1.0695,1.0695,1.0695,1.0695,1.0695,1.0695,1.0695,1.0695,1.0695,1.0695,1.0695,1.0695,1.0695,1.0695,1.0695,1.0695,1.0695,1.0695,1.0695,1.0695,1.0695,-0.2692,-0.2692,-0.2692,-0.2692,-0.2692,-0.2692,-0.2692,-0.2692,-0.2692,-0.2692,-0.2692,-0.2692,-0.2692,-0.2692,-0.2692,-0.2692,-0.2692,-0.2692,-0.2692,-0.2692,-0.2692,-0.2692,-0.2482,-0.2188,-0.185,-0.1304,-0.1009,-0.1009,-0.1009,-0.1009,-0.1009,-0.1009,-0.1009,-0.1009,-0.1009,0.021,0.2267,0.2645,0.4865,0.8215,0.8553,0.9518,1.0695,1.0695,1.0695,1.0695,1.0695,1.0695,1.0695,1.0695,1.0695,1.0695,1.0695,1.0695,1.0695,1.0695,1.0695,1.0695,1.0695,1.0695,1.0695,1.0695,1.0695,1.0695,1.0695,1.0695,1.0695,1.0695,1.0695,1.0695,1.0695,1.0695,1.0695,1.0695,1.0695,1.0695,1.0695,1.0695,1.0695,1.0695,1.0695,1.0695,1.0695,1.0695,1.0695,1.0695,1.0695,1.0695,1.0695,1.0695,1.0695,1.0695,1.0695,1.0695,1.0695,1.0695,1.0695,1.0695,1.0695,1.0695,1.0695,1.0695,1.0695,1.0695,1.0695,1.0695,1.0695,1.0695,1.0695,1.0695,1.0695,1.0695,1.0695,1.0695,1.0695,1.0695,-0.2692,-0.2692,-0.2692,-0.2692,-0.2692,-0.2692,-0.2692,-0.2692,-0.2692,-0.2692,-0.2692,-0.2692,-0.2692,-0.2692,-0.2692,-0.2692,-0.2692,-0.2692,-0.2692,-0.2692,-0.2692,-0.2692,-0.185,-0.1388,-0.1346,-0.0547,-0.0084,-0.0084,-0.0084,-0.0084,-0.0084,-0.0084,-0.0084,-0.0084,-0.0084,0.1849,0.5119,0.5119,0.7212,1.044,1.0482,1.057,1.0695,1.0695,1.0695,1.0695,1.0695,1.0695,1.0695,1.0695,1.0695,1.0695,1.0695,1.0695,1.0695,1.0695,1.0695,1.0695,1.0695,1.0695,1.0695,1.0695,1.0695,1.0695,1.0695,1.0695,1.0695,1.0695,1.0695,1.0695,1.0695,1.0695,1.0695,1.0695,1.0695,1.0695,1.0695,1.0695,1.0695,1.0695,1.0695,1.0695,1.0695,1.0695,1.0695,1.0695,1.0695,1.0695,1.0695,1.0695,1.0695,1.0695,1.0695,1.0695,1.0695,1.0695,1.0695,1.0695,1.0695,1.0695,1.0695,1.0695,1.0695,1.0695,1.0695,1.0695,1.0695,1.0695,1.0695,1.0695,1.0695,1.0695,1.0695,1.0695,1.0695,1.0695,-0.2692,-0.2692,-0.2692,-0.2692,-0.2692,-0.2692,-0.2692,-0.2692,-0.2692,-0.2692,-0.2692,-0.2692,-0.2692,-0.2692,-0.2692,-0.2692,-0.2692,-0.2692,-0.2692,-0.2692,-0.2566,-0.2272,-0.164,-0.1178,-0.0926,-0.0337,0.0,0.0,0.0,0.0,0.0,0.0,0.0,0.0042,0.1178,0.3066,0.5454,0.6585,0.847,1.0695,1.0695,1.0695,1.0695,1.0695,1.0695,1.0695,1.0695,1.0695,1.0695,1.0695,1.0695,1.0695,1.0695,1.0695,1.0695,1.0695,1.0695,1.0695,1.0695,1.0695,1.0695,1.0695,1.0695,1.0695,1.0695,1.0695,1.0695,1.0695,1.0695,1.0695,1.0695,1.0695,1.0695,1.0695,1.0695,1.0695,1.0695,1.0695,1.0695,1.0695,1.0695,1.0695,1.0695,1.0695,1.0695,1.0695,1.0695,1.0695,1.0695,1.0695,1.0695,1.0695,1.0695,1.0695,1.0695,1.0695,1.0695,1.0695,1.0695,1.0695,1.0695,1.0695,1.0695,1.0695,1.0695,1.0695,1.0695,1.0695,1.0695,1.0695,1.0695,1.0695,1.0695,1.0695,1.0695,1.0695,-0.2692,-0.2692,-0.2692,-0.2692,-0.2692,-0.2692,-0.2692,-0.2692,-0.2692,-0.2692,-0.2692,-0.2692,-0.2692,-0.2692,-0.2692,-0.2692,-0.2692,-0.2692,-0.2692,-0.2692,-0.2482,-0.2018,-0.1556,-0.1094,-0.0716,-0.0253,0.0,0.0,0.0,0.0,0.0,0.0,0.0,0.0084,0.1891,0.3696,0.5538,0.7338,0.91,1.0695,1.0695,1.0695,1.0695,1.0695,1.0695,1.0695,1.0695,1.0695,1.0695,1.0695,1.0695,1.0695,1.0695,1.0695,1.0695,1.0695,1.0695,1.0695,1.0695,1.0695,1.0695,1.0695,1.0695,1.0695,1.0695,1.0695,1.0695,1.0695,1.0695,1.0695,1.0695,1.0695,1.0695,1.0695,1.0695,1.0695,1.0695,1.0695,1.0695,1.0695,1.0695,1.0695,1.0695,1.0695,1.0695,1.0695,1.0695,1.0695,1.0695,1.0695,1.0695,1.0695,1.0695,1.0695,1.0695,1.0695,1.0695,1.0695,1.0695,1.0695,1.0695,1.0695,1.0695,1.0695,1.0695,1.0695,1.0695,1.0695,1.0695,1.0695,1.0695,1.0695,1.0695,1.0695,1.0695,1.0695,-0.2692,-0.2692,-0.2692,-0.2692,-0.2692,-0.2692,-0.2692,-0.2692,-0.2692,-0.2692,-0.2692,-0.2692,-0.2692,-0.2692,-0.2692,-0.2692,-0.2692,-0.2692,-0.2692,-0.2692,-0.2482,-0.2018,-0.1556,-0.1094,-0.0716,-0.0253,0.0,0.0,0.0,0.0,0.0,0.0,0.0,0.0084,0.1933,0.3736,0.5538,0.7341,0.91,1.0695,1.0695,1.0695,1.0695,1.0695,1.0695,1.0695,1.0695,1.0695,1.0695,1.0695,1.0695,1.0695,1.0695,1.0695,1.0695,1.0695,1.0695,1.0695,1.0695,1.0695,1.0695,1.0695,1.0695,1.0695,1.0695,1.0695,1.0695,1.0695,1.0695,1.0695,1.0695,1.0695,1.0695,1.0695,1.0695,1.0695,1.0695,1.0695,1.0695,1.0695,1.0695,1.0695,1.0695,1.0695,1.0695,1.0695,1.0695,1.0695,1.0695,1.0695,1.0695,1.0695,1.0695,1.0695,1.0695,1.0695,1.0695,1.0695,1.0695,1.0695,1.0695,1.0695,1.0695,1.0695,1.0695,1.0695,1.0695,1.0695,1.0695,1.0695,1.0695,1.0695,1.0695,1.0695,1.0695,1.0695,-0.2692,-0.2692,-0.2692,-0.2692,-0.2692,-0.2692,-0.2692,-0.2692,-0.2692,-0.2692,-0.2692,-0.2692,-0.2692,-0.2692,-0.2692,-0.2692,-0.2692,-0.2692,-0.2692,-0.2398,-0.2018,-0.1514,-0.1388,-0.0968,-0.021,-0.0084,0.0,0.0,0.0,0.0,0.0,0.0,0.0673,0.1975,0.378,0.558,0.7421,0.9184,1.0232,1.0695,1.0695,1.0695,1.0695,1.0695,1.0695,1.0695,1.0695,1.0695,1.0695,1.0695,1.0695,1.0695,1.0695,1.0695,1.0695,1.0695,1.0695,1.0695,1.0695,1.0695,1.0695,1.0695,1.0695,1.0695,1.0695,1.0695,1.0695,1.0695,1.0695,1.0695,1.0695,1.0695,1.0695,1.0695,1.0695,1.0695,1.0695,1.0695,1.0695,1.0695,1.0695,1.0695,1.0695,1.0695,1.0695,1.0695,1.0695,1.0695,1.0695,1.0695,1.0695,1.0695,1.0695,1.0695,1.0695,1.0695,1.0695,1.0695,1.0695,1.0695,1.0695,1.0695,1.0695,1.0695,1.0695,1.0695,1.0695,1.0695,1.0695,1.0695,1.0695,1.0695,1.0695,1.0695,1.0695,1.0695,-0.2692,-0.2692,-0.2692,-0.2692,-0.2692,-0.2692,-0.2692,-0.2692,-0.2692,-0.2692,-0.2692,-0.2692,-0.2692,-0.2692,-0.2692,-0.2692,-0.2692,-0.2608,-0.244,-0.2146,-0.1725,-0.1094,-0.1052,-0.0715,0.0,0.0,0.0,0.0,0.0,0.0,0.0,0.0715,0.164,0.2814,0.5329,0.7087,0.8219,0.994,1.0695,1.0695,1.0695,1.0695,1.0695,1.0695,1.0695,1.0695,1.0695,1.0695,1.0695,1.0695,1.0695,1.0695,1.0695,1.0695,1.0695,1.0695,1.0695,1.0695,1.0695,1.0695,1.0695,1.0695,1.0695,1.0695,1.0695,1.0695,1.0695,1.0695,1.0695,1.0695,1.0695,1.0695,1.0695,1.0695,1.0695,1.0695,1.0695,1.0695,1.0695,1.0695,1.0695,1.0695,1.0695,1.0695,1.0695,1.0695,1.0695,1.0695,1.0695,1.0695,1.0695,1.0695,1.0695,1.0695,1.0695,1.0695,1.0695,1.0695,1.0695,1.0695,1.0695,1.0695,1.0695,1.0695,1.0695,1.0695,1.0695,1.0695,1.0695,1.0695,1.0695,1.0695,1.0695,1.0695,1.0695,1.0695,-0.2692,-0.2692,-0.2692,-0.2692,-0.2692,-0.2692,-0.2692,-0.2692,-0.2692,-0.2692,-0.2692,-0.2692,-0.2692,-0.2692,-0.2692,-0.2692,-0.2692,-0.2524,-0.2103,-0.1976,-0.1599,-0.08,-0.0674,-0.0421,0.0,0.0,0.0,0.0,0.0,0.0,0.0042,0.1849,0.2772,0.3108,0.6543,0.8177,0.8428,1.0023,1.0695,1.0695,1.0695,1.0695,1.0695,1.0695,1.0695,1.0695,1.0695,1.0695,1.0695,1.0695,1.0695,1.0695,1.0695,1.0695,1.0695,1.0695,1.0695,1.0695,1.0695,1.0695,1.0695,1.0695,1.0695,1.0695,1.0695,1.0695,1.0695,1.0695,1.0695,1.0695,1.0695,1.0695,1.0695,1.0695,1.0695,1.0695,1.0695,1.0695,1.0695,1.0695,1.0695,1.0695,1.0695,1.0695,1.0695,1.0695,1.0695,1.0695,1.0695,1.0695,1.0695,1.0695,1.0695,1.0695,1.0695,1.0695,1.0695,1.0695,1.0695,1.0695,1.0695,1.0695,1.0695,1.0695,1.0695,1.0695,1.0695,1.0695,1.0695,1.0695,1.0695,1.0695,1.0695,1.0695,1.0695,1.0695,-0.2692,-0.2692,-0.2692,-0.2692,-0.2692,-0.2692,-0.2692,-0.2692,-0.2692,-0.2692,-0.2692,-0.2692,-0.2692,-0.2692,-0.2692,-0.2692,-0.2692,-0.265,-0.2566,-0.185,-0.1388,-0.1178,-0.0505,-0.0084,0.0,0.0,0.0,0.0,0.0,0.0,0.0042,0.1849,0.3444,0.491,0.7129,0.885,1.0148,1.0529,1.0695,1.0695,1.0695,1.0695,1.0695,1.0695,1.0695,1.0695,1.0695,1.0695,1.0695,1.0695,1.0695,1.0695,1.0695,1.0695,1.0695,1.0695,1.0695,1.0695,1.0695,1.0695,1.0695,1.0695,1.0695,1.0695,1.0695,1.0695,1.0695,1.0695,1.0695,1.0695,1.0695,1.0695,1.0695,1.0695,1.0695,1.0695,1.0695,1.0695,1.0695,1.0695,1.0695,1.0695,1.0695,1.0695,1.0695,1.0695,1.0695,1.0695,1.0695,1.0695,1.0695,1.0695,1.0695,1.0695,1.0695,1.0695,1.0695,1.0695,1.0695,1.0695,1.0695,1.0695,1.0695,1.0695,1.0695,1.0695,1.0695,1.0695,1.0695,1.0695,1.0695,1.0695,1.0695,1.0695,1.0695,1.0695,-0.2692,-0.2692,-0.2692,-0.2692,-0.2692,-0.2692,-0.2692,-0.2692,-0.2692,-0.2692,-0.2692,-0.2692,-0.2692,-0.2692,-0.2692,-0.2692,-0.2692,-0.2524,-0.2061,-0.1556,-0.1093,-0.0715,-0.0253,0.0,0.0,0.0,0.0,0.0,0.0,0.0,0.0042,0.273,0.4491,0.5496,0.8177,0.9856,1.0695,1.0695,1.0695,1.0695,1.0695,1.0695,1.0695,1.0695,1.0695,1.0695,1.0695,1.0695,1.0695,1.0695,1.0695,1.0695,1.0695,1.0695,1.0695,1.0695,1.0695,1.0695,1.0695,1.0695,1.0695,1.0695,1.0695,1.0695,1.0695,1.0695,1.0695,1.0695,1.0695,1.0695,1.0695,1.0695,1.0695,1.0695,1.0695,1.0695,1.0695,1.0695,1.0695,1.0695,1.0695,1.0695,1.0695,1.0695,1.0695,1.0695,1.0695,1.0695,1.0695,1.0695,1.0695,1.0695,1.0695,1.0695,1.0695,1.0695,1.0695,1.0695,1.0695,1.0695,1.0695,1.0695,1.0695,1.0695,1.0695,1.0695,1.0695,1.0695,1.0695,1.0695,1.0695,1.0695,1.0695,1.0695,1.0695,1.0695,-0.2692,-0.2692,-0.2692,-0.2692,-0.2692,-0.2692,-0.2692,-0.2692,-0.2692,-0.2692,-0.2692,-0.2692,-0.2692,-0.2692,-0.2692,-0.2692,-0.2692,-0.2356,-0.1598,-0.1388,-0.0967,-0.0253,-0.0084,0.0,0.0,0.0,0.0,0.0,0.0,0.0,0.0084,0.3696,0.5413,0.5538,0.91,1.0695,1.0695,1.0695,1.0695,1.0695,1.0695,1.0695,1.0695,1.0695,1.0695,1.0695,1.0695,1.0695,1.0695,1.0695,1.0695,1.0695,1.0695,1.0695,1.0695,1.0695,1.0695,1.0695,1.0695,1.0695,1.0695,1.0695,1.0695,1.0695,1.0695,1.0695,1.0695,1.0695,1.0695,1.0695,1.0695,1.0695,1.0695,1.0695,1.0695,1.0695,1.0695,1.0695,1.0695,1.0695,1.0695,1.0695,1.0695,1.0695,1.0695,1.0695,1.0695,1.0695,1.0695,1.0695,1.0695,1.0695,1.0695,1.0695,1.0695,1.0695,1.0695,1.0695,1.0695,1.0695,1.0695,1.0695,1.0695,1.0695,1.0695,1.0695,1.0695,1.0695,1.0695,1.0695,1.0695,1.0695,1.0695,1.0695,1.0695,1.0695,-0.2692,-0.2692,-0.2692,-0.2692,-0.2692,-0.2692,-0.2692,-0.2692,-0.2692,-0.2692,-0.2692,-0.2692,-0.2692,-0.2692,-0.2692,-0.2692,-0.2692,-0.265,-0.2524,-0.1766,-0.1262,-0.1135,-0.0421,0.0,0.0,0.0,0.0,0.0,0.0,0.0,0.0084,0.3696,0.5413,0.5538,0.91,1.0695,1.0695,1.0695,1.0695,1.0695,1.0695,1.0695,1.0695,1.0695,1.0695,1.0695,1.0695,1.0695,1.0695,1.0695,1.0695,1.0695,1.0695,1.0695,1.0695,1.0695,1.0695,1.0695,1.0695,1.0695,1.0695,1.0695,1.0695,1.0695,1.0695,1.0695,1.0695,1.0695,1.0695,1.0695,1.0695,1.0695,1.0695,1.0695,1.0695,1.0695,1.0695,1.0695,1.0695,1.0695,1.0695,1.0695,1.0695,1.0695,1.0695,1.0695,1.0695,1.0695,1.0695,1.0695,1.0695,1.0695,1.0695,1.0695,1.0695,1.0695,1.0695,1.0695,1.0695,1.0695,1.0695,1.0695,1.0695,1.0695,1.0695,1.0695,1.0695,1.0695,1.0695,1.0695,1.0695,1.0695,1.0695,1.0695,1.0695,1.0695,-0.2692,-0.2692,-0.2692,-0.2692,-0.2692,-0.2692,-0.2692,-0.2692,-0.2692,-0.2692,-0.2692,-0.2692,-0.2692,-0.2692,-0.2692,-0.2692,-0.2692,-0.2608,-0.2314,-0.1682,-0.122,-0.0968,-0.0337,0.0,0.0,0.0,0.0,0.0,0.0,0.0,0.0084,0.3696,0.5413,0.5538,0.91,1.0695,1.0695,1.0695,1.0695,1.0695,1.0695,1.0695,1.0695,1.0695,1.0695,1.0695,1.0695,1.0695,1.0695,1.0695,1.0695,1.0695,1.0695,1.0695,1.0695,1.0695,1.0695,1.0695,1.0695,1.0695,1.0695,1.0695,1.0695,1.0695,1.0695,1.0695,1.0695,1.0695,1.0695,1.0695,1.0695,1.0695,1.0695,1.0695,1.0695,1.0695,1.0695,1.0695,1.0695,1.0695,1.0695,1.0695,1.0695,1.0695,1.0695,1.0695,1.0695,1.0695,1.0695,1.0695,1.0695,1.0695,1.0695,1.0695,1.0695,1.0695,1.0695,1.0695,1.0695,1.0695,1.0695,1.0695,1.0695,1.0695,1.0695,1.0695,1.0695,1.0695,1.0695,1.0695,1.0695,1.0695,1.0695,1.0695,1.0695,1.0695]},{"header":{"parameterUnit":"m.s-1","parameterCategory":1,"la1":30.6,"la2":28.766,"lo1":-90.7593,"lo2":-88.6598,"dy":0.0162,"dx":0.0183,"nx":116,"ny":114,"refTime":"2023-09-28T18:00:00:Z","depth":0,"parameterNumber":3,"parameterNumberName":"V-component_of_WINDS"},"data":[0.0,0.0,0.0,0.0,0.0,0.0,0.0,0.0,0.0,0.0,0.0,0.0,0.0,0.0,0.0,0.0,0.0,0.0,0.0,0.0,0.0,0.0,0.0,0.0,0.0,0.0,0.0,0.0,0.0,0.0,0.0,0.0,0.0,0.0,0.0,0.0,0.0,0.0,0.0,0.0,0.0,0.0,0.0,0.0,0.0,0.0,0.0,0.0,0.0,0.0,0.0,0.0,0.0,0.0,0.0,0.0,0.0,0.0,0.0,0.0,0.0,0.0,0.0,0.0,0.0,0.0,0.0,0.0,0.0,0.0,0.0,0.0,0.0,0.0,0.0,0.0,0.0,0.0,0.0,0.0,0.0,0.0,0.0,0.0,0.0,0.0,0.0,0.0,0.0,0.0,0.0,0.0,0.0,0.0,0.0,0.0,0.0,0.0,0.0,0.0,0.0,0.0,0.0,0.0,0.0,0.0,0.0,0.0,0.0,0.0,0.0,0.0,0.0,0.0,0.0,0.0,0.0,0.0,0.0,0.0,0.0,0.0,0.0,0.0,0.0,0.0,0.0,0.0,0.0,0.0,0.0,0.0,0.0,0.0,0.0,0.0,0.0,0.0,0.0,0.0,0.0,0.0,0.0,0.0,0.0,0.0,0.0,0.0,0.0,0.0,0.0,0.0,0.0,0.0,0.0,0.0,0.0,0.0,0.0,0.0,0.0,0.0,0.0,0.0,0.0,0.0,0.0,0.0,0.0,0.0,0.0,0.0,0.0,0.0,0.0,0.0,0.0,0.0,0.0,0.0,0.0,0.0,0.0,0.0,0.0,0.0,0.0,0.0,0.0,0.0,0.0,0.0,0.0,0.0,0.0,0.0,0.0,0.0,0.0,0.0,0.0,0.0,0.0,0.0,0.0,0.0,0.0,0.0,0.0,0.0,0.0,0.0,0.0,0.0,0.0,0.0,0.0,0.0,0.0,0.0,0.0,0.0,0.0,0.0,0.0,0.0,0.0,0.0,0.0,0.0,0.0,0.0,0.0,0.0,0.0,0.0,0.0,0.0,0.0,0.0,0.0,0.0,0.0,0.0,0.0,0.0,0.0,0.0,0.0,0.0,0.0,0.0,0.0,0.0,0.0,0.0,0.0,0.0,0.0,0.0,0.0,0.0,0.0,0.0,0.0,0.0,0.0,0.0,0.0,0.0,0.0,0.0,0.0,0.0,0.0,0.0,0.0,0.0,0.0,0.0,0.0,0.0,0.0,0.0,0.0,0.0,0.0,0.0,0.0,0.0,0.0,0.0,0.0,0.0,0.0,0.0,0.0,0.0,0.0,0.0,0.0,0.0,0.0,0.0,0.0,0.0,0.0,0.0,0.0,0.0,0.0,0.0,0.0,0.0,0.0,0.0,0.0,0.0,0.0,0.0,0.0,0.0,0.0,0.0,0.0,0.0,0.0,0.0,0.0,0.0,0.0,0.0,0.0,0.0,0.0,0.0,0.0,0.0,0.0,0.0,0.0,0.0,0.0,0.0,0.0,0.0,0.0,0.0,0.0,0.0,0.0,0.0,0.0,0.0,0.0,0.0,0.0,0.0,0.0,0.0,0.0,0.0,0.0,0.0,0.0,0.0,0.0,0.0,0.0,0.0,0.0,0.0,0.0,0.0,0.0,0.0,0.0,0.0,0.0,0.0,0.0,0.0,0.0,0.0,0.0,0.0,0.0,0.0,0.0,0.0,0.0,0.0,0.0,0.0,0.0,0.0,0.0,0.0,0.0,0.0,0.0,0.0,0.0,0.0,0.0,0.0,0.0,0.0,0.0,0.0,0.0,0.0,0.0,0.0,0.0,0.0,0.0,0.0,0.0,0.0,0.0,0.0,0.0,0.0,0.0,0.0,0.0,0.0,0.0,0.0,0.0,0.0,0.0,0.0,0.0,0.0,0.0,0.0,0.0,0.0,0.0,0.0,0.0,0.0,0.0,0.0,0.0,0.0,0.0,0.0,0.0,0.0,0.0,0.0,0.0,0.0,0.0,0.0,0.0,0.0,0.0,0.0,0.0,0.0,0.0,0.0,0.0,0.0,0.0,0.0,0.0,0.0,0.0,0.0,0.0,0.0,0.0,0.0,0.0,0.0,0.0,0.0,0.0,0.0,0.0,0.0,0.0,0.0,0.0,0.0,0.0,0.0,0.0,0.0,0.0,0.0,0.0,0.0,0.0,0.0,0.0,0.0,0.0,0.0,0.0,0.0,0.0,0.0,0.0,0.0,0.0,0.0,0.0,0.0,0.0,0.0,0.0,0.0,0.0,0.0,0.0,0.0,0.0,0.0,0.0,0.0,0.0,0.0,0.0,0.0,0.0,0.0,0.0,0.0,0.0,0.0,0.0,0.0,0.0,0.0,0.0,0.0,0.0,0.0,0.0,0.0,0.0,0.0,0.0,0.0,0.0,0.0,0.0,0.0,0.0,0.0,0.0,0.0,0.0,0.0,0.0,0.0,0.0,0.0,0.0,0.0,0.0,0.0,0.0,0.0,0.0,0.0,0.0,0.0,0.0,0.0,0.0,0.0,0.0,0.0,0.0,0.0,0.0,0.0,0.0,0.0,0.0,0.0,0.0,0.0,0.0,0.0,0.0,0.0,0.0,0.0,0.0,0.0,0.0,0.0,0.0,0.0,0.0,0.0,0.0,0.0,0.0,0.0,0.0,0.0,0.0,0.0,0.0,0.0,0.0,0.0,0.0,0.0,0.0,0.0,0.0,0.0,0.0,0.0,0.0,0.0,0.0,0.0,0.0,0.0,0.0,0.0,0.0,0.0,0.0,0.0,0.0,0.0,0.0,0.0,0.0,0.0,0.0,0.0,0.0,0.0,0.0,0.0,0.0,0.0,0.0,0.0,0.0,0.0,0.0,0.0,0.0,0.0,0.0,0.0,0.0,0.0,0.0,0.0,0.0,0.0,0.0,0.0,0.0,0.0,0.0,0.0,0.0,0.0,0.0,0.0,0.0,0.0,0.0,0.0,0.0,0.0,0.0,0.0,0.0,0.0,0.0,0.0,0.0,0.0,0.0,0.0,0.0,0.0,0.0,0.0,0.0,0.0,0.0,0.0,0.0,0.0,0.0,0.0,0.0,0.0,0.0,0.0,0.0,0.0,0.0,0.0,0.0,0.0,0.0,0.0,0.0,0.0,0.0,0.0,0.0,0.0,0.0,0.0,0.0,0.0,0.0,0.0,0.0,0.0,0.0,0.0,0.0,0.0,0.0,0.0,0.0,0.0,0.0,0.0,0.0,0.0,0.0,0.0,0.0,0.0,0.0,0.0,0.0,0.0,0.0,0.0,0.0,0.0,0.0,0.0,0.0,0.0,0.0,0.0,0.0,0.0,0.0,0.0,0.0,0.0,0.0,0.0,0.0,0.0,0.0,0.0,0.0,0.0,0.0,0.0,0.0,0.0,0.0,0.0,0.0,0.0,0.0,0.0,0.0,0.0,0.0,0.0,0.0,0.0,0.0,0.0,0.0,0.0,0.0,0.0,0.0,0.0,0.0,0.0,0.0,0.0,0.0,0.0,0.0,0.0,0.0,0.0,0.0,0.0,0.0,0.0,0.0,0.0,0.0,0.0,0.0,0.0,0.0,0.0,0.0,0.0,0.0,0.0,0.0,0.0,0.0,0.0,0.0,0.0,0.0,0.0,0.0,0.0,0.0,0.0,0.0,0.0,0.0,0.0,0.0,0.0,0.0,0.0,0.0,0.0,0.0,0.0,0.0,0.0,0.0,0.0,0.0,0.0,0.0,0.0,0.0,0.0,0.0,0.0,0.0,0.0,0.0,0.0,0.0,0.0,0.0,0.0,0.0,0.0,0.0,0.0,0.0,0.0,0.0,0.0,0.0,0.0,0.0,0.0,0.0,0.0,0.0,0.0,0.0,0.0,0.0,0.0,0.0,0.0,0.0,0.0,0.0,0.0,0.0,0.0,0.0,0.0,0.0,0.0,0.0,0.0,0.0,0.0,0.0,0.0,0.0,0.0,0.0,0.0,0.0,0.0,0.0,0.0,0.0,0.0,0.0,0.0,0.0,0.0,0.0,0.0,0.0,0.0,0.0,0.0,0.0,0.0,0.0,0.0,0.0,0.0,0.0,0.0,0.0,0.0,0.0,0.0,0.0,0.0,0.0,0.0,0.0,0.0,0.0,0.0,0.0,0.0,0.0,0.0,0.0,0.0,0.0,0.0,0.0,0.0,0.0,0.0,0.0,0.0,0.0,0.0,0.0,0.0,0.0,0.0,0.0,0.0,0.0,0.0,0.0,0.0,0.0,0.0,0.0,0.0,0.0,0.0,0.0,0.0,0.0,0.0,0.0,0.0,0.0,0.0,0.0,0.0,0.0,0.0,0.0,0.0,0.0,0.0,0.0,0.0,0.0,0.0,0.0,0.0,0.0,0.0,0.0,0.0,0.0,0.0,0.0,0.0,0.0,0.0,0.0,0.0,0.0,0.0,0.0,0.0,0.0,0.0,0.0,0.0,0.0,0.0,0.0,0.0,0.0,0.0,0.0,0.0,0.0,0.0,0.0,0.0,0.0,0.0,0.0,0.0,0.0,0.0,0.0,0.0,0.0,0.0,0.0,0.0,0.0,0.0,0.0,0.0,0.0,0.0,0.0,0.0,0.0,0.0,0.0,0.0,0.0,0.0,0.0,0.0,0.0,0.0,0.0,0.0,0.0,0.0,0.0,0.0,0.0,0.0,0.0,0.0,0.0,0.0,0.0,0.0,0.0,0.0,0.0,0.0,0.0,0.0,0.0,0.0,0.0,0.0,0.0,0.0,0.0,0.0,0.0,0.0,0.0,0.0,0.0,0.0,0.0,0.0,0.0,0.0,0.0,0.0,0.0,0.0,0.0,0.0,0.0,0.0,0.0,0.0,0.0,0.0,0.0,0.0,0.0,0.0,0.0,0.0,0.0,0.0,0.0,0.0,0.0,0.0,0.0,0.0,0.0,0.0,0.0,0.0,0.0,0.0,0.0,0.0,0.0,0.0,0.0,0.0,0.0,0.0,0.0,0.0,0.0,0.0,0.0,0.0,0.0,0.0,0.0,0.0,0.0,0.0,0.0,0.0,0.0,0.0,0.0,0.0,0.0,0.0,0.0,0.0,0.0,0.0,0.0,0.0,0.0,0.0,0.0,0.0,0.0,0.0,0.0,0.0,0.0,0.0,0.0,0.0,0.0,0.0,0.0,0.0,0.0,0.0,0.0,0.0,0.0,0.0,0.0,0.0,0.0,0.0,0.0,0.0,0.0,0.0,0.0,0.0,0.0,0.0,0.0,0.0,0.0,0.0,0.0,0.0,0.0,0.0,0.0,0.0,0.0,0.0,0.0,0.0,0.0,0.0,0.0,0.0,0.0,0.0,0.0,0.0,0.0,0.0,0.0,0.0,0.0,0.0,0.0,0.0,0.0,0.0,0.0,0.0,0.0,0.0,0.0,0.0,0.0,0.0,0.0,0.0,0.0,0.0,0.0,0.0,0.0,0.0,0.0,0.0,0.0,0.0,0.0,0.0,0.0,0.0,0.0,0.0,0.0,0.0,0.0,0.0,0.0,0.0,0.0,0.0,0.0,0.0,0.0,0.0,0.0,0.0,0.0,0.0,0.0,0.0,0.0,0.0,0.0,0.0,0.0,0.0,0.0,0.0,0.0,0.0,0.0,0.0,0.0,0.0,0.0,0.0,0.0,0.0,0.0,0.0,0.0,0.0,0.0,0.0,0.0,0.0,0.0,0.0,0.0,0.0,0.0,0.0,0.0,0.0,0.0,0.0,0.0,0.0,0.0,0.0,0.0,0.0,0.0,0.0,0.0,0.0,0.0,0.0,0.0,0.0,0.0,0.0,0.0,0.0,0.0,0.0,0.0,0.0,0.0,0.0,0.0,0.0,0.0,0.0,0.0,0.0,0.0,0.0,0.0,0.0,0.0,0.0,0.0,0.0,0.0,0.0,0.0,0.0,0.0,0.0,0.0,0.0,0.0,0.0,0.0,0.0,0.0,0.0,0.0,0.0,0.0,0.0,0.0,0.0,0.0,0.0,0.0,0.0,0.0,0.0,0.0,0.0,0.0,0.0,3.9021,3.9152,0.0,0.0,0.0,0.0,0.0,0.0,0.0,0.0,0.0,0.0,0.0,0.0,0.0,0.0,0.0,0.0,0.0,0.0,0.0,0.0,0.0,0.0,0.0,0.0,0.0,0.0,0.0,0.0,0.0,0.0,0.0,0.0,0.0,0.0,0.0,0.0,0.0,4.0419,4.0419,4.061,4.0926,4.0595,3.9912,3.8981,0.0,0.0,0.0,0.0,0.0,0.0,0.0,0.0,0.0,0.0,0.0,0.0,0.0,0.0,0.0,0.0,0.0,0.0,0.0,0.0,0.0,0.0,0.0,0.0,0.0,0.0,0.0,0.0,0.0,0.0,0.0,0.0,0.0,0.0,0.0,0.0,0.0,0.0,0.0,0.0,0.0,0.0,0.0,0.0,0.0,0.0,0.0,0.0,0.0,0.0,0.0,0.0,0.0,0.0,0.0,0.0,0.0,0.0,0.0,0.0,0.0,0.0,0.0,0.0,0.0,0.0,0.0,0.0,0.0,0.0,4.0956,4.0364,0.0,0.0,0.0,0.0,0.0,0.0,0.0,0.0,0.0,0.0,0.0,0.0,0.0,0.0,0.0,0.0,0.0,0.0,0.0,0.0,0.0,0.0,0.0,4.0525,4.0607,4.0622,4.0752,4.0817,4.0817,0.0,0.0,0.0,0.0,0.0,4.2348,4.2442,4.2505,4.2505,4.263,4.2676,4.2692,4.28,4.1921,4.0208,4.0651,0.0,0.0,0.0,0.0,0.0,0.0,0.0,0.0,0.0,0.0,0.0,0.0,0.0,0.0,0.0,0.0,0.0,0.0,0.0,0.0,0.0,0.0,0.0,0.0,0.0,0.0,0.0,0.0,0.0,0.0,0.0,0.0,0.0,0.0,0.0,0.0,0.0,0.0,0.0,0.0,0.0,0.0,0.0,0.0,0.0,0.0,0.0,0.0,0.0,0.0,0.0,0.0,0.0,0.0,0.0,0.0,0.0,0.0,0.0,0.0,0.0,0.0,0.0,4.4451,4.5086,4.5184,4.4683,4.4863,4.5451,4.2641,4.1274,4.107,4.169,0.0,0.0,0.0,0.0,0.0,0.0,0.0,0.0,0.0,0.0,0.0,0.0,0.0,0.0,0.0,0.0,0.0,0.0,0.0,4.1883,4.1997,4.2589,4.2693,4.2012,4.2512,4.2661,4.2089,4.2138,4.225,0.0,0.0,4.2505,4.2473,4.2505,4.2505,4.2505,4.3075,4.3362,4.3376,4.4001,4.3829,4.293,4.2445,4.2182,4.2104,0.0,0.0,0.0,0.0,0.0,0.0,0.0,0.0,0.0,0.0,0.0,0.0,0.0,0.0,0.0,0.0,0.0,0.0,0.0,0.0,0.0,0.0,0.0,0.0,0.0,0.0,0.0,0.0,0.0,0.0,0.0,0.0,0.0,0.0,0.0,0.0,0.0,0.0,0.0,0.0,0.0,4.09,4.193,0.0,0.0,0.0,0.0,0.0,0.0,0.0,0.0,0.0,0.0,0.0,0.0,0.0,4.4235,4.4894,4.5154,4.5587,4.6243,4.6549,4.6699,4.6714,4.6914,4.709,4.7168,4.6839,0.0,4.472,4.4823,0.0,0.0,0.0,0.0,0.0,0.0,0.0,0.0,0.0,0.0,0.0,0.0,0.0,0.0,0.0,0.0,0.0,0.0,0.0,0.0,0.0,4.3773,4.3822,4.3561,4.3834,4.3919,4.3621,4.3606,4.3802,4.4278,4.4311,4.4492,4.4906,4.4939,4.4939,4.4939,4.521,4.5343,4.5343,4.5689,4.5674,4.5328,4.506,4.4215,4.3091,4.3499,0.0,0.0,0.0,0.0,0.0,0.0,0.0,0.0,0.0,0.0,0.0,0.0,0.0,0.0,0.0,0.0,0.0,0.0,0.0,0.0,0.0,0.0,0.0,0.0,0.0,0.0,0.0,0.0,0.0,0.0,0.0,0.0,0.0,0.0,0.0,0.0,0.0,0.0,0.0,4.3347,4.3476,4.3598,4.4072,4.4486,0.0,0.0,0.0,0.0,0.0,0.0,0.0,0.0,0.0,4.5853,4.5853,4.5988,4.6312,4.6312,4.6481,4.68,4.6947,4.702,4.702,4.7264,4.744,4.7511,4.7567,4.7258,4.6686,4.6686,4.6686,4.6652,0.0,0.0,0.0,0.0,4.5734,4.5734,0.0,0.0,0.0,0.0,0.0,0.0,0.0,0.0,0.0,0.0,0.0,0.0,4.4906,4.4845,4.4818,4.4974,4.4988,4.5022,4.5075,4.5096,4.5365,4.594,4.5974,4.6244,4.68,4.68,4.68,4.68,4.68,4.68,4.68,4.68,4.68,4.68,4.68,4.5894,4.4375,4.4923,4.5142,4.5142,0.0,0.0,0.0,0.0,0.0,0.0,0.0,0.0,0.0,0.0,0.0,0.0,0.0,0.0,0.0,0.0,0.0,0.0,0.0,0.0,0.0,0.0,0.0,0.0,0.0,0.0,0.0,0.0,0.0,0.0,0.0,0.0,0.0,0.0,0.0,0.0,0.0,4.565,4.5771,4.521,4.6123,4.6583,0.0,0.0,0.0,0.0,0.0,0.0,4.68,4.6913,4.6927,4.68,4.68,4.6887,4.709,4.7101,4.7232,4.742,4.7583,4.7622,4.7637,4.7845,4.7975,4.806,4.8137,4.8208,4.8272,4.7858,4.7686,4.7686,4.7686,4.7686,4.7686,4.7686,4.7686,4.7686,0.0,0.0,0.0,0.0,0.0,0.0,0.0,0.0,0.0,0.0,0.0,4.5977,4.6012,4.6012,4.6,4.6012,4.6012,4.6136,4.6383,4.6391,4.6521,4.6713,4.6718,4.6752,4.68,4.68,4.68,4.68,4.68,4.68,4.68,4.68,4.68,4.68,4.68,4.6752,4.6655,4.6684,4.6699,4.6699,4.6699,0.0,0.0,0.0,0.0,0.0,0.0,0.0,0.0,0.0,0.0,0.0,0.0,0.0,0.0,0.0,0.0,0.0,0.0,0.0,0.0,0.0,0.0,0.0,0.0,0.0,0.0,0.0,0.0,0.0,0.0,0.0,0.0,0.0,0.0,0.0,0.0,0.0,0.0,4.6684,4.6766,0.0,0.0,0.0,0.0,4.68,4.7261,4.7331,4.683,4.7275,4.7317,4.6815,4.68,4.7124,4.7853,4.7984,4.8398,4.9097,4.9278,4.9368,4.9383,4.9517,4.959,4.9605,4.9786,4.9893,4.9769,4.8307,4.7686,4.7686,4.7686,4.7686,4.7686,4.7686,4.7686,4.7686,0.0,0.0,0.0,0.0,0.0,0.0,0.0,0.0,4.6098,4.6098,4.6098,4.6098,4.6098,4.6098,4.6098,4.6098,4.6555,4.6901,4.7025,4.7513,4.7889,4.8086,4.8092,4.8129,4.8222,4.8592,4.8606,4.8206,4.8206,4.8206,4.8206,4.8206,4.8206,4.8206,4.8206,4.8206,4.8139,4.7192,4.68,4.68,4.68,4.68,0.0,0.0,0.0,0.0,0.0,0.0,0.0,0.0,0.0,0.0,0.0,0.0,0.0,0.0,0.0,0.0,0.0,0.0,0.0,0.0,0.0,0.0,0.0,0.0,0.0,0.0,0.0,0.0,0.0,0.0,0.0,0.0,0.0,0.0,0.0,0.0,0.0,4.7952,4.8437,0.0,4.8605,4.8732,4.8936,4.9264,4.9499,4.9526,4.9306,4.9499,4.9513,4.9306,4.8979,4.89,4.9159,4.8852,4.8836,4.9199,4.9396,4.953,4.9634,4.9816,4.9889,4.9889,4.9982,5.0011,4.9971,4.9764,4.95,4.9169,4.9169,4.9169,4.9169,4.9169,4.9169,4.9169,0.0,0.0,0.0,0.0,0.0,0.0,0.0,4.6856,4.6648,4.6648,4.6648,4.6648,4.6648,4.6648,4.6755,4.7003,4.7548,4.7973,4.8332,4.8826,4.9253,4.9431,4.9438,4.9484,4.958,4.9988,4.9953,4.9566,4.9391,4.932,4.9305,4.9092,4.9107,4.932,4.932,4.9406,4.9497,4.8517,4.7909,4.753,4.753,4.753,4.753,0.0,0.0,0.0,0.0,0.0,0.0,0.0,0.0,0.0,0.0,0.0,0.0,0.0,0.0,0.0,0.0,0.0,0.0,0.0,0.0,0.0,0.0,0.0,0.0,0.0,0.0,0.0,0.0,0.0,0.0,0.0,0.0,0.0,0.0,4.9409,4.9789,4.9297,4.9776,5.0112,4.9982,5.0077,5.0321,5.0684,5.0885,5.1017,5.1111,5.1286,5.144,5.1511,5.1158,5.1008,5.1045,5.0661,5.0543,5.0714,5.0879,5.1008,5.115,5.1284,5.1361,5.1361,5.1361,5.1361,5.1368,5.1717,5.1684,5.1291,5.076,5.0537,5.0537,5.0537,5.0537,5.0537,0.0,0.0,0.0,0.0,0.0,0.0,4.7689,4.7725,4.7725,4.7725,4.7761,4.7761,4.7761,4.7761,4.8087,4.8884,4.8956,4.9397,5.0353,5.0459,5.0556,5.073,5.0738,5.0724,5.0711,5.0724,5.0724,5.0711,5.0167,4.9916,4.9902,4.935,4.9346,4.9916,4.9916,5.0209,5.0711,5.0711,5.0067,4.9046,4.9046,4.9046,4.9046,0.0,0.0,0.0,0.0,0.0,0.0,0.0,0.0,0.0,0.0,0.0,0.0,0.0,0.0,0.0,0.0,0.0,0.0,0.0,0.0,0.0,0.0,0.0,0.0,0.0,0.0,0.0,0.0,0.0,0.0,0.0,0.0,0.0,5.0845,5.0751,5.0765,5.0778,5.0751,5.0786,5.08,5.0786,5.0822,5.0835,5.1357,5.1789,5.198,5.2532,5.2976,5.3155,5.3127,5.3197,5.3313,5.3356,5.3493,5.3704,5.3789,5.3868,5.4012,5.4012,5.4012,5.4012,5.4012,5.4012,5.4012,5.4025,5.4038,5.3882,5.2304,5.1672,5.1672,5.1672,5.1672,5.1672,0.0,0.0,0.0,0.0,0.0,0.0,4.7689,4.8196,4.8558,4.8558,4.9075,4.9449,4.9449,4.9449,4.9521,4.9738,5.0307,5.0758,5.1018,5.1596,5.1754,5.1363,5.1337,5.1157,5.0724,5.1144,5.1144,5.0711,5.0548,5.0466,5.0466,5.03,5.0314,5.0466,5.0466,5.0562,5.0711,5.0711,5.0521,5.0216,5.0216,5.0216,5.0216,0.0,0.0,0.0,0.0,0.0,0.0,0.0,0.0,0.0,0.0,0.0,0.0,0.0,0.0,0.0,0.0,0.0,0.0,0.0,0.0,0.0,0.0,0.0,0.0,0.0,0.0,0.0,0.0,0.0,0.0,0.0,5.2571,5.2419,5.1747,5.1836,5.2066,5.2208,5.2239,5.2396,5.2882,5.3059,5.3252,5.3706,5.3891,5.4024,5.4067,5.4278,5.4398,5.4391,5.4086,5.392,5.396,5.3526,5.3458,5.3704,5.3704,5.3832,5.4012,5.4012,5.4012,5.4012,5.4012,5.4012,5.4038,5.4419,5.4567,5.4494,5.3675,5.3343,5.3343,5.3343,5.3343,5.3394,0.0,0.0,0.0,0.0,0.0,0.0,4.8713,4.9112,4.9401,4.9401,4.9811,5.0101,5.0101,5.0101,5.0245,5.0572,5.1042,5.1441,5.1767,5.2226,5.2352,5.197,5.1957,5.1823,5.1452,5.1811,5.1823,5.1439,5.1209,5.1091,5.1091,5.0818,5.0832,5.1091,5.1091,5.1222,5.1439,5.1439,5.1439,5.1439,5.1439,5.1134,5.0711,5.0765,5.0792,5.0805,5.0872,5.0951,5.0981,5.1125,0.0,0.0,0.0,0.0,0.0,0.0,0.0,0.0,0.0,0.0,0.0,0.0,0.0,0.0,0.0,0.0,0.0,0.0,0.0,0.0,0.0,0.0,0.0,0.0,5.4002,5.3881,5.347,5.347,5.3564,5.3713,5.3713,5.3843,5.4217,5.4325,5.4527,5.4882,5.4894,5.5051,5.5341,5.5462,5.5644,5.5934,5.575,5.5628,5.5726,5.5302,5.5251,5.5517,5.5455,5.5505,5.5678,5.5678,5.5678,5.5678,5.5678,5.5678,5.5703,5.6018,5.6137,5.6029,0.0,0.0,0.0,0.0,5.4653,5.4701,0.0,0.0,0.0,0.0,0.0,0.0,5.0166,5.0239,5.029,5.0257,5.0318,5.0354,5.0354,5.0354,5.0644,5.1368,5.1441,5.1731,5.2444,5.248,5.248,5.248,5.248,5.248,5.248,5.248,5.248,5.248,5.1957,5.1712,5.1676,5.117,5.1196,5.1712,5.1712,5.1982,5.248,5.248,5.2491,5.2503,5.2515,5.1873,5.0938,5.1056,5.1095,5.1095,5.1134,5.1212,5.1305,5.1444,0.0,0.0,0.0,0.0,0.0,0.0,0.0,0.0,0.0,0.0,0.0,0.0,0.0,0.0,0.0,0.0,0.0,0.0,0.0,0.0,0.0,0.0,0.0,0.0,5.5542,5.559,5.5674,5.5399,5.5172,5.5025,5.5051,5.5051,5.5051,5.5148,5.5172,5.5172,5.5172,5.5474,5.6126,5.631,0.0,0.0,0.0,5.7667,5.781,5.7667,5.7763,5.7997,5.7892,5.7892,5.7997,5.7997,5.7997,5.7997,5.7997,5.7997,5.7997,5.7997,5.7997,5.785,5.6429,5.5879,5.5879,5.5879,5.5879,5.5879,0.0,0.0,0.0,0.0,0.0,0.0,5.0545,5.1041,5.1373,5.1112,5.1622,5.2045,5.2045,5.2045,5.2093,5.2263,5.2274,5.2335,5.248,5.248,5.248,5.248,5.248,5.248,5.248,5.248,5.248,5.248,5.2387,5.234,5.234,5.2209,5.2209,5.234,5.234,5.2387,5.248,5.248,5.2549,5.2604,5.2694,5.2522,5.2243,5.2267,5.2278,5.2302,5.2534,5.2556,5.2522,5.2736,5.2747,5.2691,5.2817,5.2794,0.0,0.0,0.0,0.0,0.0,0.0,0.0,0.0,0.0,0.0,0.0,0.0,0.0,0.0,0.0,0.0,0.0,0.0,0.0,5.6271,5.6383,5.6637,5.74,5.7252,5.6612,5.5312,5.5713,5.609,5.6114,5.6612,5.6915,5.6915,5.6915,5.6987,5.7133,5.7364,5.7509,5.7547,5.7679,5.7786,5.781,5.775,5.7845,5.7997,5.7973,0.0,5.7997,5.7997,5.7997,5.7997,5.7997,5.7997,5.7997,5.7997,5.7997,5.796,5.7666,5.7519,5.7519,5.7519,5.7519,5.7519,0.0,0.0,0.0,0.0,0.0,0.0,5.2036,5.2229,5.2341,5.2167,5.2352,5.248,5.248,5.248,5.248,5.248,5.248,5.248,5.248,5.248,5.248,5.248,5.248,5.248,5.248,5.248,5.248,5.248,5.248,5.248,5.248,5.248,5.248,5.2491,5.2549,5.2549,5.2491,5.2549,5.2536,5.2547,5.2672,5.2717,5.2728,5.2783,5.2772,5.2739,5.2926,5.3017,5.3028,5.3135,5.3146,5.3103,5.3193,5.3146,5.3187,0.0,0.0,0.0,0.0,0.0,0.0,0.0,0.0,0.0,0.0,0.0,0.0,0.0,0.0,5.6751,5.6626,0.0,5.6921,5.7267,5.7281,5.7427,5.7831,5.7857,5.7494,5.6595,5.6732,5.6927,5.6987,5.7243,5.7425,5.7486,5.7486,5.7486,5.7486,5.7679,5.7786,5.7691,5.7845,5.7904,5.7904,5.7904,5.7939,5.7997,5.7997,5.7997,5.7997,5.7997,5.7997,5.7997,5.7997,5.7997,5.7997,5.7997,5.7997,5.7997,5.7997,5.7997,5.7997,5.7997,5.7997,5.7997,0.0,0.0,0.0,0.0,0.0,0.0,5.3506,5.3261,5.3088,5.3088,5.2753,5.2515,5.2583,5.2526,5.248,5.248,5.248,5.248,5.248,5.248,5.248,5.248,5.248,5.248,5.248,5.248,5.248,5.248,5.248,5.248,5.248,5.248,5.248,5.2491,5.2547,5.2536,5.2491,5.2581,5.2581,5.2561,5.2649,5.275,5.2886,5.3152,5.3083,5.285,5.3006,5.3092,5.3182,5.335,5.3434,5.3471,5.3618,5.3654,5.3801,5.4436,5.462,0.0,0.0,0.0,0.0,0.0,0.0,0.0,0.0,5.7031,5.7226,5.7886,5.7997,5.7997,5.7997,5.7997,5.7997,5.7997,5.7997,5.7962,5.7869,5.7939,5.7962,5.7857,5.7631,5.7534,5.7619,5.7522,5.751,5.7619,5.7619,5.7619,5.7619,5.7786,5.7845,5.7845,5.795,5.7997,5.7997,5.7997,5.7997,5.7997,5.7997,5.7997,5.7997,5.7997,5.7997,5.7997,5.7997,5.7997,5.7997,5.7997,5.7997,5.7997,5.7997,5.7997,5.7997,5.7997,5.7997,5.7997,0.0,0.0,0.0,0.0,0.0,0.0,0.0,0.0,5.3346,5.3346,5.2872,5.2606,5.2893,5.2686,5.248,5.248,5.248,5.248,5.248,5.248,5.248,5.248,5.248,5.248,5.248,5.248,5.248,5.248,5.248,5.248,5.248,5.248,5.248,5.248,5.2503,5.2503,5.2491,5.2581,5.2647,5.2772,5.2893,5.2959,5.309,5.3931,5.3726,5.3017,5.3124,5.3103,5.3159,5.4,5.4289,5.4399,5.5108,5.5328,5.5365,5.5438,5.5475,5.5475,5.5585,5.6124,5.6859,5.7556,5.774,5.774,0.0,5.7886,5.7886,5.796,5.7997,5.7997,5.7997,5.7997,5.7997,5.7997,5.7997,5.7997,5.7985,5.7997,5.7997,5.7985,5.795,5.7904,5.7798,5.7738,5.7775,5.7786,5.7786,5.7786,5.7786,5.7916,5.7973,5.7973,5.7997,5.7997,5.7997,5.7997,5.7997,5.7997,5.7997,5.7997,5.7997,5.7997,5.7997,5.7997,5.7997,5.7997,5.7997,5.7997,5.7997,5.7997,5.7997,5.7997,5.7997,5.7997,5.7997,5.7997,0.0,0.0,0.0,0.0,0.0,0.0,0.0,0.0,5.3758,5.3447,5.3162,5.2933,5.2742,5.2583,5.248,5.248,5.248,5.248,5.248,5.248,5.248,5.248,5.248,5.248,5.248,5.248,5.248,5.248,5.248,5.248,5.248,5.248,5.2526,5.2559,5.2663,5.2686,5.2697,5.2783,5.2828,5.2842,5.3474,5.3712,5.3796,5.4723,5.4855,5.4528,5.4572,5.4561,0.0,5.4976,5.5108,5.5144,5.5475,5.5585,5.5695,5.6161,5.6308,5.6418,5.687,5.7226,5.7593,5.7923,5.7997,5.7997,5.7997,5.7997,5.7997,5.7997,5.7997,5.7997,5.7997,5.7997,5.7997,5.7997,5.7997,5.7997,5.7997,5.7997,5.7997,5.7997,5.7997,5.7973,5.7927,5.7857,5.7845,5.7916,5.7927,5.7927,5.7927,5.7973,5.7997,5.7997,5.7997,5.7997,5.7997,5.7997,5.7997,5.7997,5.7997,5.7997,5.7997,5.7997,5.7997,5.7997,5.7997,5.7997,5.7997,5.7997,5.7997,5.7997,5.7997,5.7997,5.7997,5.7997,5.7997,5.7997,0.0,0.0,0.0,0.0,0.0,0.0,0.0,0.0,0.0,0.0,5.3506,5.3093,5.2549,5.2572,5.2595,5.2491,5.248,5.248,5.248,5.248,5.248,5.248,5.248,5.248,5.248,5.248,5.248,5.248,5.248,5.248,5.248,5.248,5.2549,5.2602,5.2717,5.2772,5.2806,5.2937,5.3083,5.3262,5.3957,5.4378,5.4682,5.5577,5.5941,5.5904,5.5695,5.5585,5.5622,5.5879,5.5941,5.5989,5.6209,5.6246,5.6393,5.6969,5.7152,5.7262,5.785,5.7997,5.7997,5.7997,5.7997,5.7997,5.7997,5.7997,5.7997,5.7997,5.7997,5.7997,5.7997,5.7997,5.7997,5.7997,5.7997,5.7997,5.7997,5.7997,5.7997,5.7997,5.7997,5.7997,5.7997,5.7916,5.7904,5.7997,5.7997,5.7997,5.7997,5.7997,5.7997,5.7997,5.7997,5.7997,5.7997,5.7997,5.7997,5.7997,5.7997,5.7997,5.7997,5.7997,5.7997,5.7997,5.7997,5.7997,5.7997,5.7997,5.7997,5.7997,5.7997,5.7997,5.7997,5.7997,5.7997,5.7997,0.0,0.0,0.0,0.0,0.0,0.0,0.0,0.0,0.0,0.0,5.3767,5.2861,5.2526,5.2798,5.2864,5.2515,5.248,5.248,5.248,5.248,5.248,5.248,5.248,5.248,5.248,5.248,5.248,5.248,5.248,5.248,5.248,5.248,5.2549,5.2602,5.2602,5.2658,5.2806,5.2937,5.3456,5.4188,5.4345,5.4876,5.5647,5.6455,5.6737,5.6675,5.5879,5.5585,5.5732,5.6492,5.6737,5.6884,5.7666,5.7923,5.7923,5.796,5.796,5.796,5.7997,5.7997,5.7997,5.7997,5.7997,5.7997,5.7997,5.7997,5.7997,5.7997,5.7997,5.7997,5.7997,5.7997,5.7997,5.7997,5.7997,5.7997,5.7997,5.7997,5.7997,5.7997,5.7997,5.7997,5.7997,5.7997,5.7997,5.7997,5.7997,5.7997,5.7997,5.7997,5.7997,5.7997,5.7997,5.7997,5.7997,5.7997,5.7997,5.7997,5.7997,5.7997,5.7997,5.7997,5.7997,5.7997,5.7997,5.7997,5.7997,5.7997,5.7997,5.7997,5.7997,5.7997,5.7997,5.7997,5.7997,5.7997,0.0,0.0,0.0,0.0,0.0,0.0,0.0,0.0,0.0,0.0,0.0,0.0,0.0,0.0,0.0,0.0,5.2669,5.257,5.257,5.2526,5.248,5.248,5.248,5.248,5.248,5.248,5.248,5.248,5.248,5.248,5.248,5.248,5.2549,5.2602,5.2669,5.2806,5.2926,5.3082,5.3601,5.4382,5.4976,5.5684,5.6492,5.7299,5.7593,5.7556,0.0,5.7189,5.7237,5.7483,5.7593,5.7629,5.7923,5.7997,5.7997,5.7997,5.7997,5.7997,5.7997,5.7997,5.7997,5.7997,5.7997,5.7997,5.7997,5.7997,5.7997,5.7997,5.7997,5.7997,5.7997,5.7997,5.7997,5.7997,5.7997,5.7997,5.7997,5.7997,5.7997,5.7997,5.7997,5.7997,5.7997,5.7997,5.7997,5.7997,5.7997,5.7997,5.7997,5.7997,5.7997,5.7997,5.7997,5.7997,5.7997,5.7997,5.7997,5.7997,5.7997,5.7997,5.7997,5.7997,5.7997,5.7997,5.7997,5.7997,5.7997,5.7997,5.7997,5.7997,5.7997,5.7997,5.7997,5.7997,5.7997,5.7997,0.0,0.0,0.0,0.0,0.0,0.0,0.0,0.0,0.0,0.0,0.0,0.0,0.0,0.0,0.0,0.0,0.0,5.2725,5.29,5.2672,5.2572,5.2606,5.2526,5.2503,5.2549,5.2503,5.248,5.248,5.248,5.2503,5.2549,5.2549,5.2604,5.2761,5.2828,5.2963,5.3082,5.3146,5.3838,5.4876,5.5401,5.6235,5.7299,5.7813,5.7997,0.0,5.7997,5.7997,5.7997,5.7997,5.7997,5.7997,5.7997,5.7997,5.7997,5.7997,5.7997,5.7997,5.7997,5.7997,5.7997,5.7997,5.7997,5.7997,5.7997,5.7997,5.7997,5.7997,5.7997,5.7997,5.7997,5.7997,5.7997,5.7997,5.7997,5.7997,5.7997,5.7997,5.7997,5.7997,5.7997,5.7997,5.7997,5.7997,5.7997,5.7997,5.7997,5.7997,5.7997,5.7997,5.8143,5.8437,5.8437,5.8584,5.8841,5.8841,5.8694,5.8437,5.8143,5.7997,5.7997,5.7997,5.7997,5.7997,5.7997,5.7997,5.7997,5.7997,5.7997,5.7997,5.7997,5.7997,5.7997,5.7997,5.7997,5.7997,0.0,0.0,0.0,0.0,0.0,0.0,0.0,0.0,0.0,0.0,0.0,0.0,0.0,0.0,0.0,0.0,0.0,0.0,5.3357,5.2907,5.268,5.2794,5.2618,5.2561,5.259,5.2561,5.2491,5.2491,5.2491,5.2524,5.2602,5.2602,5.2761,5.298,5.298,5.3082,5.3203,5.3214,5.4142,5.5585,5.5585,5.6576,5.7997,5.7997,5.7997,5.7997,5.7997,5.7997,5.7997,5.7997,5.7997,5.7997,5.7997,5.7997,5.7997,5.7997,5.7997,5.7997,5.7997,5.7997,5.7997,5.7997,5.7997,5.7997,5.7997,5.7997,5.7997,5.7997,5.7997,5.7997,5.7997,5.7997,5.7997,5.7997,5.7997,5.7997,5.7997,5.7997,5.7997,5.7997,5.7997,5.7997,5.7997,5.7997,5.8033,5.807,5.807,5.807,5.807,5.8107,5.8474,5.9233,5.9269,5.9636,6.037,6.0419,6.0003,5.9269,5.8437,5.8081,5.8068,5.8116,5.8127,5.8113,5.815,5.8187,5.8187,5.8187,5.8187,5.8187,5.8187,5.8187,5.8187,5.8187,5.8187,5.8187,0.0,0.0,0.0,0.0,0.0,0.0,0.0,0.0,0.0,0.0,0.0,0.0,0.0,0.0,0.0,0.0,0.0,0.0,5.3093,5.3178,5.3093,5.2806,5.2739,5.2683,5.2602,5.2568,5.2581,5.2581,5.2581,5.2649,5.275,5.275,5.2783,5.285,5.2948,5.3039,5.3071,5.3146,5.4142,5.5585,5.5585,5.6576,5.7997,5.7997,5.7997,5.7997,5.7997,5.7997,5.7997,5.7997,5.7997,5.7997,5.7997,5.7997,5.7997,5.7997,5.7997,5.7997,5.7997,5.7997,5.7997,5.7997,5.7997,5.7997,5.7997,5.7997,5.7997,5.7997,5.7997,5.7997,5.7997,5.7997,5.7997,5.7997,5.7997,5.7997,5.7997,5.7997,5.7997,5.7997,5.7997,5.7997,5.7997,5.7997,5.8253,5.8866,5.8902,5.8902,5.8902,5.9465,5.9869,6.0077,6.0077,6.0187,6.0419,6.0419,6.0297,6.0077,5.9269,5.9062,5.9333,5.9403,5.9568,5.9911,6.0481,6.0743,6.0743,6.0743,6.0743,6.0743,6.0743,6.0743,6.0743,6.0743,6.0743,6.0743,0.0,0.0,0.0,0.0,0.0,0.0,0.0,0.0,0.0,0.0,0.0,0.0,0.0,0.0,0.0,0.0,0.0,0.0,0.0,5.3506,5.3387,5.3219,5.3115,5.2965,5.2794,5.2739,5.2705,5.2705,5.2705,5.2761,5.2883,5.2883,5.2904,5.2984,5.306,5.3092,5.3092,5.3156,5.3922,0.0,0.0,5.6441,5.7759,5.8139,5.8369,5.854,5.854,5.854,5.8508,5.8315,5.8249,5.8242,5.8065,5.8108,5.8242,5.8065,5.8119,5.8242,5.8065,5.8119,5.8249,5.8249,5.8391,5.8487,5.8293,5.8249,5.822,5.8042,5.7997,5.7997,5.7997,5.7997,5.7997,5.7997,5.7997,5.8107,5.8474,5.8705,5.8962,5.9331,5.9529,5.9621,5.9621,5.9621,5.9796,6.0268,5.9635,5.9437,5.9998,6.0453,6.0859,6.1239,6.1419,6.1678,6.2038,6.1678,6.1493,6.1493,6.0676,6.0407,6.0645,6.0665,6.0805,6.1065,6.1516,6.1704,6.1704,6.1704,6.1704,6.1704,6.1704,6.1704,6.1704,6.1704,6.1704,6.1704,0.0,0.0,0.0,0.0,0.0,0.0,0.0,0.0,0.0,0.0,0.0,0.0,0.0,0.0,0.0,0.0,0.0,0.0,0.0,0.0,5.3702,5.3701,5.3536,5.3306,5.3077,5.2904,5.2817,5.2817,5.2817,5.2915,5.3098,5.3098,5.3172,5.3355,5.3355,5.3355,5.3355,5.3355,5.3797,5.4607,5.5253,5.6282,5.7526,0.0,5.8748,5.9206,5.9206,5.9243,5.9224,5.8831,5.8689,5.8607,5.822,5.8358,5.8597,5.8209,5.8358,5.8597,5.8227,5.8423,5.8689,5.8689,5.8959,5.9122,5.877,5.8638,5.8482,5.8153,5.8116,5.8143,5.8143,5.8311,5.8394,5.8394,5.845,5.8717,5.9442,5.9869,6.0396,6.1119,6.1469,6.1704,6.1704,6.1704,6.1741,6.1854,6.0523,6.0188,6.1273,6.1443,6.1816,6.2523,6.2875,6.3403,6.4086,6.3403,6.3075,6.3037,6.222,6.1883,6.193,6.194,6.1968,6.2052,6.2127,6.2203,6.2203,6.2203,6.2203,6.2203,6.2203,6.2203,6.2203,6.2203,6.2203,6.2203,0.0,0.0,0.0,0.0,0.0,0.0,0.0,0.0,0.0,0.0,5.5396,5.5396,0.0,0.0,0.0,0.0,0.0,0.0,0.0,0.0,0.0,5.3729,5.3672,5.3558,5.342,5.3115,5.2948,5.2948,5.2948,5.3167,5.3575,5.3575,5.3767,5.4097,5.4097,5.4097,5.4097,5.4097,5.4574,5.5286,5.5104,5.6151,5.7782,5.765,0.0,0.0,5.9206,5.9415,5.9622,5.9243,5.9103,5.9036,5.8618,5.8781,5.9026,5.8607,5.8781,5.9093,5.9017,5.9055,5.9103,5.9103,5.9159,5.9187,5.9122,5.885,5.8576,5.8503,5.8747,5.8976,5.8976,5.9837,6.0558,6.0558,6.0824,6.1115,6.1255,6.1324,6.1448,6.1598,6.1665,6.1704,6.1704,6.1704,6.1967,6.2634,6.2421,6.2371,6.2591,6.3208,6.3648,6.3798,6.3869,6.3946,6.4086,6.3946,6.3871,6.3871,6.3075,6.2871,6.3201,6.3265,6.3436,6.3809,6.4457,6.4762,6.4762,6.4762,6.4762,6.4762,6.4762,6.4762,6.4762,6.4762,6.4762,6.4762,0.0,0.0,0.0,0.0,0.0,0.0,0.0,5.5396,5.5396,5.5396,5.5396,5.5396,5.5396,5.524,5.5012,0.0,0.0,0.0,0.0,0.0,0.0,5.4276,5.4123,5.3998,5.3915,5.3767,5.3672,5.3672,0.0,5.3682,5.3701,5.3701,5.3701,5.3719,5.3719,5.3842,5.3989,5.3989,5.433,5.49,5.5126,5.5933,5.7033,5.7699,0.0,0.0,5.958,5.9785,6.0061,5.9639,5.9639,5.9706,5.9122,5.9206,5.9441,5.9046,5.9215,5.9467,5.927,5.9361,5.9511,5.9511,5.9656,5.9785,5.9554,5.9379,5.93,5.9559,5.975,6.0003,6.0423,6.1021,6.1426,6.1426,6.1568,6.1854,6.2267,6.2523,6.284,6.3246,6.3501,6.3613,6.3613,6.3613,6.3803,6.4174,6.4212,6.4095,6.3888,6.4247,6.4557,6.4754,6.4566,6.4557,6.4754,6.4792,6.4792,6.4754,6.4393,6.4297,6.4484,6.4538,6.4626,6.4848,6.5222,6.5413,6.5413,6.5413,6.5413,6.5413,6.5413,6.5413,6.5413,6.5413,6.5413,6.5413,0.0,0.0,0.0,0.0,0.0,0.0,0.0,5.5396,5.5396,5.5396,5.5396,5.5396,5.5396,5.5396,5.5273,0.0,0.0,0.0,0.0,0.0,0.0,0.0,0.0,0.0,5.4405,0.0,0.0,5.4288,5.4288,0.0,0.0,0.0,0.0,0.0,5.3661,5.3833,5.405,5.405,5.4262,0.0,0.0,5.5673,5.6367,0.0,0.0,0.0,0.0,6.0129,6.0342,6.0053,6.0136,6.0292,5.9648,5.9664,5.9858,5.945,5.9605,5.9866,5.9537,5.9673,5.9922,5.9922,6.0159,6.0313,5.9984,6.0018,6.0152,6.0525,6.0811,6.1206,6.1854,6.2193,6.2363,6.2363,6.2437,6.271,6.3342,6.3754,6.4238,6.4867,6.522,6.5413,6.5413,6.5413,6.5413,6.5413,6.5413,6.5267,6.496,6.4943,6.5068,6.5406,6.5085,6.5077,6.5413,6.5413,6.5413,6.5413,6.5413,6.5413,6.5413,6.5413,6.5413,6.5413,6.5413,6.5413,6.5413,6.5413,6.5413,6.5413,6.5413,6.5413,6.5413,6.5413,6.5413,6.5413,0.0,0.0,0.0,0.0,0.0,0.0,0.0,5.5396,5.5396,5.5396,5.5396,5.5396,5.5396,5.5396,5.539,0.0,0.0,0.0,0.0,0.0,0.0,0.0,0.0,0.0,0.0,0.0,0.0,5.4288,5.4288,0.0,0.0,0.0,0.0,0.0,0.0,5.5219,5.5246,5.5246,0.0,0.0,0.0,0.0,0.0,0.0,0.0,0.0,0.0,6.0356,6.037,6.0349,6.0356,6.0408,6.0313,6.0313,6.0277,5.9866,6.0045,6.0328,6.0299,6.0313,6.0335,6.0335,6.0356,6.037,6.0342,6.0639,6.09,6.0951,6.1852,6.2709,6.2784,6.3756,6.4512,6.4512,6.4824,6.51,6.5176,6.5199,6.5261,6.5329,6.5398,6.5413,6.5413,6.5413,6.5413,6.5413,6.5413,6.536,6.5337,6.5329,6.5345,6.5413,6.5345,6.5345,6.5413,6.5413,6.5413,6.5413,6.5413,6.5413,6.5413,6.5413,6.5413,6.5413,6.5413,6.5413,6.5413,6.5413,6.5413,6.5413,6.5413,6.5413,6.5413,6.5413,6.5413,6.5413,0.0,0.0,0.0,0.0,0.0,0.0,5.5445,5.5447,5.5383,5.5383,5.5384,5.5396,5.5396,5.5396,5.5396,5.5396,0.0,0.0,0.0,0.0,0.0,0.0,0.0,0.0,0.0,0.0,5.4971,5.4971,5.4971,0.0,0.0,0.0,0.0,0.0,0.0,5.4844,5.5026,5.5026,0.0,0.0,0.0,0.0,0.0,0.0,0.0,0.0,0.0,0.0,6.0415,6.0415,6.0415,6.0415,6.0415,6.0415,6.0356,6.0188,6.0285,6.0415,6.0415,6.0415,6.0415,6.0415,6.0415,6.053,6.1027,6.1269,6.1675,6.2711,6.3332,6.3841,6.4335,6.4824,6.5142,6.5142,6.5291,6.5413,6.5413,6.5413,6.5413,6.5413,6.5413,6.5413,6.5413,6.5413,6.5413,6.5413,6.5413,6.5413,6.5413,6.5413,6.5413,6.5413,6.5413,6.5413,6.5413,6.5413,6.5413,6.5413,6.5413,6.5413,6.5413,6.5413,6.5413,6.5413,6.5413,6.5413,6.5413,6.5413,6.5413,6.5413,6.5413,6.5413,6.5413,6.5413,6.5444,6.545,0.0,0.0,0.0,0.0,0.0,5.5485,5.5485,5.5443,5.5413,5.5413,5.5447,5.5422,5.5422,5.5422,5.5415,5.539,5.5409,0.0,0.0,0.0,0.0,0.0,0.0,0.0,0.0,0.0,5.5396,5.5396,5.5396,5.526,0.0,0.0,5.4859,5.4637,0.0,0.0,0.0,0.0,0.0,0.0,0.0,0.0,0.0,0.0,0.0,0.0,0.0,0.0,0.0,0.0,0.0,6.0415,6.0415,6.0415,6.0415,6.0415,6.0415,6.0415,6.0415,6.0415,6.0453,6.0683,6.0759,6.0988,6.1784,6.2166,6.2708,6.3931,6.4389,6.4733,6.5299,6.5413,6.5413,6.5413,6.5413,6.5413,6.5413,6.5413,6.5413,6.5413,6.5413,6.5413,6.5413,6.5413,6.5413,6.5413,6.5413,6.5413,6.5413,6.5413,6.5413,6.5413,6.5413,6.5413,6.5413,6.5413,6.5413,6.5413,6.5413,6.5413,6.5413,6.5413,6.5413,6.5413,6.5413,6.5413,6.5413,6.5413,6.5413,6.5413,6.5413,6.5413,6.5413,6.5405,6.545,6.5501,0.0,0.0,0.0,0.0,0.0,0.0,5.5485,5.5485,5.5479,5.5479,5.5479,5.5479,5.5479,5.5479,5.5455,5.5427,5.5396,0.0,0.0,0.0,0.0,0.0,0.0,0.0,0.0,0.0,5.5396,5.5396,5.5396,5.5396,5.5396,5.5396,5.539,5.539,0.0,0.0,0.0,0.0,0.0,0.0,0.0,0.0,5.7886,0.0,0.0,0.0,0.0,0.0,0.0,0.0,0.0,0.0,0.0,6.0415,6.0415,6.0415,6.0415,6.0415,6.0415,6.0415,6.0606,6.1402,6.1593,6.1822,6.2693,6.3541,6.416,6.4198,6.4848,6.5375,6.5413,6.5413,6.5413,6.5413,6.5413,6.5413,6.5413,6.5413,6.5413,6.5413,6.5413,6.5413,6.5413,6.5413,6.5413,6.5413,6.5413,6.5413,6.5413,6.5413,6.5413,6.5413,6.5413,6.5413,6.5413,6.5413,6.5413,6.5413,6.5413,6.5413,6.5413,6.5413,6.5413,6.5413,6.5413,6.5413,6.5413,6.5413,6.5413,6.5413,6.5413,6.5413,6.5421,6.5472,6.5501,6.5509,0.0,0.0,0.0,0.0,0.0,0.0,0.0,5.5615,5.5587,5.5587,5.5547,5.5485,5.5485,5.5485,5.5473,5.5455,5.547,0.0,0.0,0.0,0.0,0.0,0.0,0.0,0.0,5.5396,5.5396,5.5396,5.5396,5.5396,5.5396,5.5396,5.5396,5.5396,5.5396,5.5396,0.0,0.0,0.0,0.0,0.0,5.6893,5.7963,0.0,0.0,0.0,0.0,0.0,0.0,0.0,0.0,0.0,0.0,0.0,0.0,6.0415,6.0415,6.0415,6.0415,6.0797,6.1287,6.1554,6.2051,6.2732,6.3579,6.4007,6.4351,6.4917,6.5222,6.5413,6.5413,6.5413,6.5413,6.5413,6.5413,6.5413,6.5413,6.5413,6.5413,6.5413,6.5413,6.5413,6.5413,6.5413,6.5413,6.5413,6.5413,6.5413,6.5413,6.5413,6.5413,6.5413,6.5413,6.5413,6.5413,6.5413,6.5413,6.5413,6.5413,6.5413,6.5413,6.5413,6.5413,6.5413,6.5413,6.5413,6.5413,6.5413,6.5413,6.5383,6.5435,6.5457,6.5472,6.5544,6.5639,6.5694,0.0,0.0,0.0,0.0,0.0,0.0,0.0,5.5676,5.5649,5.5649,5.5615,5.5593,5.5593,5.5593,5.5587,5.552,5.5581,0.0,0.0,0.0,0.0,0.0,0.0,0.0,5.5396,5.5409,5.5409,5.5396,5.5396,5.5396,5.5396,5.5396,5.5384,5.5396,5.5396,5.5396,0.0,0.0,0.0,0.0,5.6282,5.7129,5.8001,0.0,0.0,0.0,0.0,0.0,0.0,0.0,0.0,0.0,0.0,0.0,0.0,0.0,6.1096,6.1249,6.095,6.1478,6.2166,6.251,6.3006,6.3618,6.4466,6.4657,6.481,6.5299,6.5413,6.5413,6.5413,6.5413,6.5413,6.5413,6.5413,6.5413,6.5413,6.5413,6.5413,6.5413,6.5413,6.5413,6.5413,6.5413,6.5413,6.5413,6.5413,6.5413,6.5413,6.5413,6.5413,6.5413,6.5413,6.5413,6.5413,6.5413,6.5413,6.5413,6.5413,6.5413,6.5413,6.5413,6.5413,6.5413,6.5413,6.5413,0.0,6.5413,6.5398,6.5428,6.5479,6.5516,6.5544,6.5653,6.5715,6.5793,0.0,0.0,0.0,0.0,0.0,0.0,0.0,5.5708,5.5708,5.5708,5.5708,5.5708,5.5708,5.5708,5.5687,5.5626,0.0,0.0,0.0,0.0,0.0,0.0,0.0,0.0,5.5389,5.5409,5.5403,5.5389,5.5389,5.5389,5.5389,5.5382,5.539,5.5416,5.5409,5.5409,0.0,0.0,0.0,0.0,5.6378,5.7218,0.0,0.0,0.0,0.0,0.0,0.0,0.0,0.0,0.0,0.0,0.0,0.0,0.0,0.0,0.0,0.0,0.0,6.2395,6.3197,6.4007,6.4236,6.4466,6.5222,6.5413,0.0,6.5413,6.5413,6.5413,6.5413,6.5413,6.5413,6.5413,6.5413,6.5413,6.5413,6.5413,6.5413,6.5413,6.5413,6.5413,6.5413,6.5413,6.5413,6.5413,6.5413,6.5413,6.5413,6.5413,6.5413,6.5413,6.5413,6.5413,6.5413,6.5413,6.5413,6.5413,6.5413,6.5413,6.5413,6.5413,6.5413,6.5413,6.5413,6.5421,6.5421,6.5421,6.5435,6.5509,6.5516,6.5552,6.5615,6.5773,6.58,6.5813,0.0,0.0,0.0,0.0,0.0,0.0,0.0,0.0,0.0,0.0,5.5708,5.5708,5.5708,5.5708,5.5703,0.0,0.0,0.0,0.0,0.0,0.0,0.0,0.0,0.0,5.5499,5.5482,5.5482,5.5499,5.5499,5.5499,5.5499,5.5407,5.5439,5.547,5.5421,5.5427,0.0,0.0,0.0,0.0,5.7379,5.8209,0.0,0.0,0.0,0.0,6.0473,6.0498,0.0,0.0,0.0,0.0,0.0,0.0,0.0,0.0,6.3234,6.3934,6.3705,0.0,6.3931,6.416,6.4657,6.5184,0.0,6.5413,6.5413,6.5413,6.5413,6.5413,6.5413,6.5413,6.5413,6.5413,6.5413,6.5413,6.5413,6.5413,6.5413,6.5413,6.5413,6.5413,6.5413,6.5413,6.5413,6.5413,6.5413,6.5413,6.5413,6.5413,6.5413,6.5413,6.5413,6.5413,6.5413,6.5413,6.5413,6.5413,6.5413,6.5413,6.5413,6.5413,6.5413,6.5413,6.5413,6.5413,6.5472,6.5472,6.5516,6.558,6.5681,6.5753,6.5773,6.5846,6.5878,6.5878,0.0,0.0,0.0,0.0,0.0,0.0,0.0,0.0,0.0,0.0,0.0,5.5708,5.5708,5.5708,0.0,0.0,0.0,0.0,0.0,0.0,0.0,0.0,0.0,5.5564,5.5564,5.5535,5.5535,5.5564,5.5564,5.5564,5.5564,5.5529,5.5479,5.5479,5.5443,5.5488,0.0,0.0,0.0,5.6823,5.7735,0.0,0.0,0.0,0.0,0.0,6.0578,6.0564,0.0,6.1032,6.1152,6.1252,0.0,0.0,0.0,0.0,6.4207,6.4893,6.4893,6.4814,6.4741,6.4778,6.51,6.5421,6.542,6.5405,6.5421,6.5428,6.5405,6.5413,6.5413,6.5413,6.5413,6.5413,6.5413,6.5413,6.5413,6.5413,6.5413,6.5413,6.5413,6.5413,6.5413,6.5413,6.5413,6.5413,6.5413,6.5413,6.5413,6.5413,6.5413,6.5413,6.5413,6.5413,6.5413,6.5413,6.5413,6.5413,6.5413,6.5413,6.5413,6.5413,6.5413,6.5413,6.542,6.5457,6.5501,6.553,6.5587,6.5694,6.5773,6.5813,6.5846,6.5885,6.5904,6.5904,0.0,0.0,0.0,0.0,0.0,0.0,0.0,0.0,0.0,0.0,0.0,0.0,0.0,0.0,0.0,0.0,0.0,0.0,0.0,0.0,0.0,0.0,5.566,5.5632,5.5632,5.5581,5.5575,5.5632,5.5632,5.5632,5.5632,5.5582,5.5587,5.5535,5.5547,5.5514,0.0,0.0,5.6237,5.7081,5.7963,0.0,0.0,0.0,0.0,0.0,0.0,0.0,0.0,6.1691,6.1991,6.224,6.3059,0.0,0.0,0.0,0.0,0.0,6.5645,6.5583,6.5506,6.5523,6.5465,6.5466,6.5501,6.5457,6.5428,6.5487,6.5443,6.5429,6.5413,6.5413,6.5413,6.5413,6.5413,6.5413,6.5413,6.5413,6.5413,6.5413,6.5413,6.5413,6.5413,6.5413,6.5413,6.5413,6.5413,6.5413,6.5413,6.5413,6.5413,6.5413,6.5413,6.5413,6.5413,6.5413,6.5413,6.5413,6.5413,6.5413,6.5413,6.5413,6.5421,6.5436,6.5472,6.5509,6.5537,6.5594,6.5701,6.5807,6.5807,6.5846,6.5904,6.5904,6.5904,6.5904,0.0,0.0,0.0,0.0,0.0,0.0,0.0,0.0,0.0,0.0,0.0,0.0,0.0,0.0,0.0,0.0,0.0,0.0,0.0,0.0,0.0,5.5708,5.5698,5.5692,5.5692,5.5682,5.5682,5.5692,5.5692,5.5692,5.5692,5.5638,5.5571,5.5604,5.5654,5.5682,5.572,5.6451,5.7224,5.8062,5.8921,0.0,0.0,0.0,0.0,0.0,0.0,0.0,0.0,6.2008,6.2452,6.3097,6.3994,0.0,0.0,0.0,0.0,0.0,6.5953,6.5974,6.594,6.5665,6.5573,6.5566,6.558,6.5573,6.5552,6.5509,6.5487,6.5457,6.5429,6.5413,6.5413,6.5413,6.5413,6.5413,6.5413,6.5413,6.5413,6.5413,6.5413,6.5413,6.5413,6.5413,6.5413,6.5413,6.5413,6.5413,6.5413,6.5413,6.5413,6.5413,6.5413,6.5413,6.5413,6.5413,6.5413,6.5413,6.5413,6.5413,6.5413,6.5413,6.5413,6.5479,6.5494,6.5611,6.576,6.5773,6.582,6.5885,6.5885,6.5891,6.5904,6.5904,6.5904,6.6012,0.0,0.0,0.0,0.0,0.0,0.0,0.0,0.0,0.0,0.0,0.0,0.0,0.0,0.0,0.0,0.0,0.0,0.0,0.0,0.0,5.5708,5.5708,5.5708,5.5708,5.5708,5.5708,5.5708,5.5708,5.5708,5.5708,5.5708,5.5676,5.5665,5.5665,5.5692,5.5978,5.6439,5.6824,5.7807,5.9086,0.0,0.0,0.0,0.0,0.0,0.0,0.0,0.0,0.0,0.0,6.3555,6.4332,6.5198,0.0,0.0,0.0,0.0,0.0,6.6156,6.6166,6.6174,6.6026,6.5931,6.5892,6.5925,6.5909,6.5847,6.5793,6.5743,6.566,6.5537,6.5494,6.5552,6.564,6.5716,6.5747,6.5633,6.5606,6.559,6.5465,6.5443,6.5457,6.5494,6.5465,6.5443,6.5443,6.5436,6.5413,6.5413,6.5413,6.5413,6.5413,6.5459,6.5443,6.5443,6.5479,6.5457,6.5413,6.542,6.5443,6.5443,6.5479,6.5516,6.5559,6.5639,6.5694,6.5793,6.5833,6.5872,6.5904,6.5904,6.5904,6.5961,6.6497,6.7006,6.7503,0.0,0.0,0.0,0.0,0.0,0.0,0.0,0.0,0.0,0.0,0.0,0.0,0.0,0.0,0.0,0.0,0.0,0.0,0.0,5.5708,5.5708,5.5708,5.5708,5.5708,5.5708,5.5708,5.5708,5.5708,5.5708,5.5708,5.5708,5.5708,5.5824,5.6016,5.6016,5.651,5.7371,5.7564,5.8501,5.9874,0.0,0.0,0.0,0.0,0.0,0.0,0.0,0.0,0.0,0.0,0.0,0.0,0.0,0.0,0.0,6.631,6.6337,6.6366,6.6366,6.6393,6.6419,6.6419,6.6283,6.6148,6.622,6.6165,6.6144,6.6051,6.5995,6.5903,6.5769,6.5724,6.5775,6.588,6.6017,6.6041,6.5909,6.5876,6.5807,6.5641,6.5653,6.5673,6.5718,6.562,6.559,6.559,6.5534,6.5506,6.5506,6.5531,6.5566,6.5566,6.5626,6.5653,6.5653,6.5672,6.5615,6.5466,6.5494,6.5523,6.5523,6.5573,6.5608,6.5667,6.5767,6.58,6.582,6.5878,6.6057,6.6233,6.6233,6.6385,6.6692,6.7459,6.8171,6.8815,0.0,0.0,0.0,0.0,0.0,0.0,0.0,0.0,0.0,0.0,0.0,0.0,0.0,0.0,0.0,0.0,0.0,0.0,0.0,5.5708,5.5708,5.5708,5.5708,5.5708,5.5708,5.5708,5.5708,5.5708,5.5708,5.5708,5.5708,5.5708,5.6132,5.6907,5.6907,5.7451,5.8444,5.9248,5.9744,6.0053,6.0787,0.0,0.0,0.0,0.0,0.0,0.0,0.0,0.0,0.0,0.0,0.0,0.0,0.0,6.631,6.631,6.6449,6.6579,6.6579,6.665,6.6745,6.6745,6.6502,6.6303,6.6307,6.6307,6.6252,6.6208,6.6195,6.6135,6.6078,6.6064,6.6046,6.5937,6.6017,6.6101,6.6083,6.6083,6.6078,6.606,6.606,6.606,6.6064,6.5963,6.5868,6.5868,6.5863,6.5863,6.5863,6.5987,6.6055,6.6055,6.606,6.606,6.606,6.5947,6.5787,6.558,6.5587,6.5594,6.5594,6.5594,6.5674,6.5787,6.5793,6.5833,6.5891,6.5897,6.6441,6.7307,6.7307,6.7851,6.8703,6.8754,6.8835,6.9014,0.0,0.0,0.0,0.0,0.0,0.0,0.0,0.0,0.0,0.0,0.0,0.0,0.0,0.0,0.0,0.0,0.0,0.0,0.0,5.5822,5.5877,5.5958,5.5962,5.5962,5.5962,5.5808,5.5708,5.5708,5.576,5.6123,5.6749,5.6749,5.7214,5.807,5.807,5.8572,5.944,5.9786,6.0303,6.0964,6.1273,6.1432,0.0,0.0,0.0,0.0,0.0,0.0,0.0,0.0,6.5931,6.6594,6.6594,6.6594,6.6594,6.6594,6.6656,6.672,6.672,6.6778,6.6796,6.6796,6.6681,6.6594,6.6594,6.6594,6.6573,6.6489,6.6429,6.64,6.6248,6.6348,6.6393,6.6337,6.6451,6.6499,6.6358,6.6344,6.6309,6.6165,6.6152,6.6161,6.6224,6.6144,6.6084,6.6084,6.6051,6.6032,6.6032,6.6069,6.6105,6.6105,6.6135,6.6152,6.6152,6.6148,6.6123,6.6041,6.5903,6.5891,6.5961,6.6031,6.6056,6.6114,6.6114,6.6438,6.6971,6.6971,6.7482,6.833,6.833,6.8911,6.9718,6.9815,7.0197,7.0719,0.0,0.0,0.0,0.0,0.0,0.0,0.0,0.0,0.0,0.0,0.0,0.0,0.0,0.0,0.0,0.0,0.0,0.0,5.5966,5.5974,5.5989,5.6094,5.6097,5.6097,5.6097,5.5925,5.5832,5.5832,5.6192,5.6857,5.7823,5.7823,5.8289,5.9105,5.9105,5.963,6.0484,6.0484,6.0903,6.1573,6.1573,6.1604,0.0,0.0,0.0,0.0,0.0,0.0,0.0,0.0,6.6327,6.6796,6.6796,6.6796,6.6796,6.6796,6.6796,6.6796,6.6796,6.6796,6.6796,6.6796,6.6796,6.6796,6.6796,6.6796,6.6784,6.6693,6.6642,6.6612,6.641,6.6532,6.6631,6.6598,6.6713,6.6739,6.6592,6.658,6.6554,6.6393,6.6384,6.6507,6.684,6.6782,6.686,6.7136,6.711,6.7095,6.7095,6.7101,6.7125,6.7125,6.7191,6.7204,6.7204,6.722,6.723,6.7271,6.7095,6.6872,6.6629,6.6691,6.6858,6.7134,6.7134,6.7449,6.7996,6.7996,6.8532,6.9398,6.9756,7.0236,7.079,7.0873,7.1287,7.18,0.0,0.0,0.0,0.0,0.0,0.0,0.0,0.0,0.0,0.0,0.0,0.0,0.0,0.0,0.0,0.0,0.0,0.0,5.6097,5.6097,5.61,5.61,5.61,5.61,5.61,5.61,5.6139,5.6097,5.7,5.7862,5.872,5.872,5.9186,6.0034,6.0034,6.0574,6.1493,6.1493,6.1582,6.1719,6.1719,6.1719,6.1797,0.0,0.0,0.0,0.0,0.0,0.0,0.0,6.6796,6.6796,6.6796,6.6796,6.6796,6.6796,6.6796,6.6796,6.6796,6.6796,6.6796,6.6796,6.6796,6.6796,6.6796,6.6796,6.6796,6.6796,6.6796,6.6778,6.6615,6.6711,6.6777,6.6612,6.6713,6.6796,6.6796,6.6796,6.6796,6.6796,6.6796,6.7146,6.8044,6.798,6.8278,6.9138,6.9216,6.9216,6.9216,6.9339,6.9412,6.9412,6.9412,6.9412,6.9412,6.9263,6.9265,6.9411,6.9263,6.8649,6.7612,6.7612,6.8078,6.8898,6.8898,6.8898,6.8937,6.8937,6.9532,7.0513,7.1574,7.1987,7.1987,7.1987,7.1987,7.1987,0.0,0.0,0.0,0.0,0.0,0.0,0.0,0.0,0.0,0.0,0.0,0.0,0.0,0.0,0.0,0.0,0.0,0.0,5.6222,5.6227,5.6297,5.6432,5.6436,5.6709,5.7296,5.792,5.7853,5.7162,5.8024,5.8957,5.9911,5.9911,6.0379,6.1196,6.1196,6.1363,6.1654,6.1654,6.1664,6.1758,6.2383,6.2618,6.2696,0.0,0.0,0.0,0.0,0.0,0.0,0.0,0.0,0.0,6.6796,6.6796,6.6796,6.6796,6.6796,6.6796,6.6796,6.6796,6.6796,6.6796,6.6796,6.6796,6.6796,6.6796,6.6796,6.6796,6.6796,6.6791,6.6733,6.6784,6.6791,6.6732,6.6784,6.6796,6.6796,6.6796,6.7031,6.7654,6.7693,6.8044,6.8942,6.8966,6.9071,6.9307,6.9346,6.9346,6.9346,6.9363,6.9412,6.9412,6.9412,6.9412,6.9412,6.9356,6.9356,6.9411,6.9354,6.9178,6.8882,6.8882,6.8999,6.9233,6.9233,6.9582,7.0206,7.0832,7.1277,7.1572,7.1864,7.1987,7.1987,7.1987,7.1987,7.1987,0.0,0.0,0.0,0.0,0.0,0.0,0.0,0.0,0.0,0.0,5.6143,5.6178,0.0,0.0,0.0,0.0,0.0,0.0,0.0,5.64,5.661,5.7073,5.7074,5.7465,5.8285,5.9183,5.9324,5.87,5.9248,5.997,6.0939,6.0939,6.1211,6.1719,6.1719,6.1719,6.1719,6.1719,6.1914,6.2265,6.2774,6.3204,6.3595,0.0,0.0,0.0,0.0,0.0,0.0,0.0,0.0,0.0,6.6796,6.6796,6.6796,6.6796,6.6796,6.6796,6.6796,6.6796,6.6796,6.6796,6.6796,6.6796,6.6796,6.6796,6.6796,6.6796,6.6796,6.6796,6.6796,6.6796,6.6796,6.6796,6.6796,6.6913,6.7264,6.7303,6.7654,6.8513,6.863,6.8942,6.984,6.9918,7.0074,7.0426,7.0427,7.0427,7.0427,7.0427,7.0427,7.0427,7.0427,7.0427,7.0427,7.0427,7.0427,7.0427,7.0427,7.0427,7.0426,7.0074,7.0113,7.0427,7.0427,7.0738,7.1245,7.1792,7.1987,7.1987,7.1987,7.1987,7.1987,7.1987,7.1987,7.1987,0.0,0.0,0.0,0.0,0.0,0.0,0.0,0.0,0.0,0.0,5.6235,5.6336,0.0,0.0,0.0,0.0,0.0,0.0,0.0,5.669,5.7076,5.7894,5.7973,5.8402,5.9181,6.008,6.051,6.051,6.051,6.0939,6.1719,6.1719,6.1719,6.1719,6.1719,6.1758,6.1836,6.1836,6.2304,6.3125,6.3204,6.3711,6.4493,6.539,0.0,0.0,0.0,0.0,0.0,0.0,0.0,0.0,6.6796,6.6796,6.6796,6.6796,6.6796,6.6796,6.6796,6.6796,6.6796,6.6796,6.6796,6.6796,6.6796,6.6796,6.6796,6.6796,6.6796,6.6796,6.6796,6.6796,6.6835,6.6913,6.6913,6.7224,6.8083,6.8239,6.8552,6.9411,6.9528,6.9879,7.0737,7.0815,7.1167,7.1948,7.1987,7.1987,7.1987,7.1987,7.1987,7.1987,7.1987,7.1987,7.1987,7.1987,7.1987,7.1987,7.1987,7.1987,7.1987,7.1167,7.1245,7.1987,7.1987,7.1987,7.1987,7.1987,7.1987,7.1987,7.1987,7.1987,7.1987,7.1987,7.1987,7.1987,0.0,0.0,0.0,0.0,0.0,0.0,0.0,0.0,0.0,0.0,0.0,0.0,0.0,0.0,0.0,0.0,0.0,0.0,0.0,5.7557,5.7903,5.8792,5.9495,5.9924,6.0119,6.0977,6.1407,6.1407,6.1407,6.1524,6.1719,6.1719,6.1719,6.1719,6.1719,6.207,6.2735,6.2735,6.3204,6.4064,6.4765,6.5155,6.5429,6.6249,6.6523,0.0,0.0,0.0,0.0,0.0,0.0,0.0,6.6796,6.6796,6.6796,6.6796,6.6796,6.6796,6.6796,6.6796,6.6796,6.6796,6.6796,6.6796,6.6796,6.6796,6.6796,6.6796,6.6796,6.6796,6.6796,6.6796,6.7031,6.7693,6.781,6.8122,6.8981,6.9137,6.945,7.0309,7.0426,7.0777,7.1636,7.1714,7.1792,7.1987,7.1987,7.1987,7.1987,7.1987,7.1987,7.1987,7.1987,7.1987,7.1987,7.1987,7.1987,7.1987,7.1987,7.1987,7.1987,7.1792,7.1831,7.1987,7.1987,7.1987,7.1987,7.1987,7.1987,7.1987,7.1987,7.1987,7.1987,7.1987,7.1987,7.1987,0.0,0.0,0.0,0.0,0.0,0.0,0.0,0.0,0.0,0.0,0.0,0.0,0.0,0.0,0.0,0.0,0.0,0.0,0.0,0.0,5.8804,5.969,6.0549,6.1016,6.1016,6.1485,6.1914,6.2304,6.2304,6.2109,6.1719,6.2148,6.2304,6.2343,6.2774,6.3204,6.3634,6.3634,6.4142,6.496,6.5429,6.5819,6.6209,6.664,6.6796,6.6796,6.6796,0.0,0.0,0.0,0.0,0.0,0.0,0.0,6.6796,6.6796,6.6796,6.6796,6.6796,6.6796,6.6796,6.6796,6.6796,6.6796,6.6796,6.6796,6.6796,6.6796,6.6796,6.6796,6.6796,6.7148,6.7576,6.8044,6.8435,6.902,6.9918,7.0035,7.0348,7.1206,7.1324,7.1519,7.1948,7.1987,7.1987,7.1987,7.1987,7.1987,7.1987,7.1987,7.1987,7.1987,7.1987,7.1987,7.1987,7.1987,7.1987,7.1987,7.1987,7.1987,7.1987,7.1987,7.1987,7.1987,7.1987,7.1987,7.1987,7.1987,7.1987,7.1987,7.1987,7.1987,7.1987,7.1987,7.1987,7.1987,0.0,0.0,0.0,0.0,0.0,0.0,0.0,0.0,0.0,0.0,0.0,0.0,0.0,0.0,0.0,0.0,0.0,0.0,0.0,0.0,0.0,6.0588,6.1328,6.1758,6.1914,6.1914,6.2343,6.3204,6.3204,6.2852,6.2148,6.2891,6.3204,6.3243,6.3985,6.4376,6.4532,6.4532,6.504,6.5819,6.5819,6.6209,6.6796,6.6796,6.6796,6.6796,6.6796,6.6796,6.6796,6.6796,0.0,0.0,0.0,0.0,6.6796,6.6796,6.6796,6.6796,6.6796,6.6796,6.6796,6.6796,6.6796,6.6796,6.6796,6.6796,6.6796,6.6796,6.6796,6.6835,6.6992,6.7615,6.8199,6.8511,6.9137,6.9918,7.0815,7.0932,7.1206,7.1909,7.1987,7.1987,7.1987,7.1987,7.1987,7.1987,7.1987,7.1987,7.1987,7.1987,7.1987,7.1987,7.1987,7.1987,7.1987,7.1987,7.1987,7.1987,7.1987,7.1987,7.1987,7.1987,7.1987,7.1987,7.1987,7.1987,7.1987,7.1987,7.1987,7.1987,7.1987,7.1987,7.1987,7.1987,7.1987,7.1987,0.0,0.0,0.0,0.0,0.0,0.0,0.0,0.0,0.0,0.0,5.6601,5.6875,0.0,0.0,0.0,0.0,0.0,0.0,6.0193,0.0,0.0,6.1524,6.1641,6.2031,6.2813,6.2813,6.3243,6.4142,6.4142,6.4064,6.3946,6.4064,6.4142,6.4142,6.4259,6.4727,6.5429,6.5429,6.5897,6.664,6.664,6.6718,6.6796,6.6796,6.6796,6.6796,6.6796,6.6796,6.6796,6.6796,6.6796,0.0,0.0,0.0,6.6796,6.6796,6.6796,6.6796,6.6796,6.6796,6.6796,6.6796,6.6796,6.6796,6.6796,6.6796,6.6796,6.6796,6.6796,6.7031,6.7771,6.8004,6.859,7.0112,7.0463,7.0816,7.1714,7.1831,7.187,7.1987,7.1987,7.1987,7.1987,7.1987,7.1987,7.1987,7.1987,7.1987,7.1987,7.1987,7.1987,7.1987,7.1987,7.1987,7.1987,7.1987,7.1987,7.1987,7.1987,7.1987,7.1987,7.1987,7.1987,7.1987,7.1987,7.1987,7.1987,7.1987,7.1987,7.1987,7.1987,7.1987,7.1987,7.1987,7.1987,7.1987,0.0,0.0,0.0,0.0,0.0,0.0,0.0,0.0,0.0,0.0,0.0,5.7656,0.0,0.0,0.0,5.9805,5.9883,6.0234,6.1053,6.1476,6.1935,6.2393,6.2425,6.2852,6.3712,6.3712,6.4142,6.5038,6.5038,6.5274,6.5703,6.5703,6.5469,6.5038,6.5508,6.5898,6.6288,6.6288,6.6484,6.6796,6.6796,6.6796,6.6796,6.6796,6.6796,6.6796,6.6796,6.6796,6.6796,6.6796,6.6796,6.6796,6.6796,0.0,0.0,0.0,6.6796,6.6796,6.6796,6.6796,6.6796,6.6796,6.6796,6.6796,6.6796,6.6796,6.6796,6.6796,6.6796,6.707,6.7927,6.8513,6.9255,7.0502,7.1128,7.1558,7.1948,7.1987,7.1987,7.1987,7.1987,7.1987,7.1987,7.1987,7.1987,7.1987,7.1987,7.1987,7.1987,7.1987,7.1987,7.1987,7.1987,7.1987,7.1987,7.1987,7.1987,7.1987,7.1987,7.1987,7.1987,7.1987,7.1987,7.1987,7.1987,7.1987,7.1987,7.1987,7.1987,7.1987,7.1987,7.1987,7.1987,7.1987,7.1987,7.1987,0.0,0.0,0.0,0.0,0.0,0.0,0.0,0.0,0.0,0.0,0.0,0.0,0.0,0.0,0.0,0.0,6.0742,6.1093,6.1951,6.2222,6.2645,6.3298,6.3333,6.3758,6.4615,6.4615,6.5044,6.5902,6.5898,6.6209,6.6796,6.6796,6.6484,6.5936,6.6523,6.6796,6.6796,6.6796,6.6796,6.6796,6.6796,6.6796,6.6796,6.6796,6.6796,6.6796,6.6796,6.6796,6.6796,6.6796,6.6796,6.6796,6.6796,6.6796,0.0,0.0,0.0,6.6796,6.6796,6.6796,6.6796,6.6796,6.6796,6.6796,6.6796,6.6796,6.6796,6.6796,6.6796,6.7148,6.8239,6.8942,6.9762,7.0855,7.1597,7.1987,7.1987,7.1987,7.1987,7.1987,7.1987,7.1987,7.1987,7.1987,7.1987,7.1987,7.1987,7.1987,7.1987,7.1987,7.1987,7.1987,7.1987,7.1987,7.1987,7.1987,7.1987,7.1987,7.1987,7.1987,7.1987,7.1987,7.1987,7.1987,7.1987,7.1987,7.1987,7.1987,7.1987,7.1987,7.1987,7.1987,7.1987,7.1987,7.1987,7.1987,0.0,0.0,0.0,0.0,0.0,0.0,0.0,0.0,0.0,0.0,0.0,0.0,6.0234,6.0351,6.0703,6.1562,6.164,6.1992,6.2889,6.3709,6.4174,6.4236,6.4243,0.0,6.5524,6.5524,6.5914,6.6733,6.6723,6.6757,6.6796,6.6796,6.6796,6.6757,6.6796,6.6796,6.6796,6.6796,6.6796,6.6796,6.6796,6.6796,6.6796,6.6796,6.6796,6.6796,6.6796,6.6796,6.6796,6.6796,6.6796,6.6796,6.6796,6.6796,6.6796,0.0,0.0,0.0,6.6796,6.6796,6.6796,6.6796,6.6796,6.6796,6.6796,6.6796,6.6796,6.6796,6.6796,6.7304,6.9022,6.9373,6.9959,7.1675,7.1987,7.1987,7.1987,7.1987,7.1987,7.1987,7.1987,7.1987,7.1987,7.1987,7.1987,7.1987,7.1987,7.1987,7.1987,7.1987,7.1987,7.1987,7.1987,7.1987,7.1987,7.1987,7.1987,7.1987,7.1987,7.1987,7.1987,7.1987,7.1987,7.1987,7.1987,7.1987,7.1987,7.1987,7.1987,7.1987,7.1987,7.1987,7.1987,7.1987,7.1987,7.1987,0.0,0.0,0.0,0.0,0.0,0.0,0.0,0.0,0.0,0.0,0.0,0.0,0.0,6.1211,6.1601,6.2461,6.3047,6.3515,6.3828,6.4139,6.4567,6.5109,6.5147,6.5536,6.6431,6.6366,6.6483,6.6812,6.6757,6.6757,6.6796,6.6817,6.6817,6.6796,6.6796,6.6796,6.6796,6.6796,6.6796,6.6796,6.6796,6.6796,6.6796,6.6796,6.6796,6.6796,6.6796,6.6796,6.6796,6.6796,0.0,0.0,0.0,6.6796,6.6796,6.6796,6.6796,6.6796,6.6796,6.6796,6.6796,6.6796,6.6796,6.6796,6.6796,6.6796,6.6796,6.6796,6.6796,6.7343,6.91,6.9412,6.9959,7.1714,7.1987,7.1987,7.1987,7.1987,7.1987,7.1987,7.1987,7.1987,7.1987,7.1987,7.1987,7.1987,7.1987,7.1987,7.1987,7.1987,7.1987,7.1987,7.1987,7.1987,7.1987,7.1987,7.1987,7.1987,7.1987,7.1987,7.1987,7.1987,7.1987,7.1987,7.1987,7.1987,7.1987,7.1987,7.1987,7.1987,7.1987,7.1987,7.1987,7.1987,7.1987,7.1987,0.0,0.0,0.0,0.0,0.0,0.0,0.0,0.0,0.0,6.0781,0.0,0.0,0.0,0.0,6.2812,6.3398,6.4219,6.4726,6.4726,6.5,6.5429,6.5937,6.5976,6.621,6.6755,6.6426,6.6393,6.6757,6.6437,6.6443,6.6814,6.6783,6.6817,6.6796,6.6796,6.6796,6.6796,6.6796,6.6796,6.6796,6.6796,6.6796,6.6796,6.6796,6.6796,6.6796,6.6796,6.6796,6.6796,6.6796,0.0,0.0,0.0,0.0,6.6796,6.6796,6.6796,6.6796,6.6796,6.6796,6.6796,6.6796,6.6796,6.6796,6.6796,6.6796,6.6796,6.6796,6.6796,6.7226,6.8708,6.9215,6.9959,7.1714,7.1987,7.1987,7.1987,7.1987,7.1987,7.1987,7.1987,7.1987,7.1987,7.1987,7.1987,7.1987,7.1987,7.1987,7.1987,7.1987,7.1987,7.1987,7.1987,7.1987,7.1987,7.1987,7.1987,7.1987,7.1987,7.1987,7.1987,7.1987,7.1987,7.1987,7.1987,7.1987,7.1987,7.1987,7.1987,7.1987,7.1987,7.1987,7.1987,7.1987,7.1987,7.1987,0.0,0.0,0.0,0.0,0.0,0.0,0.0,0.0,6.1758,6.1758,0.0,0.0,0.0,0.0,0.0,6.4336,6.5156,6.5625,6.5625,6.6445,6.6834,6.6698,6.6687,6.6621,6.6521,6.5743,6.5806,6.67,6.5848,6.5898,6.6793,6.6813,6.6798,6.6796,6.6796,6.6796,6.6798,6.6796,6.6796,6.6796,6.6796,6.6796,6.6796,6.6796,6.6796,6.6796,6.6796,6.6796,6.6796,6.6796,0.0,0.0,0.0,0.0,0.0,0.0,0.0,6.6796,0.0,0.0,0.0,6.6796,6.6796,6.6796,6.6796,6.6796,6.6796,6.6796,6.6796,6.707,6.7927,6.8786,6.9919,7.1675,7.1987,7.1987,7.1987,7.1987,7.1987,7.1987,7.1987,7.1987,7.1987,7.1987,7.1987,7.1987,7.1987,7.1987,7.1987,7.1987,7.1987,7.1987,7.1987,7.1987,7.1987,7.1987,7.1987,7.1987,7.1987,7.1987,7.1987,7.1987,7.1987,7.1987,7.1987,7.1987,7.1987,7.1987,7.1987,7.1987,7.1987,7.1987,7.1987,7.1987,7.1987,7.1987,0.0,0.0,0.0,0.0,0.0,6.164,6.25,6.2656,6.2851,0.0,0.0,0.0,6.3945,6.4726,6.5234,6.5234,6.6055,6.6523,6.6523,6.6758,6.6833,6.6725,6.6787,6.6787,6.6639,6.6444,6.647,6.6756,6.6476,6.6482,6.6811,6.6784,6.6819,6.6796,6.6796,6.681,6.6787,6.6807,6.6796,6.6796,6.6796,6.6796,6.6796,6.6796,6.6796,6.6796,6.6796,6.6796,6.6796,6.6796,6.6796,6.6796,0.0,0.0,0.0,0.0,0.0,0.0,6.6796,0.0,0.0,0.0,0.0,0.0,6.6796,6.6796,6.6796,6.6796,6.6796,6.707,6.7927,6.8318,6.902,7.0777,7.1597,7.1987,7.1987,7.1987,7.1987,7.1987,7.1987,7.1987,7.1987,7.1987,7.1987,7.1987,7.1987,7.1987,7.1987,7.1987,7.1987,7.1987,7.1987,7.1987,7.1987,7.1987,7.1987,7.1987,7.1987,7.1987,7.1987,7.1987,7.1987,7.1987,7.1987,7.1987,7.1987,7.1987,7.1987,7.1987,7.1987,7.1987,7.1987,7.1987,7.1987,7.1987,0.0,0.0,0.0,0.0,6.2773,6.2969,6.3476,6.3555,6.3711,0.0,0.0,0.0,6.5351,6.5859,6.6133,6.6133,6.6601,6.6914,6.6914,6.6914,6.6832,6.6721,6.6781,6.6741,6.6625,6.6275,6.6344,6.6758,6.636,6.6366,6.6817,6.6791,6.6786,6.6798,6.6785,6.6792,6.6794,6.6792,6.6791,6.6791,6.6782,6.6817,6.6816,6.6802,6.6796,6.6796,6.6796,6.6806,6.6815,6.6801,6.6796,0.0,0.0,0.0,0.0,0.0,0.0,0.0,0.0,0.0,0.0,6.6796,0.0,0.0,6.6796,6.6796,6.6796,6.6796,6.6796,6.6952,6.7459,6.7849,6.8433,6.9448,7.066,7.1597,7.1948,7.1987,7.1987,7.1987,7.1987,7.1987,7.1987,7.1987,7.1987,7.1987,7.1987,7.1987,7.1987,7.1987,7.1987,7.1987,7.1987,7.1987,7.1987,7.1987,7.1987,7.1987,7.1987,7.1987,7.1987,7.1987,7.1987,7.1987,7.1987,7.1987,7.1987,7.1987,7.1987,7.1987,7.1987,7.1987,7.1987,7.1987,7.1987,7.1987,0.0,0.0,6.4297,6.4297,6.4297,6.4336,6.4414,6.4453,6.4492,0.0,6.5273,6.6055,6.6836,6.6992,6.7031,6.7031,6.7148,6.7187,6.7187,6.7187,6.7145,6.6996,6.6999,6.6945,6.6812,6.6122,6.6148,6.6998,6.6206,6.625,6.707,6.6989,6.6943,6.6928,6.6836,6.6794,6.6797,6.679,6.6782,6.6785,6.6797,6.6794,6.6793,6.681,6.6796,6.6796,6.6796,6.6816,6.679,6.6807,6.6796,6.6796,0.0,0.0,0.0,0.0,6.6796,0.0,0.0,0.0,0.0,0.0,6.6796,0.0,6.6796,6.6796,6.6796,6.6796,6.6796,6.6796,6.6796,6.742,6.8005,6.8082,6.9409,7.0737,7.1714,7.1948,7.1987,7.1987,7.1987,7.1987,7.1987,7.1987,7.1987,7.1987,7.1987,7.1987,7.1987,7.1987,7.1987,7.1987,7.1987,7.1987,7.1987,7.1987,7.1987,7.1987,7.1987,7.1987,7.1987,7.1987,7.1987,7.1987,7.1987,7.1987,7.1987,7.1987,7.1987,7.1987,7.1987,7.1987,7.1987,7.1987,7.1987,7.1987,0.0,6.4297,6.4297,6.4297,6.4297,6.4531,6.5234,6.5351,6.5586,6.6289,6.6523,6.6719,6.6875,6.7539,6.7969,6.7969,6.8555,6.8906,6.8906,6.8945,6.8943,6.8805,6.8825,6.8827,6.8778,6.8633,6.8633,6.8703,6.8669,6.8671,6.8723,6.8123,6.7847,6.781,6.7109,6.6754,6.6721,6.6712,6.6708,6.6716,6.6796,6.6794,6.6793,6.681,6.6796,6.6796,6.6796,6.6801,6.6806,6.6799,6.6796,6.6796,0.0,0.0,0.0,6.6796,0.0,0.0,0.0,0.0,0.0,0.0,6.6796,0.0,6.6796,6.6796,6.6796,6.6796,6.6796,6.6796,6.6796,6.6952,6.7264,6.8005,6.8394,6.9175,7.0737,7.1558,7.1987,7.1987,7.1987,7.1987,7.1987,7.1987,7.1987,7.1987,7.1987,7.1987,7.1987,7.1987,7.1987,7.1987,7.1987,7.1987,7.1987,7.1987,7.1987,7.1987,7.1987,7.1987,7.1987,7.1987,7.1987,7.1987,7.1987,7.1987,7.1987,7.1987,7.1987,7.1987,7.1987,7.1987,7.1987,7.1987,7.1987,7.1987,6.5586,6.5586,6.5586,6.5586,6.5586,6.5742,6.6172,6.625,6.6406,6.6836,6.7265,6.7695,6.8086,6.8555,6.8789,6.8789,6.9219,6.9453,6.9453,6.9453,6.9413,6.9331,6.9414,6.9414,6.9336,6.937,6.9368,6.9295,6.9371,6.9375,6.9289,6.8902,6.8708,6.8748,6.8262,6.8015,6.8015,6.7993,6.7984,6.7912,6.7101,6.6797,6.6793,6.681,6.6796,6.6796,6.6796,6.6796,6.6799,6.6816,6.6781,6.6781,6.6781,6.6788,6.6793,0.0,6.6781,6.6817,0.0,0.0,0.0,6.6796,0.0,0.0,0.0,6.6796,6.6796,6.6796,6.6796,6.6796,6.6796,6.6796,6.6952,6.7381,6.781,6.8394,6.9292,7.0543,7.1519,7.1948,7.1987,7.1987,7.1987,7.1987,7.1987,7.1987,7.1987,7.1987,7.1987,7.1987,7.1987,7.1987,7.1987,7.1987,7.1987,7.1987,7.1987,7.1987,7.1987,7.1987,7.1987,7.1987,7.1987,7.1987,7.1987,7.1987,7.1987,7.1987,7.1987,7.1987,7.1987,7.1987,7.1987,7.1987,7.1987,7.1987,6.6953,6.6914,6.6914,6.6914,6.6914,6.6953,6.7109,6.7148,6.7226,6.7383,6.8008,6.8672,6.9336,6.957,6.9648,6.9648,6.9843,6.996,6.9961,6.9922,6.9883,6.9883,6.9961,6.996,6.9917,6.9917,6.9876,6.987,6.9882,6.9882,6.9842,6.9656,6.9579,6.9606,6.9387,6.9304,6.9318,6.9297,6.9291,6.9184,6.784,6.7187,6.7066,6.7239,6.7187,6.707,6.7226,6.7304,6.7309,6.7293,6.7181,6.7064,6.7067,6.6953,0.0,0.0,0.0,0.0,0.0,0.0,0.0,0.0,0.0,6.6796,0.0,0.0,0.0,6.6796,6.6796,6.6796,6.6796,6.6796,6.6757,6.6601,6.7303,6.7849,6.7849,6.9214,7.0504,7.1402,7.1792,7.1948,7.1753,7.1909,7.1987,7.1987,7.1987,7.1987,7.1987,7.1987,7.1987,7.1987,7.1987,7.1987,7.1987,7.1987,7.1987,7.1987,7.1987,7.1987,7.1987,7.1987,7.1987,7.1987,7.1987,7.1987,7.1987,7.1987,7.1987,7.1987,7.1987,7.1987,7.1987,7.1987,7.1987,7.1987,6.7187,6.6914,6.6914,6.6914,6.6914,6.7148,6.793,6.8047,6.832,6.9101,6.9258,6.9336,6.9453,7.0116,7.0545,7.0545,7.1283,7.1712,7.1716,7.1716,7.1716,7.1716,7.1716,7.1713,7.1698,7.1697,7.1633,7.1523,7.164,7.1628,7.1421,7.0773,7.045,7.0422,6.9646,6.9306,6.9282,6.9314,6.9332,6.9374,6.9178,6.8631,6.8043,6.8801,6.863,6.8044,6.8825,6.91,6.91,6.9105,6.8597,6.7939,6.7962,6.7411,6.6818,6.6795,0.0,0.0,0.0,0.0,0.0,0.0,6.6796,6.6796,6.6796,0.0,6.6796,6.6796,0.0,6.6796,6.6796,0.0,0.0,6.5858,6.6405,6.6952,6.6952,6.7771,6.8708,6.9607,7.105,7.1714,7.0932,7.1558,7.1987,7.1987,7.1987,7.1987,7.1987,7.1987,7.1987,7.1987,7.1987,7.1987,7.1987,7.1987,7.1987,7.1987,7.1987,7.1987,7.1987,7.1987,7.1987,7.1987,7.1987,7.1987,7.1987,7.1987,7.1987,7.1987,7.1987,7.1987,7.1987,7.1987,7.1987,7.1987,6.8555,6.8398,6.8359,6.8359,6.8398,6.8515,6.8906,6.8906,6.9219,7.0078,7.0156,7.0351,7.0898,7.125,7.1444,7.1443,7.1792,7.1987,7.1989,7.199,0.0,7.1991,7.1992,7.199,7.1983,7.1983,7.1984,7.1909,7.1912,7.1896,7.1827,7.1445,7.1326,7.1351,7.0974,7.0798,7.0815,7.0819,7.082,7.0856,7.0884,7.0408,6.9587,6.9456,6.9176,6.8903,6.9256,6.9412,6.9412,6.9412,6.9152,6.8854,6.8862,6.8592,0.0,6.769,0.0,0.0,0.0,0.0,0.0,0.0,0.0,6.6784,6.6784,6.6784,6.6819,6.6801,0.0,0.0,0.0,0.0,0.0,0.0,6.6562,6.6796,6.6796,6.7537,6.8435,6.9295,7.0037,7.0543,7.0698,7.148,7.1987,7.1987,7.1987,7.1987,7.1987,7.1987,7.1987,7.1987,7.1987,7.1987,7.1987,7.1987,7.1987,7.1987,7.1987,7.1987,7.1987,7.1987,7.1987,7.1987,7.1987,7.1987,7.1987,7.1987,7.1987,7.1987,7.1987,7.1987,7.1987,7.1987,7.1987,7.1987,7.0195,0.0,6.9414,6.9414,6.9453,6.9531,6.9805,7.0,7.0351,7.0976,7.1055,7.1289,7.1914,7.1992,7.199,7.1988,7.1985,7.1984,7.1985,7.1986,7.1988,7.1991,7.1991,7.199,7.1986,7.1986,7.2019,7.2001,7.1914,7.1906,7.1909,7.1852,7.185,7.1902,7.189,7.1906,7.1911,7.1907,7.1944,7.1943,7.1961,7.1636,7.0972,7.0074,6.9918,7.0115,7.0115,7.0115,7.0115,7.0115,6.9936,6.9756,6.9761,6.9569,6.9218,0.0,0.0,0.0,6.7693,6.7343,6.7143,6.7147,6.6992,6.6795,6.6796,6.6797,6.6758,6.6752,6.6752,0.0,0.0,0.0,6.671,0.0,0.0,6.6705,6.6471,6.7173,6.7987,6.8595,6.8903,6.9489,7.058,7.1285,7.1753,7.1987,7.1987,7.1987,7.1987,7.1987,7.1987,7.1987,7.1987,7.1987,7.1987,7.1987,7.1987,7.1987,7.1987,7.1987,7.1987,7.1987,7.1987,7.1987,7.1987,7.2143,7.2378,7.2378,7.2495,7.269,7.269,7.269,7.2651,7.2456,7.2495,7.269,7.1914,7.0546,6.9412,6.9414,6.9413,6.9686,7.0547,7.1367,7.1914,7.1953,7.1953,7.1953,7.1992,7.1988,7.1981,7.1981,7.2003,7.1995,7.2006,7.2007,7.2011,7.1981,7.1981,7.2016,7.2007,7.2007,7.2001,7.1989,7.1943,7.1912,7.1912,7.1909,7.1901,7.1903,7.1914,7.1912,7.1911,7.1966,7.199,7.199,7.1989,7.1987,7.187,7.0972,7.1167,7.1909,7.1909,7.1909,7.1909,7.1909,7.1363,7.0668,7.0656,7.0064,6.9389,6.9295,6.9295,6.9345,6.9329,6.8695,6.8055,6.8041,6.7419,6.6796,6.6791,6.6736,6.6683,6.6684,6.6583,6.653,6.6679,0.0,0.0,0.0,0.0,0.0,0.0,6.628,6.6835,6.6883,6.7615,6.8824,7.0541,7.0737,7.1089,7.1948,7.1987,7.1987,7.1987,7.1987,7.1987,7.1987,7.1987,7.1987,7.1987,7.1987,7.1987,7.1987,7.1987,7.1987,7.1987,7.1987,7.1987,7.1987,7.1987,7.2495,7.3274,7.3274,7.3703,7.4408,7.4408,7.4408,7.433,7.3547,7.3743,7.4408,0.0,0.0,7.1131,7.1133,7.1133,7.1211,7.1523,7.1797,7.1992,7.1991,7.1991,7.199,7.1987,7.1983,7.2017,7.2011,7.2004,7.2002,7.2005,7.2006,7.201,7.2019,7.2019,7.2016,7.2006,7.2006,7.2001,7.1987,7.1943,7.1911,7.1911,7.191,7.1909,7.1914,7.1913,7.1906,7.1967,7.1994,7.1987,7.1987,7.1987,7.1964,7.1902,7.1646,7.1753,7.1987,7.1987,7.1987,7.1987,7.1987,7.1792,7.156,7.1573,7.1374,7.0982,7.0388,7.0231,7.0109,6.9492,6.9139,6.8821,6.8242,6.789,6.75,6.6896,6.6724,6.6674,6.6574,6.6519,6.6514,0.0,0.0,0.0,0.0,0.0,0.0,0.0,6.6429,6.6596,6.6581,6.75,6.8576,6.9726,7.0348,7.105,7.1948,7.1987,7.1987,7.1987,7.1987,7.1987,7.1987,7.1987,7.1987,7.1987,7.1987,7.1987,7.1987,7.1987,7.1987,7.2026,7.2612,7.2845,7.2884,7.3432,7.3822,7.4095,7.4095,7.4251,7.4486,7.4486,7.4837,7.5268,7.4408,7.4251,7.4486,7.1992,7.199,7.1989,7.1991,7.1991,7.199,7.199,7.199,7.199,7.1987,7.1987,7.1985,7.1981,7.2017,7.2013,7.2006,7.2002,7.2,7.2,7.2,7.2003,7.201,7.201,7.2007,0.0,0.0,7.1996,7.1987,7.1972,7.1941,7.1942,7.1952,7.1951,7.1941,7.1941,7.1971,7.1987,7.1987,7.1987,7.1987,7.1987,7.1964,7.194,7.1997,7.1997,7.1967,7.1994,7.1987,7.1987,7.1987,7.1987,7.1987,7.1987,7.1987,7.1875,7.1311,7.1159,7.1045,7.0428,7.0074,6.9718,6.9179,6.8789,6.832,6.7391,6.7133,6.6995,6.6631,6.647,6.6449,0.0,0.0,0.0,0.0,0.0,0.0,0.0,6.6509,6.6483,6.6512,6.7159,6.8086,6.9246,6.9902,7.0712,7.191,7.1987,7.1987,7.1987,7.1987,7.1987,7.1987,7.1987,7.1987,7.1987,7.1987,7.1987,7.1987,7.1987,7.2143,7.2495,7.304,7.3469,7.3743,7.4251,7.4681,7.4954,7.4954,7.5149,7.5423,7.5423,7.5774,7.6166,7.5266,7.5149,7.5423,7.2106,7.2141,7.2139,7.2144,7.2063,7.2019,7.2019,7.2019,7.2019,7.2019,7.2019,7.2019,7.2018,7.2011,7.2005,7.2005,7.1995,7.1987,7.1987,7.1987,7.1987,7.1987,7.1987,7.1987,7.1987,0.0,0.0,0.0,7.1987,7.1987,7.1987,7.1987,7.1987,7.1987,7.1987,7.1987,7.1987,7.1987,7.1987,7.1987,7.1987,7.1989,7.1991,7.1989,7.1971,7.191,7.1963,7.1987,7.1987,7.1987,7.1987,7.1987,7.1987,7.1987,7.1987,7.1987,7.1987,7.1987,7.1987,7.1402,7.0747,7.0696,7.0075,6.9219,6.8277,6.7994,6.7711,6.6876,6.6582,6.645,6.6528,6.6437,0.0,0.0,0.0,0.0,0.0,6.6497,6.65,6.6489,6.6656,6.7392,6.9059,6.9336,7.0108,7.1799,7.1989,7.1987,7.1987,7.1987,7.1987,7.1987,7.1987,7.1987,7.1987,7.1987,7.1987,7.1987,7.2026,7.2495,7.3313,7.3391,7.3821,7.4564,7.4603,7.511,7.5853,7.5853,7.6361,7.7101,7.7101,7.7101,7.6984,7.6166,7.64,7.7101,7.3819,7.393,7.3924,7.3927,7.2876,7.2019,7.2019,7.2019,7.2017,7.2011,7.201,7.2007,7.1999,7.1995,7.1993,7.1993,7.199,7.1987,7.1987,7.1987,7.1987,7.1987,7.1987,7.1987,7.1987,7.1987,7.1987,7.1987,7.1987,7.1987,7.1987,7.1987,7.1987,7.1987,7.1987,7.1987,7.1987,7.1987,7.1987,7.1987,7.1987,7.1966,7.1943,7.2,7.1971,7.191,7.1963,7.1987,7.1987,7.1987,7.1987,7.1987,7.1987,7.1987,7.1987,7.1987,7.1987,7.1987,7.1987,7.1831,7.1529,7.0853,7.0544,7.0117,6.9103,6.8862,6.8782,6.8444,6.8338,6.81,6.7437,6.7295,6.7065,0.0,0.0,0.0,0.0,0.0,6.6283,6.6281,6.7012,6.7727,6.8211,6.8901,6.9804,7.0968,7.1613,7.1987,7.1987,7.1987,7.1987,7.1987,7.1987,7.1987,7.1987,7.1987,7.1987,7.2026,7.2651,7.3079,7.3352,7.4603,7.5268,7.5502,7.6164,7.6555,7.6789,7.6789,7.6906,7.7101,7.7101,7.7101,7.7062,7.6867,7.6906,7.7101,7.4513,7.4584,7.4574,7.4574,7.3721,7.2984,7.2632,7.2867,7.2982,7.2623,7.2583,7.2581,7.2573,7.2221,7.1987,7.1987,7.1987,7.1987,7.1987,7.1987,7.1987,7.1987,7.1987,7.1987,7.1987,7.1987,0.0,7.1987,7.1987,7.1987,7.1987,7.1987,7.1987,7.1987,7.1987,7.1987,7.1987,7.1987,7.1987,7.1987,7.1987,7.1962,0.0,7.1996,7.1963,7.1937,7.1996,7.1987,7.1987,7.1987,7.1987,7.1987,7.1987,7.1987,7.1987,7.1987,7.1987,7.1987,7.1987,7.1962,7.1859,7.1363,7.1211,7.0971,7.0042,6.9822,6.9679,6.9247,6.9116,6.8913,6.8321,6.7885,6.7284,0.0,0.0,0.0,0.0,0.0,0.0,6.6185,6.6734,6.7129,6.7197,6.8836,7.0117,7.0586,7.1472,7.1966,7.1904,7.1968,7.1994,7.1989,7.1987,7.1987,7.1987,7.1987,7.2182,7.2573,7.3079,7.3664,7.4408,7.5385,7.601,7.64,7.6874,7.7111,7.7111,7.7117,7.7081,7.7081,7.7081,7.7081,7.7081,7.7081,7.7116,7.7112,7.4895,7.4885,7.4837,7.4837,7.4837,7.4564,7.3743,7.4134,7.4251,7.3547,7.3469,7.3469,7.3469,7.2768,7.2339,7.2339,7.2339,7.2339,7.2339,7.2339,7.2339,7.2339,7.2221,7.2182,7.2182,7.2065,7.1987,0.0,7.1987,7.1987,7.1987,7.1987,7.1987,7.1987,7.1987,7.1987,7.2026,7.2104,7.2182,7.2182,7.23,7.2339,7.2339,7.2339,7.2339,7.2339,7.2339,7.2182,7.1987,7.1987,7.1987,7.1987,7.1987,7.1987,7.1989,7.1994,7.1996,7.1997,7.2002,7.1943,7.1913,7.1914,7.191,7.1695,7.095,7.0742,7.0536,6.977,6.9595,6.9454,6.9205,6.8411,6.7498,0.0,0.0,0.0,0.0,0.0,0.0,0.0,6.6481,0.0,6.6506,6.889,7.0422,7.0331,7.1328,7.1911,7.1795,7.191,7.1968,7.1989,7.1987,7.1987,7.1987,7.2104,7.2534,7.3313,7.3508,7.4408,7.5814,7.5934,7.6364,7.7106,7.712,7.7086,7.7086,7.7095,7.7098,7.7098,7.7099,7.7101,7.7104,7.7105,7.7065,7.7062,7.6538,7.6642,7.6633,7.6633,7.6633,7.636,7.5502,7.4876,7.4447,7.433,7.429,7.429,7.429,7.4134,7.4056,7.4056,7.4056,7.4056,7.4056,7.4056,7.4056,7.4056,7.3432,7.3079,7.3079,7.2378,7.1987,7.1987,7.1987,7.1987,7.1987,7.1987,7.1987,7.1987,7.1987,7.1987,7.2065,7.2768,7.3079,7.3118,7.3783,7.4056,7.4056,7.4056,7.4056,7.4056,7.4056,7.3158,7.1987,7.1987,7.1987,7.1987,7.1987,7.1987,7.1995,7.1942,7.1908,7.191,7.1913,7.191,7.1904,7.1919,7.1905,7.1847,7.1624,7.1607,7.1562,7.1393,7.1344,7.1069,7.0234,6.925,6.8527,6.8352,6.8346,6.8346,0.0,0.0,0.0,0.0,0.0,6.8182,6.753,6.8514,6.9262,6.9333,7.0772,7.1725,7.1794,7.1835,7.1872,7.199,7.1987,7.1987,7.1987,7.2729,7.3157,7.3313,7.4681,7.5502,7.5814,7.6529,7.6963,7.7081,7.7092,7.7096,7.7096,7.7097,7.7098,7.7099,7.7143,7.7109,7.7026,7.7012,7.6947,7.6892,7.7035,7.7107,7.7101,7.7101,7.7101,7.6945,7.6555,7.6125,7.5696,7.5229,7.519,7.519,7.519,7.4759,7.4486,7.4486,7.4486,7.4486,7.4486,7.4486,7.4486,7.4486,7.4134,7.3939,7.3939,7.351,7.3315,7.3315,7.3315,7.308,7.2651,7.2651,7.2651,7.269,7.3119,7.3315,7.3315,7.3744,7.3939,7.3978,7.433,7.4486,7.4486,7.4486,7.4486,7.4486,7.4486,7.3978,7.3315,7.3315,7.3315,7.3315,7.3315,7.3315,7.3201,7.275,7.2638,7.2526,7.2031,7.191,7.1896,7.1899,7.1862,7.1828,7.1827,7.1819,7.1819,7.1819,7.1819,7.1471,7.0472,6.9898,6.9386,6.8898,6.881,6.881,6.881,0.0,6.8656,0.0,0.0,0.0,6.8301,6.8992,6.9532,6.965,7.0918,7.1663,7.1749,7.1775,7.1874,7.2008,7.2006,7.2202,7.2671,7.31,7.3764,7.4663,7.5483,7.607,7.6499,7.6895,7.7092,7.7093,7.7139,7.7142,7.7143,7.707,7.7019,7.6961,7.6994,7.6939,7.6913,7.6891,7.6861,7.6804,7.7106,7.7103,7.7101,7.7101,7.7101,7.7101,7.7101,7.7101,7.6867,7.6166,7.6088,7.6088,7.6088,7.5462,7.5032,7.5032,7.5032,7.5032,7.5032,7.5032,7.5032,7.5032,7.4876,7.4798,7.4798,7.4603,7.4486,7.4486,7.4486,7.4095,7.3313,7.3469,7.3547,7.3586,7.4212,7.4486,7.4525,7.4681,7.4798,7.4798,7.4993,7.5038,7.5045,7.5036,7.5038,7.5045,7.5045,7.5045,7.5047,7.5054,7.4774,7.4487,7.4496,7.4499,7.4385,7.3734,7.3542,7.3352,7.2616,7.2292,7.215,7.2152,7.1982,7.1819,7.1819,7.1819,7.1819,7.1819,7.1808,7.153,7.0701,7.0516,7.022,6.9451,6.9313,6.9313,6.9313,6.9313,0.0,0.0,0.0,0.0,6.9048,6.9628,7.0127,7.039,7.1188,7.1632,7.1664,7.1702,7.1808,7.1914,7.1914,7.2343,7.3203,7.3398,7.4296,7.5856,7.6051,7.6478,7.7098,7.7105,7.7068,7.7068,7.7109,7.7107,7.7106,7.699,7.6882,7.6802,7.6802,7.6786,7.6761,7.6761,7.6741,7.6713,7.7118,7.7111,7.7101,7.7101,7.7101,7.7101,7.7101,7.7101,7.7062,7.6984,7.6984,7.6984,7.6984,7.6906,7.6867,7.6867,7.6867,7.6867,7.6867,7.6867,7.6867,7.6867,7.6088,7.5697,7.5697,7.4915,7.4486,7.4486,7.4486,7.4095,7.3313,7.4056,7.4408,7.4408,7.4486,7.4486,7.4564,7.5346,7.5697,7.5736,7.6555,7.685,7.6868,7.6843,7.6851,7.687,7.687,7.687,7.6832,7.6795,7.5779,7.4492,7.4483,7.4488,7.4452,7.4346,7.4285,7.4274,7.4173,7.36,7.3007,7.2999,7.2409,7.1819,7.1819,7.1819,7.1819,7.1819,7.1731,7.1665,7.1501,7.1408,7.1305,7.112,7.1059,7.1059,7.1059,7.1059,7.075,6.9982,0.0,0.0,6.9904,6.9943,7.0335,7.113,7.1273,7.1392,7.1516,7.1499,7.1549,7.1638,7.1642,7.2071,7.2927,7.371,7.4679,7.5733,7.6516,7.6953,7.71,7.7027,7.7013,7.701,7.6893,7.6841,7.6841,7.6824,7.6813,7.6802,7.6802,7.6724,7.6631,7.6631,7.6522,7.6433,7.711,7.7106,7.7101,7.7101,7.7101,7.7101,7.7101,7.7101,7.7101,7.7101,7.7101,7.7101,7.7101,7.7101,7.7101,7.7101,7.7101,7.7101,7.7101,7.7101,7.7101,7.7101,7.6789,7.6594,7.6594,7.6242,7.6047,7.6047,7.6047,7.5618,7.4798,7.5112,7.5268,7.5307,7.5813,7.6047,7.6086,7.6438,7.6569,7.6626,7.6978,7.7067,7.703,7.7031,7.7031,7.7029,7.7029,7.7029,7.7029,7.7023,7.656,7.6015,7.6015,7.6014,7.5895,7.5407,7.5242,7.5117,7.4556,7.4147,7.3865,7.3896,7.3609,7.3375,7.3375,7.2947,7.2596,7.2596,7.2148,7.1748,7.1626,7.1568,7.1493,7.1324,7.1297,7.1297,7.1297,7.1297,0.0,7.0833,0.0,7.0794,7.0794,7.0794,7.091,7.1258,7.1297,7.1363,7.1497,7.1505,7.1549,7.1651,7.2118,7.2781,7.368,7.4535,7.5455,7.6351,7.6704,7.6878,7.6903,7.6905,7.6915,7.6991,7.6956,7.6866,7.6802,7.6802,7.6703,7.655,7.655,7.6541,7.6465,7.6465,7.6444,7.6403,7.7101,7.7101,7.7101,7.7101,7.7101,7.7101,7.7101,7.7101,7.7101,7.7101,7.7101,7.7101,7.7101,7.7101,7.7101,7.7101,7.7101,7.7101,7.7101,7.7101,7.7101,7.7101,7.7101,7.7101,7.7101,7.7101,7.7101,7.7101,7.7101,7.6633,7.5814,7.5814,7.5932,7.6205,7.6828,7.7108,7.712,7.712,7.7097,7.707,7.707,7.7028,7.7008,7.7017,7.7015,7.7007,7.7007,7.7007,7.7006,7.6995,7.699,7.6993,7.7004,7.7007,7.6888,7.6327,7.6167,7.6004,7.5341,7.4977,7.4769,7.4792,7.4583,7.4388,7.4388,7.3921,7.3492,7.3492,7.2791,7.2136,7.2014,7.1773,7.1551,7.1376,7.1318,7.1297,7.1297,7.1297,0.0,7.1297,7.1297,7.1297,7.1297,7.1297,7.1297,7.1297,7.1523,7.1598,7.1434,7.1671,7.1888,7.1966,7.2744,7.3596,7.4456,7.5074,7.5839,7.6741,7.6741,7.6764,7.6802,7.6761,7.6796,7.6871,7.6841,7.6796,7.6738,7.6695,7.6569,7.6403,7.6403,7.6403,7.6403,7.6403,7.6403,7.6403,7.7101,7.7101,7.7101,7.7101,7.7101,7.7101,7.7101,7.7101,7.7101,7.7101,7.7101,7.7101,7.7101,7.7101,7.7101,7.7101,7.7101,7.7101,7.7101,7.7101,7.7101,7.7101,7.7101,7.7101,7.7101,7.7101,7.7101,7.7101,7.7101,7.6633,7.5814,7.5814,7.6244,7.7062,7.7101,7.7084,7.7106,7.7106,7.707,7.6982,7.6982,7.7002,7.7002,7.7009,7.7,7.6997,7.6997,7.6997,7.6987,7.6991,7.7002,7.7017,7.7016,7.6997,7.6985,7.6989,7.7002,7.6963,7.696,7.6337,7.5674,7.5674,7.5051,7.4388,7.4388,7.4388,7.4388,7.4388,7.3687,7.3046,7.3013,7.224,7.1568,7.1508,7.1405,7.1297,7.1297,7.1297,7.1297,7.1297,7.1297,7.1297,7.1297,7.1297,7.1297,7.1297,7.2104,7.222,7.1336,7.2109,7.2573,7.2579,7.3425,7.4276,7.5088,7.5082,7.5591,7.6609,7.6609,7.6661,7.6799,7.665,7.6609,7.66,7.6477,7.6465,7.6591,7.6466,7.6409,7.6403,7.6403,7.6403,7.6403,7.6403,7.6403,7.6403,7.7101,7.7101,7.7101,7.7101,7.7101,7.7101,7.7101,7.7101,7.7101,7.7101,7.7101,7.7101,7.7101,7.7101,7.7101,7.7101,7.7101,7.7101,7.7101,7.7101,7.7101,7.7101,7.7101,7.7101,7.7101,7.7101,7.7101,7.7101,7.7101,7.6945,7.6672,7.6672,7.6828,7.7101,7.7101,7.7085,7.7106,7.7106,7.7068,7.6983,7.6983,7.7012,7.6997,7.7004,7.7002,7.6989,7.6941,7.6963,7.6986,7.6858,7.688,7.6996,7.6906,7.693,7.6997,7.7008,7.6999,7.6999,7.6999,7.6804,7.661,7.661,7.6376,7.6181,7.6181,7.5713,7.5129,7.4505,7.4194,7.3927,7.376,7.3518,7.3255,7.3152,7.259,7.2181,7.2181,7.1678,7.1297,7.1297,7.1297,7.1523,7.2142,7.2181,7.2413,7.3032,7.3342,7.3109,7.222,7.2993,7.3496,7.3496,7.4303,7.4844,7.5115,7.5701,7.6167,7.6477,7.6477,7.6551,7.665,7.6631,7.6634,7.6728,7.66,7.655,7.66,7.6541,7.6465,7.6403,7.6403,7.6403,7.6403,7.6403,7.6403,7.6403,7.7101,7.7101,7.7101,7.7101,7.7101,7.7101,7.7101,7.7101,7.7101,7.7101,7.7101,7.7101,7.7101,7.7101,7.7101,7.7101,7.7101,7.7101,7.7101,7.7101,7.7101,7.7101,7.7101,7.7101,7.7101,7.7101,7.7101,7.7101,7.7101,7.7101,7.7101,7.7101,7.7101,7.7101,7.7117,7.71,7.707,7.707,7.7053,7.7001,7.7011,7.7014,7.6995,7.7039,7.7046,7.7046,7.6921,7.6921,7.6939,7.6746,7.6782,7.6917,7.6834,7.6848,7.6927,7.699,7.6999,7.6999,7.6999,7.6999,7.6999,7.6999,7.6999,7.6999,7.6999,7.6571,7.6025,7.548,7.5129,7.4823,7.4705,7.4338,7.407,7.3976,7.3447,7.3109,7.3109,7.2607,7.2297,7.2297,7.2297,7.2491,7.3032,7.3109,7.3303,7.3844,7.4187,7.411,7.3574,7.4032,7.4342,7.4342,7.516,7.5585,7.5585,7.6127,7.6403,7.6403,7.6403,7.6487,7.66,7.657,7.6605,7.6717,7.6582,7.6536,7.66,7.6565,7.6493,7.6403,7.6403,7.6403,7.6403,7.6403,7.6403,7.6403,7.7101,7.7101,7.7101,7.7101,7.7101,7.7101,7.7101,7.7101,7.7101,7.7101,7.7101,7.7101,7.7101,7.7101,7.7101,7.7101,7.7101,7.7101,7.7101,7.7101,7.7101,7.7101,7.7101,7.7101,7.7101,7.7101,7.7101,7.7101,7.7101,7.7101,7.7101,7.7101,7.7101,7.7103,7.7097,7.707,7.7022,7.7022,7.7023,7.703,7.6994,7.7002,7.7006,7.7072,7.7081,7.7072,7.6924,7.6867,7.6846,7.6725,7.6734,7.6808,7.6801,7.6805,7.6823,7.6933,7.6987,7.6984,7.6984,7.6984,7.6984,7.6984,7.6984,7.6987,7.6996,7.6993,7.699,7.699,7.6331,7.5764,7.5687,7.4907,7.4234,7.4174,7.4071,7.3999,7.3999,7.396,7.3883,7.3883,7.3883,7.3922,7.3999,7.3999,7.3999,7.4077,7.4767,7.5193,7.5193,7.5193,7.5193,7.5193,7.5972,7.6403,7.6403,7.6403,7.6403,7.6403,7.6421,7.6459,7.66,7.6487,7.6465,7.6596,7.6466,7.6487,7.6573,7.6455,7.6403,7.6403,7.6403,7.6403,7.6403,7.6403,7.6403,7.6403,7.7101,7.7101,7.7101,7.7101,7.7101,7.7101,7.7101,7.7101,7.7101,7.7101,7.7101,7.7101,7.7101,7.7101,7.7101,7.7101,7.7101,7.7101,7.7101,7.7101,7.7101,7.7101,7.7101,7.7101,7.7101,7.7101,7.7101,7.7101,7.7101,7.7101,7.7101,7.7101,7.7101,7.7101,7.7112,7.7095,7.707,7.707,7.7064,7.71,7.7081,7.7092,7.7055,7.6973,7.696,7.6915,7.6724,7.6707,7.6721,7.6524,7.6575,7.6704,7.6671,7.666,7.6734,7.6819,7.6801,7.6785,7.6785,7.6785,7.6785,7.6785,7.6785,7.6821,7.6975,7.692,7.6844,7.6844,7.6689,7.649,7.637,7.6163,7.5953,7.5841,7.5254,7.4806,7.4806,7.4309,7.3883,7.3883,7.3883,7.4154,7.4767,7.4806,7.5082,7.574,7.5972,7.6088,7.6088,7.6088,7.6088,7.6088,7.6287,7.6403,7.6403,7.6403,7.6403,7.6403,7.6501,7.6559,7.6605,7.6559,7.6564,7.6596,7.6466,7.6432,7.6444,7.6426,7.6403,7.6403,7.6403,7.6403,7.6403,7.6403,7.6403,7.6403,7.7101,7.7101,7.7101,7.7101,7.7101,7.7101,7.7101,7.7101,7.7101,7.7101,7.7101,7.7101,7.7101,7.7101,7.7101,7.7101,7.7101,7.7101,7.7101,7.7101,7.7101,7.7101,7.7101,7.7101,7.7101,7.7101,7.7101,7.7101,7.7101,7.7101,7.7101,7.7101,7.7101,7.7101,7.7082,7.7097,7.7106,7.7108,7.7064,7.7006,7.7041,7.6998,7.6926,7.6886,7.6839,7.6829,7.6661,7.6605,7.6617,7.6444,7.6521,7.6648,7.6594,7.6614,7.6667,7.6682,7.6691,7.6682,7.6682,7.6682,7.6682,7.6682,7.6682,7.6747,7.6844,7.679,7.6758,7.6758,7.6758,7.6717,7.6604,7.6612,7.6576,7.6421,7.6011,7.5701,7.5701,7.5314,7.5044,7.5044,7.5044,7.5198,7.5662,7.5701,7.5895,7.6365,7.6403,7.6403,7.6403,7.6403,7.6403,7.6403,7.6403,7.6403,7.6403,7.6403,7.6416,7.648,7.6501,7.6555,7.66,7.6551,7.6511,7.6501,7.6422,7.6403,7.6403,7.6403,7.6403,7.6403,7.6403,7.6403,7.6403,7.6403,7.6403,7.6403,7.7101,7.7101,7.7101,7.7101,7.7101,7.7101,7.7101,7.7101,7.7101,7.7101,7.7101,7.7101,7.7101,7.7101,7.7101,7.7101,7.7101,7.7101,7.7101,7.7101,7.7101,7.7101,7.7101,7.7103,7.7104,7.7107,7.7108,7.7108,7.7108,7.7108,7.7108,7.7108,7.7108,7.711,7.7098,7.7107,7.7069,7.707,7.7007,7.6897,7.6948,7.6876,7.6729,7.6763,7.6777,7.6757,7.6605,7.6559,7.6536,7.6433,7.6472,7.6586,7.6586,7.6586,7.6586,7.6586,7.6614,7.6642,7.6642,7.6642,7.6642,7.6699,7.6651,7.6646,7.6678,7.6673,7.666,7.666,7.666,7.6671,7.6568,7.6586,7.6521,7.6421,7.6403,7.6403,7.6403,7.6403,7.6403,7.6403,7.6403,7.6403,7.6403,7.6403,7.6403,7.6403,7.6403,7.6403,7.6403,7.6403,7.6403,7.6403,7.6403,7.6403,7.6403,7.6403,7.6466,7.6559,7.646,7.6466,7.6555,7.6455,7.6403,7.6403,7.6403,7.6403,7.6403,7.6403,7.6403,7.6403,7.6403,7.6403,7.6403,7.6403,7.6403,7.6403,7.7101,7.7101,7.7101,7.7101,7.7101,7.7101,7.7101,7.7101,7.7101,7.7101,7.7101,7.7101,7.7101,7.7101,7.7101,7.7101,7.7101,7.7101,7.7101,7.7101,7.7101,7.7101,7.7101,7.7107,7.712,7.709,7.7094,7.7094,7.7094,7.7094,7.7094,7.7094,7.7094,7.7094,7.7098,7.7069,7.7024,7.7024,7.6952,7.6812,7.6832,7.6809,7.6783,7.6669,7.6617,7.6596,7.6465,7.6416,7.6411,7.6415,7.6415,7.6432,7.6432,7.6432,7.6432,7.6432,7.6444,7.6455,7.6455,7.6455,7.6483,7.6578,7.6531,7.651,7.6646,7.6662,7.6637,7.6637,7.6637,7.6568,7.6455,7.6432,7.6426,7.6403,7.6403,7.6403,7.6403,7.6403,7.6403,7.6403,7.6403,7.6403,7.6403,7.6403,7.6403,7.6403,7.6403,7.6403,7.6403,7.6403,7.6403,7.6403,7.6403,7.6403,7.6403,7.6403,7.6421,7.6416,7.6421,7.6421,7.6416,7.6421,7.6403,7.6403,7.6403,7.6403,7.6403,7.6403,7.6403,7.6403,7.6403,7.6403,7.6403,7.6403,7.6403,7.6403,7.7101,7.7101,7.7101,7.7101,7.7101,7.7101,7.7101,7.7101,7.7101,7.7101,7.7101,7.7101,7.7101,7.7101,7.7101,7.7101,7.7101,7.7101,7.7101,7.7101,7.7101,7.7101,7.7101,7.7108,7.7083,7.7093,7.7098,7.7098,7.7098,7.7098,7.7098,7.7098,7.7098,7.7098,7.7098,7.7069,7.6981,7.7015,7.6878,7.6706,7.6685,7.6653,7.6578,7.6521,7.648,7.647,7.6405,7.6403,7.6403,7.6403,7.6403,7.6403,7.6403,7.6403,7.6403,7.6403,7.6403,7.6403,7.6403,7.6403,7.6415,7.6472,7.6444,7.6432,7.6537,7.6521,7.6483,7.6483,7.6483,7.6466,7.6415,7.6403,7.6403,7.6403,7.6403,7.6403,7.6403,7.6403,7.6403,7.6403,7.6403,7.6403,7.6403,7.6403,7.6403,7.6403,7.6403,7.6403,7.6403,7.6403,7.6403,7.6403,7.6403,7.6403,7.6403,7.6403,7.6403,7.6403,7.6403,7.6403,7.6403,7.6403,7.6403,7.6403,7.6403,7.6403,7.6403,7.6403,7.6403,7.6403,7.6403,7.6403,7.6403,7.6403,7.6403,7.6403,7.7101,7.7101,7.7101,7.7101,7.7101,7.7101,7.7101,7.7101,7.7101,7.7101,7.7101,7.7101,7.7101,7.7101,7.7101,7.7101,7.7101,7.7101,7.7101,7.7101,7.7101,7.7101,7.7108,7.7117,7.7087,7.7137,7.7103,7.7103,7.7103,7.7103,7.7103,7.7103,7.7103,7.7103,7.7103,7.707,7.6959,7.6947,7.6799,7.6552,7.6555,7.648,7.6403,7.6403,7.6403,7.6403,7.6403,7.6403,7.6403,7.6403,7.6403,7.6403,7.6403,7.6403,7.6403,7.6403,7.6403,7.6403,7.6403,7.6403,7.6403,7.6403,7.6403,7.6403,7.6403,7.6403,7.6403,7.6403,7.6403,7.6403,7.6403,7.6403,7.6403,7.6403,7.6403,7.6403,7.6403,7.6403,7.6403,7.6403,7.6403,7.6403,7.6403,7.6403,7.6403,7.6403,7.6403,7.6403,7.6403,7.6403,7.6403,7.6403,7.6403,7.6403,7.6403,7.6403,7.6403,7.6403,7.6403,7.6403,7.6403,7.6403,7.6403,7.6403,7.6403,7.6403,7.6403,7.6403,7.6403,7.6403,7.6403,7.6403,7.6403,7.6403,7.6403,7.6403,7.7101,7.7101,7.7101,7.7101,7.7101,7.7101,7.7101,7.7101,7.7101,7.7101,7.7101,7.7101,7.7101,7.7101,7.7101,7.7101,7.7101,7.7101,7.7101,7.7101,7.7101,7.7101,7.7087,7.7097,7.7097,7.7146,7.7187,7.7187,7.7187,7.7187,7.7187,7.7187,7.7187,7.7187,7.7187,7.7048,7.6822,7.6822,7.6653,7.6399,7.6393,7.6421,7.6403,7.6403,7.6403,7.6403,7.6403,7.6403,7.6403,7.6403,7.6403,7.6403,7.6403,7.6403,7.6403,7.6403,7.6403,7.6403,7.6403,7.6403,7.6403,7.6403,7.6403,7.6403,7.6403,7.6403,7.6403,7.6403,7.6403,7.6403,7.6403,7.6403,7.6403,7.6403,7.6403,7.6403,7.6403,7.6403,7.6403,7.6403,7.6403,7.6403,7.6403,7.6403,7.6403,7.6403,7.6403,7.6403,7.6403,7.6403,7.6403,7.6403,7.6403,7.6403,7.6403,7.6403,7.6403,7.6403,7.6403,7.6403,7.6403,7.6403,7.6403,7.6403,7.6403,7.6403,7.6403,7.6403,7.6403,7.6403,7.6403,7.6403,7.6403,7.6403,7.6403,7.6403,7.7101,7.7101,7.7101,7.7101,7.7101,7.7101,7.7101,7.7101,7.7101,7.7101,7.7101,7.7101,7.7101,7.7101,7.7101,7.7101,7.7101,7.7101,7.7101,7.7101,7.7106,7.7115,7.7092,7.7139,7.7143,7.7187,7.7187,7.7187,7.7187,7.7187,7.7187,7.7187,7.7187,7.7187,7.71,7.697,7.6799,7.671,7.6564,7.6403,7.6403,7.6403,7.6403,7.6403,7.6403,7.6403,7.6403,7.6403,7.6403,7.6403,7.6403,7.6403,7.6403,7.6403,7.6403,7.6403,7.6403,7.6403,7.6403,7.6403,7.6403,7.6403,7.6403,7.6403,7.6403,7.6403,7.6403,7.6403,7.6403,7.6403,7.6403,7.6403,7.6403,7.6403,7.6403,7.6403,7.6403,7.6403,7.6403,7.6403,7.6403,7.6403,7.6403,7.6403,7.6403,7.6403,7.6403,7.6403,7.6403,7.6403,7.6403,7.6403,7.6403,7.6403,7.6403,7.6403,7.6403,7.6403,7.6403,7.6403,7.6403,7.6403,7.6403,7.6403,7.6403,7.6403,7.6403,7.6403,7.6403,7.6403,7.6403,7.6403,7.6403,7.6403,7.6403,7.6403,7.7101,7.7101,7.7101,7.7101,7.7101,7.7101,7.7101,7.7101,7.7101,7.7101,7.7101,7.7101,7.7101,7.7101,7.7101,7.7101,7.7101,7.7101,7.7101,7.7101,7.7108,7.7083,7.7093,7.7141,7.7184,7.7187,7.7187,7.7187,7.7187,7.7187,7.7187,7.7187,7.7187,7.7187,7.7047,7.6942,7.6793,7.6642,7.6531,7.6403,7.6403,7.6403,7.6403,7.6403,7.6403,7.6403,7.6403,7.6403,7.6403,7.6403,7.6403,7.6403,7.6403,7.6403,7.6403,7.6403,7.6403,7.6403,7.6403,7.6403,7.6403,7.6403,7.6403,7.6403,7.6403,7.6403,7.6403,7.6403,7.6403,7.6403,7.6403,7.6403,7.6403,7.6403,7.6403,7.6403,7.6403,7.6403,7.6403,7.6403,7.6403,7.6403,7.6403,7.6403,7.6403,7.6403,7.6403,7.6403,7.6403,7.6403,7.6403,7.6403,7.6403,7.6403,7.6403,7.6403,7.6403,7.6403,7.6403,7.6403,7.6403,7.6403,7.6403,7.6403,7.6403,7.6403,7.6403,7.6403,7.6403,7.6403,7.6403,7.6403,7.6403,7.6403,7.6403,7.6403,7.7101,7.7101,7.7101,7.7101,7.7101,7.7101,7.7101,7.7101,7.7101,7.7101,7.7101,7.7101,7.7101,7.7101,7.7101,7.7101,7.7101,7.7101,7.7101,7.7101,7.7108,7.7083,7.7093,7.7141,7.7184,7.7187,7.7187,7.7187,7.7187,7.7187,7.7187,7.7187,7.7187,7.7187,7.7046,7.6901,7.6793,7.668,7.6531,7.6403,7.6403,7.6403,7.6403,7.6403,7.6403,7.6403,7.6403,7.6403,7.6403,7.6403,7.6403,7.6403,7.6403,7.6403,7.6403,7.6403,7.6403,7.6403,7.6403,7.6403,7.6403,7.6403,7.6403,7.6403,7.6403,7.6403,7.6403,7.6403,7.6403,7.6403,7.6403,7.6403,7.6403,7.6403,7.6403,7.6403,7.6403,7.6403,7.6403,7.6403,7.6403,7.6403,7.6403,7.6403,7.6403,7.6403,7.6403,7.6403,7.6403,7.6403,7.6403,7.6403,7.6403,7.6403,7.6403,7.6403,7.6403,7.6403,7.6403,7.6403,7.6403,7.6403,7.6403,7.6403,7.6403,7.6403,7.6403,7.6403,7.6403,7.6403,7.6403,7.6403,7.6403,7.6403,7.6403,7.6403,7.7101,7.7101,7.7101,7.7101,7.7101,7.7101,7.7101,7.7101,7.7101,7.7101,7.7101,7.7101,7.7101,7.7101,7.7101,7.7101,7.7101,7.7101,7.7101,7.7111,7.7083,7.7094,7.7097,7.7142,7.7187,7.7187,7.7187,7.7187,7.7187,7.7187,7.7187,7.7187,7.7145,7.7045,7.6938,7.679,7.6634,7.6521,7.6427,7.6403,7.6403,7.6403,7.6403,7.6403,7.6403,7.6403,7.6403,7.6403,7.6403,7.6403,7.6403,7.6403,7.6403,7.6403,7.6403,7.6403,7.6403,7.6403,7.6403,7.6403,7.6403,7.6403,7.6403,7.6403,7.6403,7.6403,7.6403,7.6403,7.6403,7.6403,7.6403,7.6403,7.6403,7.6403,7.6403,7.6403,7.6403,7.6403,7.6403,7.6403,7.6403,7.6403,7.6403,7.6403,7.6403,7.6403,7.6403,7.6403,7.6403,7.6403,7.6403,7.6403,7.6403,7.6403,7.6403,7.6403,7.6403,7.6403,7.6403,7.6403,7.6403,7.6403,7.6403,7.6403,7.6403,7.6403,7.6403,7.6403,7.6403,7.6403,7.6403,7.6403,7.6403,7.6403,7.6403,7.6403,7.7101,7.7101,7.7101,7.7101,7.7101,7.7101,7.7101,7.7101,7.7101,7.7101,7.7101,7.7101,7.7101,7.7101,7.7101,7.7101,7.7101,7.7104,7.711,7.7118,7.7129,7.7141,7.7141,7.7145,7.7187,7.7187,7.7187,7.7187,7.7187,7.7187,7.7187,7.7145,7.7092,7.698,7.6807,7.6665,7.6591,7.6466,7.6403,7.6403,7.6403,7.6403,7.6403,7.6403,7.6403,7.6403,7.6403,7.6403,7.6403,7.6403,7.6403,7.6403,7.6403,7.6403,7.6403,7.6403,7.6403,7.6403,7.6403,7.6403,7.6403,7.6403,7.6403,7.6403,7.6403,7.6403,7.6403,7.6403,7.6403,7.6403,7.6403,7.6403,7.6403,7.6403,7.6403,7.6403,7.6403,7.6403,7.6403,7.6403,7.6403,7.6403,7.6403,7.6403,7.6403,7.6403,7.6403,7.6403,7.6403,7.6403,7.6403,7.6403,7.6403,7.6403,7.6403,7.6403,7.6403,7.6403,7.6403,7.6403,7.6403,7.6403,7.6403,7.6403,7.6403,7.6403,7.6403,7.6403,7.6403,7.6403,7.6403,7.6403,7.6403,7.6403,7.6403,7.6403,7.7101,7.7101,7.7101,7.7101,7.7101,7.7101,7.7101,7.7101,7.7101,7.7101,7.7101,7.7101,7.7101,7.7101,7.7101,7.7101,7.7101,7.7107,7.7081,7.7084,7.7132,7.7183,7.7184,7.7186,7.7187,7.7187,7.7187,7.7187,7.7187,7.7187,7.7187,7.7048,7.6981,7.6968,7.6713,7.6596,7.6569,7.6455,7.6403,7.6403,7.6403,7.6403,7.6403,7.6403,7.6403,7.6403,7.6403,7.6403,7.6403,7.6403,7.6403,7.6403,7.6403,7.6403,7.6403,7.6403,7.6403,7.6403,7.6403,7.6403,7.6403,7.6403,7.6403,7.6403,7.6403,7.6403,7.6403,7.6403,7.6403,7.6403,7.6403,7.6403,7.6403,7.6403,7.6403,7.6403,7.6403,7.6403,7.6403,7.6403,7.6403,7.6403,7.6403,7.6403,7.6403,7.6403,7.6403,7.6403,7.6403,7.6403,7.6403,7.6403,7.6403,7.6403,7.6403,7.6403,7.6403,7.6403,7.6403,7.6403,7.6403,7.6403,7.6403,7.6403,7.6403,7.6403,7.6403,7.6403,7.6403,7.6403,7.6403,7.6403,7.6403,7.6403,7.6403,7.6403,7.7101,7.7101,7.7101,7.7101,7.7101,7.7101,7.7101,7.7101,7.7101,7.7101,7.7101,7.7101,7.7101,7.7101,7.7101,7.7101,7.7101,7.7103,7.7106,7.7087,7.7097,7.7139,7.7186,7.7187,7.7187,7.7187,7.7187,7.7187,7.7187,7.7187,7.7187,7.7048,7.6954,7.6835,7.6661,7.656,7.6438,7.6426,7.6403,7.6403,7.6403,7.6403,7.6403,7.6403,7.6403,7.6403,7.6403,7.6403,7.6403,7.6403,7.6403,7.6403,7.6403,7.6403,7.6403,7.6403,7.6403,7.6403,7.6403,7.6403,7.6403,7.6403,7.6403,7.6403,7.6403,7.6403,7.6403,7.6403,7.6403,7.6403,7.6403,7.6403,7.6403,7.6403,7.6403,7.6403,7.6403,7.6403,7.6403,7.6403,7.6403,7.6403,7.6403,7.6403,7.6403,7.6403,7.6403,7.6403,7.6403,7.6403,7.6403,7.6403,7.6403,7.6403,7.6403,7.6403,7.6403,7.6403,7.6403,7.6403,7.6403,7.6403,7.6403,7.6403,7.6403,7.6403,7.6403,7.6403,7.6403,7.6403,7.6403,7.6403,7.6403,7.6403,7.6403,7.6403,7.7101,7.7101,7.7101,7.7101,7.7101,7.7101,7.7101,7.7101,7.7101,7.7101,7.7101,7.7101,7.7101,7.7101,7.7101,7.7101,7.7101,7.7107,7.7082,7.7093,7.7101,7.7145,7.7187,7.7187,7.7187,7.7187,7.7187,7.7187,7.7187,7.7187,7.7187,7.6983,7.6861,7.6796,7.6596,7.6477,7.6403,7.6403,7.6403,7.6403,7.6403,7.6403,7.6403,7.6403,7.6403,7.6403,7.6403,7.6403,7.6403,7.6403,7.6403,7.6403,7.6403,7.6403,7.6403,7.6403,7.6403,7.6403,7.6403,7.6403,7.6403,7.6403,7.6403,7.6403,7.6403,7.6403,7.6403,7.6403,7.6403,7.6403,7.6403,7.6403,7.6403,7.6403,7.6403,7.6403,7.6403,7.6403,7.6403,7.6403,7.6403,7.6403,7.6403,7.6403,7.6403,7.6403,7.6403,7.6403,7.6403,7.6403,7.6403,7.6403,7.6403,7.6403,7.6403,7.6403,7.6403,7.6403,7.6403,7.6403,7.6403,7.6403,7.6403,7.6403,7.6403,7.6403,7.6403,7.6403,7.6403,7.6403,7.6403,7.6403,7.6403,7.6403,7.6403,7.6403,7.7101,7.7101,7.7101,7.7101,7.7101,7.7101,7.7101,7.7101,7.7101,7.7101,7.7101,7.7101,7.7101,7.7101,7.7101,7.7101,7.7101,7.7112,7.7093,7.7097,7.7103,7.7187,7.7187,7.7187,7.7187,7.7187,7.7187,7.7187,7.7187,7.7187,7.7187,7.6942,7.6802,7.6793,7.6531,7.6403,7.6403,7.6403,7.6403,7.6403,7.6403,7.6403,7.6403,7.6403,7.6403,7.6403,7.6403,7.6403,7.6403,7.6403,7.6403,7.6403,7.6403,7.6403,7.6403,7.6403,7.6403,7.6403,7.6403,7.6403,7.6403,7.6403,7.6403,7.6403,7.6403,7.6403,7.6403,7.6403,7.6403,7.6403,7.6403,7.6403,7.6403,7.6403,7.6403,7.6403,7.6403,7.6403,7.6403,7.6403,7.6403,7.6403,7.6403,7.6403,7.6403,7.6403,7.6403,7.6403,7.6403,7.6403,7.6403,7.6403,7.6403,7.6403,7.6403,7.6403,7.6403,7.6403,7.6403,7.6403,7.6403,7.6403,7.6403,7.6403,7.6403,7.6403,7.6403,7.6403,7.6403,7.6403,7.6403,7.6403,7.6403,7.6403,7.6403,7.6403,7.7101,7.7101,7.7101,7.7101,7.7101,7.7101,7.7101,7.7101,7.7101,7.7101,7.7101,7.7101,7.7101,7.7101,7.7101,7.7101,7.7101,7.7103,7.7107,7.7089,7.7099,7.7101,7.7186,7.7187,7.7187,7.7187,7.7187,7.7187,7.7187,7.7187,7.7187,7.6942,7.6802,7.6793,7.6531,7.6403,7.6403,7.6403,7.6403,7.6403,7.6403,7.6403,7.6403,7.6403,7.6403,7.6403,7.6403,7.6403,7.6403,7.6403,7.6403,7.6403,7.6403,7.6403,7.6403,7.6403,7.6403,7.6403,7.6403,7.6403,7.6403,7.6403,7.6403,7.6403,7.6403,7.6403,7.6403,7.6403,7.6403,7.6403,7.6403,7.6403,7.6403,7.6403,7.6403,7.6403,7.6403,7.6403,7.6403,7.6403,7.6403,7.6403,7.6403,7.6403,7.6403,7.6403,7.6403,7.6403,7.6403,7.6403,7.6403,7.6403,7.6403,7.6403,7.6403,7.6403,7.6403,7.6403,7.6403,7.6403,7.6403,7.6403,7.6403,7.6403,7.6403,7.6403,7.6403,7.6403,7.6403,7.6403,7.6403,7.6403,7.6403,7.6403,7.6403,7.6403,7.7101,7.7101,7.7101,7.7101,7.7101,7.7101,7.7101,7.7101,7.7101,7.7101,7.7101,7.7101,7.7101,7.7101,7.7101,7.7101,7.7101,7.7104,7.7114,7.7091,7.7139,7.7142,7.7187,7.7187,7.7187,7.7187,7.7187,7.7187,7.7187,7.7187,7.7187,7.6942,7.6802,7.6793,7.6531,7.6403,7.6403,7.6403,7.6403,7.6403,7.6403,7.6403,7.6403,7.6403,7.6403,7.6403,7.6403,7.6403,7.6403,7.6403,7.6403,7.6403,7.6403,7.6403,7.6403,7.6403,7.6403,7.6403,7.6403,7.6403,7.6403,7.6403,7.6403,7.6403,7.6403,7.6403,7.6403,7.6403,7.6403,7.6403,7.6403,7.6403,7.6403,7.6403,7.6403,7.6403,7.6403,7.6403,7.6403,7.6403,7.6403,7.6403,7.6403,7.6403,7.6403,7.6403,7.6403,7.6403,7.6403,7.6403,7.6403,7.6403,7.6403,7.6403,7.6403,7.6403,7.6403,7.6403,7.6403,7.6403,7.6403,7.6403,7.6403,7.6403,7.6403,7.6403,7.6403,7.6403,7.6403,7.6403,7.6403,7.6403,7.6403,7.6403,7.6403,7.6403]}]]